[[{"header":{"parameterUnit":"m.s-1","parameterCategory":1,"la1":31.0,"la2":29.5877,"lo1":-88.7671,"lo2":-86.6584,"dy":0.0162,"dx":0.0185,"nx":115,"ny":88,"refTime":"2024-04-03T12:00:00:Z","depth":0,"parameterNumber":2,"parameterNumberName":"U-component_of_WINDS"},"data":[0.0,0.0,0.0,0.0,0.0,0.0,0.0,0.0,0.0,0.0,0.0,0.0,0.0,0.0,0.0,0.0,0.0,0.0,0.0,0.0,0.0,0.0,0.0,0.0,0.0,0.0,0.0,0.0,0.0,0.0,0.0,0.0,0.0,0.0,0.0,0.0,0.0,0.0,0.0,0.0,0.0,0.0,0.0,0.0,0.0,0.0,0.0,0.0,0.0,0.0,0.0,0.0,0.0,0.0,0.0,0.0,0.0,0.0,0.0,0.0,0.0,0.0,0.0,0.0,0.0,0.0,0.0,0.0,0.0,0.0,0.0,0.0,0.0,0.0,0.0,0.0,0.0,0.0,0.0,0.0,0.0,0.0,0.0,0.0,0.0,0.0,0.0,0.0,0.0,0.0,0.0,0.0,0.0,0.0,0.0,0.0,0.0,0.0,0.0,0.0,0.0,0.0,0.0,0.0,0.0,0.0,0.0,0.0,0.0,0.0,0.0,0.0,0.0,0.0,0.0,0.0,0.0,0.0,0.0,0.0,0.0,0.0,0.0,0.0,0.0,0.0,0.0,0.0,0.0,0.0,0.0,0.0,0.0,0.0,0.0,0.0,0.0,0.0,0.0,0.0,0.0,0.0,0.0,0.0,0.0,0.0,0.0,0.0,0.0,0.0,0.0,0.0,0.0,0.0,0.0,0.0,0.0,0.0,0.0,0.0,0.0,0.0,0.0,0.0,0.0,0.0,0.0,0.0,0.0,0.0,0.0,0.0,0.0,0.0,0.0,0.0,0.0,0.0,0.0,0.0,0.0,0.0,0.0,0.0,0.0,0.0,0.0,0.0,0.0,0.0,0.0,0.0,0.0,0.0,0.0,0.0,0.0,0.0,0.0,0.0,0.0,0.0,0.0,0.0,0.0,0.0,0.0,0.0,0.0,0.0,0.0,0.0,0.0,0.0,0.0,0.0,0.0,0.0,0.0,0.0,0.0,0.0,0.0,0.0,0.0,0.0,0.0,0.0,0.0,0.0,0.0,0.0,0.0,0.0,0.0,0.0,0.0,0.0,0.0,0.0,0.0,0.0,0.0,0.0,0.0,0.0,0.0,0.0,0.0,0.0,0.0,0.0,0.0,0.0,0.0,0.0,0.0,0.0,0.0,0.0,0.0,0.0,0.0,0.0,0.0,0.0,0.0,0.0,0.0,0.0,0.0,0.0,0.0,0.0,0.0,0.0,0.0,0.0,0.0,0.0,0.0,0.0,0.0,0.0,0.0,0.0,0.0,0.0,0.0,0.0,0.0,0.0,0.0,0.0,0.0,0.0,0.0,0.0,0.0,0.0,0.0,0.0,0.0,0.0,0.0,0.0,0.0,0.0,0.0,0.0,0.0,0.0,0.0,0.0,0.0,0.0,0.0,0.0,0.0,0.0,0.0,0.0,0.0,0.0,0.0,0.0,0.0,0.0,0.0,0.0,0.0,0.0,0.0,0.0,0.0,0.0,0.0,0.0,0.0,0.0,0.0,0.0,0.0,0.0,0.0,0.0,0.0,0.0,0.0,0.0,0.0,0.0,0.0,0.0,0.0,0.0,0.0,0.0,0.0,0.0,0.0,0.0,0.0,0.0,0.0,0.0,0.0,0.0,0.0,0.0,0.0,0.0,0.0,0.0,0.0,0.0,0.0,0.0,0.0,0.0,0.0,0.0,0.0,0.0,0.0,0.0,0.0,0.0,0.0,0.0,0.0,0.0,0.0,0.0,0.0,0.0,0.0,0.0,0.0,0.0,0.0,0.0,0.0,0.0,0.0,0.0,0.0,0.0,0.0,0.0,0.0,0.0,0.0,0.0,0.0,0.0,0.0,0.0,0.0,0.0,0.0,0.0,0.0,0.0,0.0,0.0,0.0,0.0,0.0,0.0,0.0,0.0,0.0,0.0,0.0,0.0,0.0,0.0,0.0,0.0,0.0,0.0,0.0,0.0,0.0,0.0,0.0,0.0,0.0,0.0,0.0,0.0,0.0,0.0,0.0,0.0,0.0,0.0,0.0,0.0,0.0,0.0,0.0,0.0,0.0,0.0,0.0,0.0,0.0,0.0,0.0,0.0,0.0,0.0,0.0,0.0,0.0,0.0,0.0,0.0,0.0,0.0,0.0,0.0,0.0,0.0,0.0,0.0,0.0,0.0,0.0,0.0,0.0,0.0,0.0,0.0,0.0,0.0,0.0,0.0,0.0,0.0,0.0,0.0,0.0,0.0,0.0,0.0,0.0,0.0,0.0,0.0,0.0,0.0,0.0,0.0,0.0,0.0,0.0,0.0,0.0,0.0,0.0,0.0,0.0,0.0,0.0,0.0,0.0,0.0,0.0,0.0,0.0,0.0,0.0,0.0,0.0,0.0,0.0,0.0,0.0,0.0,0.0,0.0,0.0,0.0,0.0,0.0,0.0,0.0,0.0,0.0,0.0,0.0,0.0,0.0,0.0,0.0,0.0,0.0,0.0,0.0,0.0,0.0,0.0,0.0,0.0,0.0,0.0,0.0,0.0,0.0,0.0,0.0,0.0,0.0,0.0,0.0,0.0,0.0,0.0,0.0,0.0,0.0,0.0,0.0,0.0,0.0,0.0,0.0,0.0,0.0,0.0,0.0,0.0,0.0,0.0,0.0,0.0,0.0,0.0,0.0,0.0,0.0,0.0,0.0,0.0,0.0,0.0,0.0,0.0,0.0,0.0,0.0,0.0,0.0,0.0,0.0,0.0,0.0,0.0,0.0,0.0,0.0,0.0,0.0,0.0,0.0,0.0,0.0,0.0,0.0,0.0,0.0,0.0,0.0,0.0,0.0,0.0,0.0,0.0,0.0,0.0,0.0,0.0,0.0,0.0,0.0,0.0,0.0,0.0,0.0,0.0,0.0,0.0,0.0,0.0,0.0,0.0,0.0,0.0,0.0,0.0,0.0,0.0,0.0,0.0,0.0,0.0,0.0,0.0,0.0,0.0,0.0,0.0,0.0,0.0,0.0,0.0,0.0,0.0,0.0,0.0,0.0,0.0,0.0,0.0,0.0,0.0,0.0,0.0,0.0,0.0,0.0,0.0,0.0,0.0,0.0,0.0,0.0,0.0,0.0,0.0,0.0,0.0,0.0,0.0,0.0,0.0,0.0,0.0,0.0,0.0,0.0,0.0,0.0,0.0,0.0,0.0,0.0,0.0,0.0,0.0,0.0,0.0,0.0,0.0,0.0,0.0,0.0,0.0,0.0,0.0,0.0,0.0,0.0,0.0,0.0,0.0,0.0,0.0,0.0,0.0,0.0,0.0,0.0,0.0,0.0,0.0,0.0,0.0,0.0,0.0,0.0,0.0,0.0,0.0,0.0,0.0,0.0,0.0,0.0,0.0,0.0,0.0,0.0,0.0,0.0,0.0,0.0,0.0,0.0,0.0,0.0,0.0,0.0,0.0,0.0,0.0,0.0,0.0,0.0,0.0,0.0,0.0,0.0,0.0,0.0,0.0,0.0,0.0,0.0,0.0,0.0,0.0,0.0,0.0,0.0,0.0,0.0,0.0,0.0,0.0,0.0,0.0,0.0,0.0,0.0,0.0,0.0,0.0,0.0,0.0,0.0,0.0,0.0,0.0,0.0,0.0,0.0,0.0,0.0,0.0,0.0,0.0,0.0,0.0,0.0,0.0,0.0,0.0,0.0,0.0,0.0,0.0,0.0,0.0,0.0,0.0,0.0,0.0,0.0,0.0,0.0,0.0,0.0,0.0,0.0,0.0,0.0,0.0,0.0,0.0,0.0,0.0,0.0,0.0,0.0,0.0,0.0,0.0,0.0,0.0,0.0,0.0,0.0,0.0,0.0,0.0,0.0,0.0,0.0,0.0,0.0,0.0,0.0,0.0,0.0,0.0,0.0,0.0,0.0,0.0,0.0,0.0,0.0,0.0,0.0,0.0,0.0,0.0,0.0,0.0,0.0,0.0,0.0,0.0,0.0,0.0,0.0,0.0,0.0,0.0,0.0,0.0,0.0,0.0,0.0,0.0,0.0,0.0,0.0,0.0,0.0,0.0,0.0,0.0,0.0,0.0,0.0,0.0,0.0,0.0,0.0,0.0,0.0,0.0,0.0,0.0,0.0,0.0,0.0,0.0,0.0,0.0,0.0,0.0,0.0,0.0,0.0,0.0,0.0,0.0,0.0,0.0,0.0,0.0,0.0,0.0,0.0,0.0,0.0,0.0,0.0,0.0,0.0,0.0,0.0,0.0,0.0,0.0,0.0,0.0,0.0,0.0,0.0,-3.9101,0.0,0.0,0.0,0.0,0.0,0.0,0.0,0.0,0.0,0.0,0.0,0.0,0.0,0.0,0.0,0.0,0.0,0.0,0.0,0.0,0.0,0.0,0.0,0.0,0.0,0.0,0.0,0.0,0.0,0.0,0.0,0.0,0.0,0.0,0.0,0.0,0.0,0.0,0.0,0.0,0.0,0.0,0.0,0.0,0.0,0.0,0.0,0.0,0.0,0.0,0.0,0.0,0.0,0.0,0.0,0.0,0.0,0.0,0.0,0.0,0.0,0.0,0.0,0.0,0.0,0.0,0.0,0.0,0.0,0.0,0.0,0.0,0.0,0.0,0.0,0.0,0.0,0.0,0.0,0.0,0.0,0.0,0.0,0.0,0.0,0.0,0.0,0.0,0.0,0.0,0.0,0.0,0.0,0.0,0.0,0.0,0.0,0.0,0.0,0.0,0.0,0.0,0.0,0.0,0.0,0.0,0.0,0.0,0.0,0.0,-3.9101,-3.9101,-3.9059,-3.905,-3.9031,0.0,0.0,0.0,0.0,0.0,0.0,0.0,0.0,0.0,0.0,0.0,0.0,0.0,0.0,0.0,0.0,0.0,0.0,0.0,0.0,0.0,0.0,0.0,0.0,0.0,0.0,0.0,0.0,0.0,0.0,0.0,0.0,0.0,0.0,0.0,0.0,0.0,0.0,0.0,0.0,0.0,0.0,0.0,0.0,0.0,0.0,0.0,0.0,0.0,0.0,0.0,0.0,0.0,0.0,0.0,0.0,0.0,0.0,0.0,0.0,0.0,0.0,0.0,0.0,0.0,0.0,0.0,0.0,0.0,0.0,0.0,0.0,0.0,0.0,0.0,0.0,0.0,0.0,0.0,0.0,0.0,0.0,0.0,0.0,0.0,0.0,0.0,0.0,0.0,0.0,0.0,0.0,0.0,0.0,0.0,0.0,0.0,0.0,0.0,0.0,0.0,0.0,0.0,0.0,0.0,0.0,0.0,0.0,0.0,0.0,0.0,0.0,-3.9036,-3.8997,-3.8964,0.0,0.0,0.0,0.0,0.0,0.0,0.0,0.0,0.0,0.0,0.0,0.0,0.0,0.0,0.0,0.0,0.0,0.0,0.0,0.0,0.0,0.0,0.0,0.0,0.0,0.0,0.0,0.0,0.0,0.0,0.0,0.0,0.0,0.0,0.0,0.0,0.0,0.0,0.0,0.0,0.0,0.0,0.0,0.0,0.0,0.0,0.0,0.0,0.0,0.0,0.0,0.0,0.0,0.0,0.0,0.0,0.0,0.0,0.0,0.0,0.0,0.0,0.0,0.0,0.0,0.0,0.0,0.0,0.0,0.0,0.0,0.0,0.0,0.0,0.0,0.0,0.0,0.0,0.0,0.0,0.0,0.0,0.0,0.0,0.0,0.0,0.0,0.0,0.0,0.0,0.0,0.0,0.0,0.0,0.0,0.0,0.0,0.0,0.0,0.0,0.0,0.0,0.0,0.0,0.0,0.0,0.0,0.0,0.0,0.0,-3.9101,-3.9101,-3.9036,0.0,-3.8925,0.0,0.0,0.0,0.0,0.0,0.0,0.0,0.0,0.0,0.0,0.0,0.0,0.0,0.0,0.0,0.0,0.0,0.0,0.0,0.0,0.0,0.0,0.0,0.0,0.0,0.0,0.0,0.0,0.0,0.0,0.0,0.0,0.0,0.0,0.0,0.0,0.0,0.0,0.0,0.0,0.0,0.0,0.0,0.0,0.0,0.0,0.0,0.0,0.0,0.0,0.0,0.0,0.0,0.0,0.0,0.0,0.0,0.0,0.0,0.0,0.0,0.0,0.0,0.0,0.0,0.0,0.0,0.0,0.0,0.0,0.0,0.0,0.0,0.0,0.0,0.0,0.0,0.0,0.0,0.0,0.0,0.0,0.0,0.0,0.0,0.0,0.0,0.0,0.0,0.0,0.0,0.0,0.0,0.0,0.0,0.0,0.0,0.0,0.0,0.0,0.0,0.0,0.0,0.0,0.0,0.0,0.0,0.0,0.0,0.0,-4.0558,-4.0514,-3.9919,-3.9301,0.0,0.0,0.0,0.0,0.0,0.0,0.0,0.0,0.0,0.0,0.0,0.0,0.0,0.0,0.0,0.0,0.0,0.0,0.0,0.0,0.0,0.0,0.0,0.0,0.0,0.0,0.0,0.0,0.0,0.0,0.0,0.0,0.0,0.0,0.0,0.0,0.0,0.0,0.0,0.0,0.0,0.0,0.0,0.0,0.0,0.0,0.0,0.0,0.0,0.0,0.0,0.0,0.0,0.0,0.0,0.0,0.0,0.0,0.0,0.0,0.0,0.0,0.0,0.0,0.0,0.0,0.0,0.0,0.0,0.0,0.0,0.0,0.0,0.0,0.0,0.0,0.0,0.0,0.0,0.0,0.0,0.0,0.0,0.0,0.0,0.0,0.0,0.0,0.0,0.0,0.0,0.0,0.0,0.0,0.0,0.0,0.0,0.0,0.0,0.0,0.0,0.0,0.0,0.0,0.0,0.0,0.0,0.0,0.0,0.0,-4.1605,-4.1546,-4.1422,-4.0717,-3.9843,-3.8894,0.0,0.0,0.0,0.0,0.0,0.0,0.0,0.0,0.0,0.0,0.0,0.0,0.0,0.0,0.0,0.0,0.0,0.0,0.0,0.0,0.0,0.0,0.0,0.0,0.0,0.0,0.0,0.0,0.0,0.0,0.0,0.0,0.0,0.0,0.0,0.0,0.0,0.0,0.0,0.0,0.0,0.0,0.0,0.0,0.0,0.0,0.0,0.0,0.0,0.0,0.0,0.0,0.0,0.0,0.0,0.0,0.0,0.0,0.0,0.0,0.0,0.0,0.0,0.0,0.0,0.0,0.0,0.0,0.0,0.0,0.0,0.0,0.0,0.0,0.0,0.0,0.0,0.0,0.0,0.0,0.0,0.0,0.0,0.0,0.0,0.0,0.0,0.0,0.0,0.0,0.0,0.0,0.0,0.0,0.0,0.0,0.0,0.0,0.0,0.0,0.0,0.0,0.0,0.0,0.0,0.0,0.0,0.0,-4.1627,-4.1627,-4.1534,-4.1345,-4.1137,-4.0641,0.0,0.0,0.0,0.0,0.0,0.0,0.0,0.0,0.0,0.0,0.0,0.0,0.0,0.0,0.0,0.0,0.0,0.0,0.0,0.0,0.0,0.0,0.0,0.0,0.0,0.0,0.0,0.0,0.0,0.0,0.0,0.0,0.0,0.0,0.0,0.0,0.0,0.0,0.0,0.0,0.0,0.0,0.0,0.0,0.0,0.0,0.0,0.0,0.0,0.0,0.0,0.0,0.0,0.0,0.0,0.0,0.0,0.0,0.0,0.0,0.0,0.0,0.0,0.0,0.0,0.0,0.0,0.0,0.0,0.0,0.0,0.0,0.0,0.0,0.0,0.0,0.0,0.0,0.0,0.0,0.0,0.0,0.0,0.0,0.0,0.0,0.0,0.0,0.0,0.0,0.0,0.0,0.0,0.0,0.0,0.0,0.0,0.0,0.0,0.0,0.0,0.0,0.0,0.0,0.0,0.0,0.0,0.0,0.0,-4.3113,-4.3042,-4.2723,-4.2158,-4.1915,-4.1382,0.0,0.0,0.0,0.0,0.0,0.0,0.0,0.0,0.0,0.0,0.0,0.0,0.0,0.0,0.0,0.0,0.0,0.0,0.0,0.0,0.0,0.0,0.0,0.0,0.0,0.0,0.0,0.0,0.0,0.0,0.0,0.0,0.0,0.0,0.0,0.0,0.0,0.0,0.0,0.0,0.0,0.0,0.0,0.0,0.0,0.0,0.0,0.0,0.0,0.0,0.0,0.0,0.0,0.0,0.0,0.0,0.0,0.0,0.0,0.0,0.0,0.0,0.0,0.0,0.0,0.0,0.0,0.0,0.0,0.0,0.0,0.0,0.0,0.0,0.0,0.0,0.0,0.0,0.0,0.0,0.0,0.0,0.0,0.0,0.0,0.0,0.0,0.0,0.0,0.0,0.0,0.0,0.0,0.0,0.0,0.0,0.0,0.0,0.0,0.0,0.0,0.0,0.0,0.0,0.0,0.0,0.0,0.0,0.0,-4.391,0.0,-4.3459,-4.2943,-4.2674,-4.2083,0.0,0.0,0.0,0.0,0.0,0.0,0.0,0.0,0.0,0.0,0.0,0.0,0.0,0.0,0.0,0.0,0.0,0.0,0.0,0.0,0.0,0.0,0.0,0.0,0.0,0.0,0.0,0.0,0.0,0.0,0.0,0.0,0.0,0.0,0.0,0.0,0.0,0.0,0.0,0.0,0.0,0.0,0.0,0.0,0.0,0.0,0.0,0.0,0.0,0.0,0.0,0.0,0.0,0.0,0.0,0.0,0.0,0.0,0.0,0.0,0.0,0.0,0.0,0.0,0.0,0.0,0.0,0.0,0.0,0.0,0.0,0.0,0.0,0.0,0.0,0.0,0.0,0.0,0.0,0.0,0.0,0.0,0.0,0.0,0.0,0.0,0.0,0.0,0.0,0.0,0.0,0.0,0.0,0.0,0.0,0.0,0.0,0.0,0.0,0.0,0.0,0.0,0.0,0.0,0.0,0.0,0.0,0.0,-4.3806,-4.3841,-4.3723,-4.3709,-4.3617,-4.3376,-4.2814,0.0,0.0,0.0,0.0,0.0,0.0,0.0,0.0,0.0,0.0,0.0,0.0,0.0,0.0,0.0,0.0,0.0,0.0,0.0,0.0,0.0,0.0,0.0,0.0,0.0,0.0,0.0,0.0,0.0,0.0,0.0,0.0,0.0,0.0,0.0,0.0,0.0,0.0,0.0,0.0,0.0,0.0,0.0,0.0,0.0,0.0,0.0,0.0,0.0,0.0,0.0,0.0,0.0,0.0,0.0,0.0,0.0,0.0,0.0,0.0,0.0,0.0,0.0,0.0,0.0,0.0,0.0,0.0,0.0,0.0,0.0,0.0,0.0,0.0,0.0,0.0,0.0,0.0,0.0,0.0,0.0,0.0,0.0,0.0,0.0,0.0,0.0,0.0,0.0,0.0,0.0,0.0,0.0,0.0,0.0,0.0,0.0,0.0,0.0,0.0,0.0,0.0,0.0,0.0,0.0,0.0,0.0,0.0,0.0,-4.4635,-4.5103,-4.5328,-4.5309,-4.4492,-4.387,0.0,0.0,0.0,0.0,0.0,0.0,0.0,0.0,0.0,0.0,0.0,0.0,0.0,0.0,0.0,0.0,0.0,0.0,0.0,0.0,0.0,0.0,0.0,0.0,0.0,0.0,0.0,0.0,0.0,0.0,0.0,0.0,0.0,0.0,0.0,0.0,0.0,0.0,0.0,0.0,0.0,0.0,0.0,0.0,0.0,0.0,0.0,0.0,0.0,0.0,0.0,0.0,0.0,0.0,0.0,0.0,0.0,0.0,0.0,0.0,0.0,0.0,0.0,0.0,0.0,0.0,0.0,0.0,0.0,0.0,0.0,0.0,0.0,0.0,0.0,0.0,0.0,0.0,0.0,0.0,0.0,0.0,0.0,0.0,0.0,0.0,0.0,0.0,0.0,0.0,0.0,0.0,0.0,0.0,0.0,0.0,0.0,0.0,0.0,0.0,0.0,0.0,0.0,0.0,0.0,0.0,0.0,0.0,0.0,-4.5769,-4.5936,-4.5993,-4.5993,-4.5242,-4.4634,-4.4172,0.0,0.0,0.0,0.0,0.0,0.0,0.0,0.0,0.0,0.0,0.0,0.0,0.0,0.0,0.0,0.0,0.0,0.0,0.0,0.0,0.0,0.0,0.0,0.0,0.0,0.0,0.0,0.0,0.0,0.0,0.0,0.0,0.0,0.0,0.0,0.0,0.0,0.0,0.0,0.0,0.0,0.0,0.0,0.0,0.0,0.0,0.0,0.0,0.0,0.0,0.0,0.0,0.0,0.0,0.0,0.0,0.0,0.0,0.0,0.0,0.0,0.0,0.0,0.0,0.0,0.0,0.0,0.0,0.0,0.0,0.0,0.0,0.0,0.0,0.0,0.0,0.0,0.0,0.0,0.0,0.0,0.0,0.0,0.0,0.0,0.0,0.0,0.0,0.0,0.0,0.0,0.0,0.0,0.0,0.0,0.0,0.0,0.0,0.0,0.0,0.0,0.0,0.0,0.0,0.0,0.0,0.0,0.0,-4.7168,-4.6434,-4.603,-4.5974,-4.577,-4.5177,0.0,0.0,0.0,0.0,0.0,0.0,0.0,0.0,0.0,0.0,0.0,0.0,0.0,0.0,0.0,0.0,0.0,0.0,0.0,0.0,0.0,0.0,0.0,0.0,0.0,0.0,0.0,0.0,0.0,0.0,0.0,0.0,0.0,0.0,0.0,0.0,0.0,0.0,0.0,0.0,0.0,0.0,0.0,0.0,0.0,0.0,0.0,0.0,0.0,0.0,0.0,0.0,0.0,0.0,0.0,0.0,0.0,0.0,0.0,0.0,0.0,0.0,0.0,0.0,0.0,0.0,0.0,0.0,0.0,0.0,0.0,0.0,0.0,0.0,0.0,0.0,0.0,0.0,0.0,0.0,0.0,0.0,0.0,0.0,0.0,0.0,0.0,0.0,0.0,0.0,0.0,0.0,0.0,0.0,0.0,0.0,0.0,0.0,0.0,0.0,0.0,0.0,0.0,0.0,0.0,0.0,0.0,0.0,0.0,-4.7957,-4.7773,-4.7625,-4.7547,-4.6883,-4.5995,0.0,0.0,0.0,0.0,0.0,0.0,0.0,0.0,0.0,0.0,0.0,0.0,0.0,0.0,0.0,0.0,0.0,0.0,0.0,0.0,0.0,0.0,0.0,0.0,0.0,0.0,0.0,0.0,0.0,0.0,0.0,0.0,0.0,0.0,0.0,0.0,0.0,0.0,0.0,0.0,0.0,0.0,0.0,0.0,0.0,0.0,0.0,0.0,0.0,0.0,0.0,0.0,0.0,0.0,0.0,0.0,0.0,0.0,0.0,0.0,0.0,0.0,0.0,0.0,0.0,0.0,0.0,0.0,0.0,0.0,0.0,0.0,0.0,0.0,0.0,0.0,0.0,0.0,0.0,0.0,0.0,0.0,0.0,0.0,0.0,0.0,0.0,0.0,0.0,0.0,0.0,0.0,0.0,0.0,0.0,0.0,0.0,0.0,0.0,0.0,0.0,0.0,0.0,0.0,0.0,0.0,0.0,0.0,-4.7828,-4.8306,-4.8324,-4.8267,-4.8187,-4.7614,-4.6632,0.0,0.0,0.0,0.0,0.0,0.0,0.0,0.0,0.0,0.0,0.0,0.0,0.0,0.0,0.0,0.0,0.0,0.0,0.0,0.0,0.0,0.0,0.0,0.0,0.0,0.0,0.0,0.0,0.0,0.0,0.0,0.0,0.0,0.0,0.0,0.0,0.0,0.0,0.0,0.0,0.0,0.0,0.0,0.0,0.0,0.0,0.0,0.0,0.0,0.0,0.0,0.0,0.0,0.0,0.0,0.0,0.0,0.0,0.0,0.0,0.0,0.0,0.0,0.0,0.0,0.0,0.0,0.0,0.0,0.0,0.0,0.0,0.0,0.0,0.0,0.0,0.0,0.0,0.0,0.0,0.0,0.0,0.0,0.0,0.0,0.0,0.0,0.0,0.0,0.0,0.0,0.0,0.0,0.0,0.0,0.0,0.0,0.0,0.0,0.0,0.0,0.0,0.0,0.0,0.0,0.0,0.0,0.0,-4.8324,-4.8324,-4.8324,-4.8267,-4.8207,-4.7997,-4.7032,0.0,0.0,0.0,0.0,0.0,0.0,0.0,0.0,0.0,0.0,0.0,0.0,0.0,0.0,0.0,0.0,0.0,0.0,0.0,0.0,0.0,0.0,0.0,0.0,0.0,0.0,0.0,0.0,0.0,0.0,0.0,0.0,0.0,0.0,0.0,0.0,0.0,0.0,0.0,0.0,0.0,0.0,0.0,0.0,0.0,0.0,0.0,0.0,0.0,0.0,0.0,0.0,0.0,0.0,0.0,0.0,0.0,0.0,0.0,0.0,0.0,0.0,0.0,0.0,0.0,0.0,0.0,0.0,0.0,0.0,0.0,0.0,0.0,0.0,0.0,0.0,0.0,0.0,0.0,0.0,0.0,0.0,0.0,0.0,0.0,0.0,0.0,0.0,0.0,0.0,0.0,0.0,0.0,0.0,0.0,0.0,0.0,0.0,0.0,0.0,0.0,0.0,0.0,0.0,0.0,0.0,0.0,0.0,-4.8324,-4.8324,-4.8324,-4.8248,-4.8187,-4.7449,-4.6508,0.0,0.0,0.0,0.0,0.0,0.0,0.0,0.0,0.0,0.0,0.0,0.0,0.0,0.0,0.0,0.0,0.0,0.0,0.0,0.0,0.0,0.0,0.0,0.0,0.0,0.0,0.0,0.0,0.0,0.0,0.0,0.0,0.0,0.0,0.0,0.0,0.0,0.0,0.0,0.0,0.0,0.0,0.0,0.0,0.0,0.0,0.0,0.0,-4.0959,0.0,0.0,0.0,0.0,0.0,0.0,0.0,0.0,0.0,0.0,0.0,0.0,0.0,0.0,0.0,0.0,0.0,0.0,0.0,0.0,0.0,0.0,0.0,0.0,0.0,0.0,0.0,0.0,0.0,0.0,0.0,0.0,0.0,0.0,0.0,0.0,0.0,0.0,0.0,0.0,0.0,0.0,0.0,0.0,0.0,0.0,0.0,0.0,0.0,0.0,0.0,0.0,0.0,0.0,0.0,0.0,0.0,0.0,0.0,-4.8324,-4.8324,-4.8324,-4.8267,-4.821,-4.6939,-4.5981,0.0,0.0,0.0,0.0,0.0,0.0,0.0,0.0,0.0,0.0,0.0,0.0,0.0,0.0,0.0,0.0,0.0,0.0,0.0,0.0,0.0,0.0,0.0,0.0,0.0,0.0,0.0,0.0,0.0,0.0,0.0,0.0,0.0,0.0,0.0,0.0,0.0,0.0,0.0,0.0,0.0,0.0,0.0,0.0,0.0,0.0,0.0,0.0,0.0,0.0,0.0,0.0,0.0,0.0,0.0,0.0,0.0,0.0,0.0,0.0,0.0,0.0,0.0,0.0,0.0,0.0,0.0,0.0,0.0,0.0,0.0,0.0,0.0,0.0,0.0,0.0,0.0,0.0,0.0,0.0,0.0,0.0,0.0,0.0,0.0,0.0,0.0,0.0,0.0,0.0,0.0,0.0,0.0,0.0,0.0,0.0,0.0,0.0,0.0,0.0,0.0,0.0,0.0,0.0,0.0,0.0,0.0,-4.8248,-4.8324,-4.8324,-4.8324,-4.8324,-4.8268,-4.6558,-4.5565,-4.5486,0.0,0.0,0.0,0.0,0.0,0.0,0.0,0.0,0.0,0.0,0.0,0.0,0.0,0.0,0.0,0.0,0.0,0.0,0.0,0.0,0.0,0.0,0.0,0.0,0.0,0.0,0.0,0.0,0.0,0.0,0.0,0.0,0.0,0.0,0.0,0.0,0.0,0.0,-3.835,-3.9909,0.0,0.0,0.0,0.0,0.0,0.0,0.0,0.0,-4.2541,0.0,0.0,0.0,0.0,0.0,0.0,0.0,0.0,0.0,0.0,0.0,0.0,0.0,0.0,0.0,0.0,0.0,0.0,0.0,0.0,0.0,0.0,0.0,0.0,0.0,0.0,0.0,0.0,0.0,0.0,0.0,0.0,0.0,0.0,0.0,0.0,0.0,0.0,0.0,0.0,0.0,0.0,0.0,0.0,0.0,0.0,0.0,0.0,0.0,0.0,0.0,0.0,0.0,0.0,0.0,0.0,-4.8014,-4.8209,-4.8324,-4.8324,-4.8324,-4.8324,-4.825,-4.6558,-4.5565,-4.5433,0.0,0.0,0.0,0.0,0.0,0.0,0.0,0.0,0.0,0.0,0.0,0.0,0.0,0.0,0.0,0.0,0.0,0.0,0.0,0.0,0.0,0.0,0.0,0.0,0.0,0.0,0.0,0.0,0.0,0.0,0.0,0.0,0.0,0.0,0.0,0.0,0.0,0.0,0.0,-4.019,-4.0859,0.0,0.0,0.0,0.0,0.0,0.0,0.0,0.0,-4.2059,0.0,0.0,0.0,0.0,0.0,0.0,0.0,0.0,0.0,0.0,0.0,0.0,0.0,0.0,0.0,0.0,0.0,0.0,0.0,0.0,0.0,0.0,0.0,0.0,0.0,0.0,0.0,0.0,0.0,0.0,0.0,0.0,0.0,0.0,0.0,0.0,0.0,0.0,0.0,0.0,0.0,0.0,0.0,0.0,0.0,0.0,0.0,0.0,0.0,0.0,0.0,0.0,0.0,0.0,0.0,-4.7975,-4.8169,-4.8267,-4.8306,-4.8324,-4.8267,-4.821,-4.6519,-4.5525,0.0,0.0,0.0,0.0,0.0,0.0,0.0,0.0,0.0,0.0,0.0,0.0,0.0,0.0,0.0,0.0,0.0,0.0,0.0,0.0,0.0,0.0,0.0,0.0,0.0,0.0,0.0,0.0,0.0,0.0,0.0,0.0,0.0,0.0,0.0,0.0,0.0,0.0,0.0,0.0,-4.1247,-4.2118,-4.2273,0.0,0.0,0.0,0.0,0.0,0.0,-4.2818,-4.2046,0.0,0.0,0.0,0.0,0.0,0.0,0.0,0.0,0.0,0.0,0.0,0.0,0.0,0.0,0.0,0.0,0.0,0.0,0.0,0.0,0.0,0.0,0.0,0.0,0.0,0.0,0.0,0.0,0.0,0.0,0.0,0.0,0.0,0.0,0.0,0.0,0.0,0.0,0.0,0.0,0.0,0.0,0.0,0.0,0.0,0.0,0.0,0.0,0.0,0.0,0.0,0.0,0.0,0.0,0.0,-4.7676,-4.7977,-4.8169,-4.823,-4.8248,-4.819,-4.8092,-4.6442,-4.5409,0.0,0.0,0.0,0.0,0.0,0.0,0.0,0.0,0.0,0.0,0.0,0.0,0.0,0.0,0.0,0.0,0.0,0.0,0.0,0.0,0.0,0.0,0.0,0.0,0.0,0.0,0.0,0.0,0.0,0.0,0.0,0.0,0.0,0.0,0.0,0.0,0.0,0.0,0.0,0.0,0.0,-4.3104,-4.3443,-4.3479,0.0,0.0,0.0,0.0,-4.3479,-4.2818,0.0,0.0,0.0,0.0,0.0,0.0,0.0,0.0,0.0,0.0,0.0,0.0,0.0,0.0,0.0,0.0,0.0,0.0,0.0,0.0,0.0,0.0,0.0,0.0,0.0,0.0,0.0,0.0,0.0,0.0,0.0,0.0,0.0,0.0,0.0,0.0,0.0,0.0,0.0,0.0,0.0,0.0,0.0,0.0,0.0,0.0,0.0,0.0,0.0,0.0,0.0,0.0,0.0,0.0,0.0,0.0,-4.671,-4.7448,-4.7913,-4.8032,-4.8032,-4.7992,-4.7816,-4.6206,-4.5231,0.0,0.0,0.0,0.0,0.0,0.0,0.0,0.0,0.0,0.0,0.0,0.0,0.0,0.0,0.0,0.0,0.0,0.0,0.0,0.0,0.0,0.0,0.0,0.0,0.0,0.0,0.0,0.0,0.0,0.0,0.0,0.0,0.0,0.0,0.0,0.0,0.0,0.0,0.0,0.0,0.0,-4.2465,-4.337,-4.3479,-4.3479,0.0,0.0,-4.3479,-4.3479,-4.2818,0.0,0.0,0.0,0.0,0.0,0.0,0.0,0.0,0.0,0.0,0.0,0.0,0.0,0.0,0.0,0.0,0.0,0.0,0.0,0.0,0.0,0.0,0.0,0.0,0.0,0.0,0.0,0.0,0.0,0.0,0.0,0.0,0.0,0.0,0.0,0.0,0.0,0.0,0.0,0.0,0.0,0.0,0.0,0.0,0.0,0.0,0.0,0.0,0.0,0.0,0.0,0.0,0.0,0.0,0.0,-4.7007,-4.6543,-4.7327,-4.7829,-4.801,-4.7992,-4.7911,-4.7765,-4.6144,-4.5168,0.0,0.0,0.0,0.0,0.0,0.0,0.0,0.0,0.0,0.0,0.0,0.0,0.0,0.0,0.0,0.0,0.0,0.0,0.0,0.0,0.0,0.0,0.0,0.0,0.0,0.0,0.0,0.0,0.0,0.0,0.0,0.0,0.0,0.0,0.0,0.0,0.0,0.0,0.0,0.0,0.0,0.0,-4.3352,-4.3479,0.0,0.0,0.0,-4.3479,-4.3479,0.0,0.0,0.0,0.0,0.0,0.0,0.0,0.0,0.0,0.0,0.0,0.0,0.0,0.0,0.0,0.0,0.0,0.0,0.0,0.0,0.0,0.0,0.0,0.0,0.0,0.0,0.0,0.0,0.0,0.0,0.0,0.0,0.0,0.0,0.0,0.0,0.0,0.0,0.0,0.0,0.0,0.0,0.0,0.0,0.0,0.0,0.0,0.0,0.0,0.0,0.0,0.0,0.0,0.0,0.0,0.0,0.0,-4.6171,-4.709,-4.7702,-4.7929,-4.7911,-4.7827,-4.7578,-4.6217,0.0,0.0,0.0,0.0,0.0,0.0,0.0,0.0,0.0,0.0,0.0,0.0,0.0,0.0,0.0,0.0,0.0,0.0,0.0,0.0,0.0,0.0,0.0,0.0,0.0,0.0,0.0,-3.7312,0.0,0.0,0.0,0.0,0.0,0.0,0.0,0.0,0.0,0.0,0.0,0.0,0.0,0.0,-4.2428,-4.3645,-4.3791,-4.3882,0.0,0.0,-4.4102,-4.4085,-4.392,-4.3516,0.0,0.0,0.0,0.0,0.0,0.0,0.0,0.0,0.0,0.0,0.0,0.0,0.0,0.0,0.0,0.0,0.0,0.0,0.0,0.0,0.0,0.0,0.0,0.0,0.0,0.0,0.0,0.0,0.0,0.0,0.0,0.0,0.0,0.0,0.0,0.0,0.0,0.0,0.0,0.0,0.0,0.0,0.0,0.0,0.0,0.0,0.0,0.0,0.0,0.0,0.0,0.0,0.0,0.0,0.0,-4.5201,-4.6568,-4.7468,-4.7699,-4.772,-4.7597,-4.7323,-4.6442,-4.5501,0.0,0.0,0.0,0.0,0.0,0.0,0.0,0.0,0.0,0.0,0.0,0.0,0.0,0.0,0.0,0.0,0.0,0.0,0.0,0.0,0.0,0.0,0.0,0.0,0.0,0.0,0.0,0.0,0.0,0.0,0.0,0.0,0.0,0.0,0.0,0.0,0.0,0.0,0.0,0.0,0.0,-4.2647,-4.4361,-4.4618,-4.4892,0.0,0.0,-4.5736,-4.5736,-4.5112,-4.436,-4.3552,0.0,0.0,0.0,0.0,0.0,0.0,0.0,0.0,0.0,0.0,0.0,0.0,0.0,0.0,0.0,0.0,0.0,0.0,0.0,0.0,0.0,0.0,0.0,0.0,0.0,0.0,0.0,0.0,0.0,0.0,0.0,0.0,0.0,0.0,0.0,0.0,0.0,0.0,0.0,0.0,0.0,0.0,0.0,0.0,0.0,0.0,0.0,0.0,0.0,0.0,0.0,0.0,0.0,-4.6574,-4.5791,-4.7349,-4.8251,-4.8438,-4.8356,-4.8207,-4.7985,-4.6597,-4.5548,0.0,0.0,0.0,0.0,0.0,0.0,0.0,0.0,0.0,0.0,0.0,0.0,0.0,0.0,0.0,0.0,0.0,0.0,0.0,0.0,0.0,0.0,0.0,0.0,0.0,0.0,0.0,0.0,-3.9388,-3.968,-3.9406,0.0,0.0,0.0,0.0,0.0,0.0,0.0,0.0,0.0,0.0,-4.3321,-4.4508,-4.5131,0.0,0.0,-4.5902,-4.5902,-4.5902,-4.5626,-4.5333,-4.5021,-4.3883,0.0,0.0,0.0,0.0,0.0,0.0,0.0,0.0,0.0,0.0,0.0,0.0,0.0,0.0,0.0,0.0,0.0,0.0,0.0,0.0,0.0,0.0,0.0,0.0,0.0,0.0,0.0,0.0,0.0,0.0,0.0,0.0,0.0,0.0,0.0,0.0,0.0,0.0,0.0,0.0,0.0,0.0,0.0,0.0,0.0,0.0,0.0,0.0,0.0,0.0,0.0,0.0,-4.6865,-4.6564,-4.7969,-4.8868,-4.9191,-4.9103,-4.8839,-4.8338,-4.7064,-4.5987,0.0,0.0,0.0,0.0,0.0,0.0,0.0,0.0,0.0,0.0,0.0,0.0,0.0,0.0,0.0,0.0,0.0,0.0,0.0,0.0,0.0,0.0,0.0,0.0,0.0,0.0,0.0,0.0,-4.014,-4.0473,-4.0094,0.0,0.0,0.0,0.0,0.0,0.0,0.0,0.0,0.0,0.0,-4.4418,-4.5296,-4.5883,-4.6361,-4.6599,-4.6617,-4.6636,-4.6617,-4.6434,-4.625,-4.6269,0.0,0.0,0.0,0.0,0.0,0.0,0.0,0.0,0.0,0.0,0.0,0.0,0.0,0.0,0.0,0.0,0.0,0.0,0.0,0.0,0.0,0.0,0.0,0.0,0.0,0.0,0.0,0.0,0.0,0.0,-4.3741,0.0,0.0,0.0,0.0,0.0,0.0,0.0,0.0,0.0,0.0,0.0,0.0,0.0,0.0,0.0,0.0,0.0,0.0,0.0,0.0,0.0,0.0,-4.7133,-4.7374,-4.8293,-4.9117,-4.9857,-4.9893,-4.9351,-4.8293,-4.7909,-4.6918,-4.5168,0.0,0.0,0.0,0.0,0.0,0.0,0.0,0.0,0.0,0.0,0.0,0.0,0.0,0.0,0.0,0.0,0.0,0.0,0.0,0.0,0.0,0.0,0.0,0.0,0.0,0.0,-4.0571,-4.1251,-4.152,0.0,0.0,0.0,0.0,0.0,0.0,0.0,0.0,0.0,0.0,-4.4748,-4.6066,-4.6892,-4.7076,-4.7333,-4.8067,-4.8233,-4.8233,-4.8214,-4.7571,-4.7076,0.0,0.0,0.0,0.0,0.0,0.0,0.0,0.0,0.0,0.0,0.0,0.0,0.0,0.0,0.0,0.0,0.0,0.0,0.0,0.0,0.0,0.0,0.0,0.0,0.0,0.0,0.0,-4.576,-4.5761,0.0,0.0,0.0,0.0,0.0,0.0,0.0,0.0,0.0,0.0,0.0,-4.6376,-4.6468,0.0,0.0,0.0,0.0,0.0,0.0,0.0,0.0,0.0,0.0,0.0,0.0,-4.7989,-4.8183,-4.9645,-5.0525,-5.0705,-5.0525,-5.017,-4.9606,-4.8728,-4.7321,-4.5346,0.0,0.0,0.0,0.0,0.0,0.0,0.0,0.0,0.0,0.0,0.0,0.0,0.0,0.0,0.0,0.0,0.0,0.0,0.0,0.0,0.0,0.0,0.0,0.0,0.0,-4.0162,0.0,0.0,0.0,0.0,0.0,0.0,0.0,0.0,0.0,0.0,0.0,-4.3541,-4.4653,-4.5749,-4.6573,-4.6867,-4.7437,-4.7935,0.0,0.0,0.0,0.0,0.0,0.0,0.0,0.0,0.0,0.0,0.0,0.0,0.0,0.0,-4.3791,-4.2194,-4.1901,-4.2066,-4.258,0.0,0.0,0.0,0.0,0.0,0.0,0.0,0.0,0.0,0.0,0.0,0.0,0.0,0.0,-4.6552,0.0,-4.6021,0.0,0.0,0.0,0.0,0.0,0.0,0.0,0.0,-4.7251,-4.751,-4.7806,-4.7893,-4.7893,0.0,-4.7806,-4.7242,0.0,0.0,0.0,0.0,0.0,0.0,0.0,0.0,-4.8721,-4.9419,-5.0606,-5.1274,-5.1429,-5.1191,-5.0787,-5.0229,-4.8976,-4.7577,-4.6065,-4.4763,-4.3372,0.0,0.0,0.0,0.0,0.0,0.0,0.0,0.0,0.0,0.0,0.0,0.0,0.0,0.0,0.0,0.0,0.0,0.0,0.0,0.0,0.0,0.0,0.0,-4.1151,0.0,0.0,0.0,0.0,0.0,0.0,0.0,0.0,0.0,-4.2936,-4.3756,-4.474,-4.5816,-4.6694,-4.7226,-4.7226,0.0,0.0,0.0,0.0,0.0,0.0,0.0,-4.9169,-4.9187,-4.8746,-4.8177,-4.7608,-4.6856,-4.6232,-4.5938,0.0,0.0,-4.3846,-4.3552,-4.3699,-4.4249,-4.4341,-4.4342,-4.4323,-4.4323,-4.4323,0.0,0.0,0.0,0.0,0.0,0.0,0.0,0.0,-4.8176,-4.7941,0.0,-4.7621,0.0,0.0,0.0,0.0,0.0,-4.6648,0.0,0.0,-4.8368,-4.8882,-4.9657,-4.9657,-4.9716,-4.9711,-4.9657,-4.9639,-4.9526,-4.7654,0.0,0.0,0.0,0.0,0.0,0.0,-4.9364,-5.0994,-5.112,-5.1465,-5.2048,-5.1822,-5.1172,-5.0122,-4.8687,-4.7717,-4.7227,-4.571,-4.4771,-4.4547,-4.1856,0.0,0.0,0.0,0.0,0.0,0.0,0.0,0.0,0.0,0.0,0.0,0.0,0.0,0.0,0.0,0.0,0.0,0.0,0.0,0.0,-4.0798,0.0,0.0,0.0,0.0,0.0,0.0,0.0,0.0,0.0,0.0,-4.3243,-4.5134,-4.6743,-4.6858,0.0,0.0,0.0,0.0,-4.8338,-4.914,-4.935,-4.9706,-5.0456,-5.0686,-5.0765,-5.0784,0.0,0.0,-4.8673,-4.7755,-4.7021,-4.6232,-4.6214,-4.6049,-4.6085,-4.6012,-4.5975,-4.6049,-4.6104,-4.6085,-4.6067,-4.6232,-4.6177,-5.1689,0.0,0.0,0.0,0.0,-4.9155,-4.9018,-4.8951,-4.824,-4.8069,-4.8267,-4.7729,0.0,0.0,0.0,0.0,0.0,0.0,-4.8524,-4.8984,-4.9231,-4.9518,-4.983,-4.9938,-4.9938,-4.987,-4.983,-4.9784,-4.9675,-4.9105,-4.8803,-4.8821,0.0,0.0,0.0,0.0,-5.0587,-5.1107,-5.1661,-5.2006,-5.2084,-5.1758,-5.1157,-5.0342,-4.9153,-4.8408,-4.8065,-4.6855,-4.5727,-4.4649,-4.3785,0.0,0.0,0.0,0.0,0.0,0.0,0.0,0.0,0.0,0.0,0.0,0.0,0.0,0.0,0.0,0.0,0.0,0.0,0.0,-4.1302,-4.1957,-4.2231,0.0,0.0,0.0,0.0,0.0,0.0,0.0,0.0,0.0,-4.613,-4.6375,-4.7,0.0,0.0,-4.8853,-4.9419,-4.9537,-4.9653,-4.9871,-5.001,0.0,0.0,-5.0643,-5.0684,-5.0782,-5.082,-5.0637,-5.016,-4.9903,-4.9644,-4.9407,-4.9389,-4.9389,-4.9334,-4.8416,-4.7884,-4.8398,-4.8985,-4.937,-4.9389,-4.9407,-4.937,-5.2356,-5.1263,-5.0897,-5.0429,-4.9932,-4.9579,-4.9272,-4.8968,-4.8606,-4.8583,-4.8817,-4.8644,-4.8574,-4.858,-4.8505,0.0,0.0,0.0,-4.9332,-4.9949,-5.0431,-5.0919,-5.1411,-5.1805,-5.1968,-5.1881,-5.1881,-5.1834,-5.1782,-5.1764,-5.1741,-5.1687,0.0,0.0,-5.0253,-5.0808,-5.1455,-5.2134,-5.2504,-5.278,-5.2927,-5.2187,-5.1343,-5.0425,-4.9647,-4.9108,-4.8834,-4.781,-4.6819,-4.594,-4.5089,-4.3768,0.0,0.0,0.0,0.0,0.0,0.0,0.0,0.0,0.0,0.0,0.0,-3.7973,0.0,0.0,0.0,0.0,-4.1129,-4.1587,-4.2406,-4.2838,0.0,0.0,0.0,0.0,0.0,0.0,0.0,-4.5402,-4.626,-4.7099,-4.7919,-4.7983,-4.8279,-4.9257,-4.9383,-4.9546,-5.0039,0.0,-5.0272,-5.0598,-5.074,-5.0976,-5.1332,-5.1429,-5.1514,-5.1655,-5.1461,-5.1279,-5.1261,-5.1041,-5.082,-5.082,-5.082,-5.082,-5.082,-5.0196,-4.9774,-5.0031,-5.0453,-5.0784,-5.082,-5.082,-5.082,-5.3073,-5.2914,-5.2394,-5.1621,-5.0683,-5.0374,-4.9828,-4.9218,-4.9325,-4.9491,-4.9688,-5.0178,-5.0094,-4.961,-4.9267,0.0,-4.928,-4.9483,-5.0156,-5.1203,-5.194,-5.2822,-5.382,-5.4544,-5.4907,-5.4888,-5.4907,-5.4907,-5.4852,-5.487,-5.4907,-5.4816,-5.1687,-5.0541,-5.1342,-5.1419,-5.2165,-5.3724,-5.3501,-5.3627,-5.413,-5.2927,-5.1716,-5.0519,-5.0126,-4.9818,-4.95,-4.854,-4.7956,-4.7838,-4.5957,-4.4801,-4.4581,0.0,0.0,0.0,0.0,0.0,0.0,0.0,0.0,0.0,0.0,0.0,0.0,0.0,0.0,0.0,-4.266,0.0,-4.2971,-4.3447,0.0,0.0,0.0,-4.4543,-4.4692,-4.4893,-4.5383,-4.6389,0.0,0.0,-4.8981,-4.9727,-5.0238,-5.0383,-5.0293,-5.0238,-5.0293,-5.0438,-5.0633,-5.1452,-5.1683,-5.2023,-5.2704,-5.2921,-5.305,-5.3163,-5.2682,-5.238,-5.2344,-5.183,-5.1298,-5.1389,-5.1224,-5.1279,-5.1206,-5.1885,-5.2068,-5.1408,-5.1151,-5.1041,-5.1114,-5.1132,-5.1151,-5.5388,-5.5274,-5.4138,-5.2903,-5.1655,-5.1296,-5.1085,-5.09,-5.0946,-5.104,-5.1227,-5.1713,-5.2068,-5.2246,-5.22,-5.2259,-5.2502,-5.2529,-5.2915,-5.3551,-5.3756,-5.4138,-5.4617,-5.4816,-5.4907,-5.4907,-5.4907,-5.4907,-5.4907,-5.4907,-5.4907,-5.487,-5.4056,-5.3785,-5.399,-5.4008,-5.4122,-5.4393,-5.4226,-5.3995,-5.3744,-5.3185,-5.2365,-5.1355,-5.0833,-5.0245,-4.9552,-4.9033,-4.8477,-4.7906,-4.7411,-4.6363,-4.4699,-4.4259,0.0,0.0,0.0,0.0,0.0,0.0,0.0,0.0,0.0,-4.013,-4.0882,0.0,-4.2354,0.0,-4.3837,-4.4129,-4.3786,-4.4086,0.0,0.0,-4.417,-4.4649,-4.5441,-4.6269,-4.7126,-4.8031,-4.8934,-4.9778,-5.0633,-5.0886,-5.1488,-5.2625,-5.1774,-5.1212,-5.1828,-5.2462,-5.2896,-5.3114,-5.3626,-5.4163,-5.4311,-5.4537,-5.4656,-5.4806,-5.4649,-5.462,-5.4711,-5.4601,-5.4454,-5.4454,-5.4454,-5.4454,-5.4363,-5.462,-5.4638,-5.4399,-5.35,-5.2637,-5.2637,-5.2616,-5.2616,-5.684,-5.6756,-5.594,-5.5058,-5.4086,-5.2746,-5.1924,-5.1648,-5.1711,-5.1788,-5.1957,-5.2458,-5.2887,-5.3201,-5.3257,-5.3387,-5.3508,-5.3627,-5.3896,-5.4261,-5.473,-5.5062,-5.5297,-5.5733,-5.5921,-5.5921,-5.5921,-5.5921,-5.5921,-5.5939,-5.5896,-5.5822,-5.5822,-5.5815,-5.5728,-5.5177,-5.496,-5.5119,-5.5173,-5.4848,-5.4158,-5.3767,-5.3084,-5.2091,-5.1252,-5.0545,-4.9996,-4.9355,-4.8815,-4.8426,-4.8075,-4.7361,-4.6143,-4.5737,-4.4891,0.0,0.0,0.0,0.0,0.0,0.0,0.0,0.0,0.0,0.0,0.0,-4.3115,-4.3859,-4.4521,-4.4753,-4.4477,-4.5131,-4.5542,-4.5397,-4.5958,-4.6637,-4.7347,-4.8016,-4.8645,-4.9256,-5.0104,-5.0818,-5.1249,-5.1919,-5.2679,-5.3585,-5.3241,-5.3059,-5.3476,-5.3983,-5.4237,-5.4255,-5.4617,-5.4913,-5.4948,-5.5025,-5.5143,-5.5194,-5.5309,-5.5418,-5.5485,-5.557,-5.5614,-5.5614,-5.5614,-5.5614,-5.5614,-5.5614,-5.5614,-5.5482,-5.4895,-5.4326,-5.4271,-5.4271,-5.4271,-5.7702,-5.7685,-5.7387,-5.7176,-5.6794,-5.4443,-5.2983,-5.2281,-5.2303,-5.2372,-5.2568,-5.3002,-5.3264,-5.35,-5.363,-5.3669,-5.3714,-5.3928,-5.4145,-5.4367,-5.5291,-5.5803,-5.5974,-5.6787,-5.7188,-5.7188,-5.7206,-5.7163,-5.7181,-5.7138,-5.7087,-5.6977,-5.6933,-5.6899,-5.674,-5.5642,-5.5374,-5.5887,-5.6098,-5.5776,-5.4973,-5.4472,-5.3783,-5.2857,-5.1701,-5.0986,-5.0748,-4.9814,-4.9238,-4.9137,-4.8514,-4.8122,-4.7872,-4.7293,-4.6312,0.0,-4.4886,0.0,0.0,0.0,0.0,0.0,0.0,0.0,0.0,-4.3561,-4.4045,-4.4818,-4.512,-4.5268,-4.5367,-4.641,-4.7178,-4.7377,-4.8295,-4.9057,-4.9424,-4.9713,-4.9946,-5.023,-5.1031,-5.1611,-5.1701,-5.2933,-5.3856,-5.4092,-5.4562,-5.4943,-5.516,-5.5106,-5.5033,-5.5051,-5.5142,-5.5377,-5.5347,-5.5347,-5.5383,-5.5376,-5.559,-5.5661,-5.5798,-5.5888,-5.59,-5.5941,-5.6014,-5.5981,-5.5904,-5.5963,-5.5941,-5.6037,-5.5941,-5.5812,-5.5556,-5.5445,-5.5614,-5.8243,-5.8191,-5.7372,-5.7047,-5.6948,-5.6322,-5.5556,-5.4688,-5.4053,-5.4063,-5.4465,-5.4539,-5.4767,-5.5051,-5.5098,-5.5185,-5.5266,-5.5312,-5.5568,-5.5955,-5.6268,-5.6552,-5.6768,-5.7083,-5.7188,-5.7188,-5.7105,-5.7036,-5.701,-5.6925,-5.6873,-5.6847,-5.6715,-5.668,-5.6591,0.0,0.0,0.0,-5.6128,-5.5876,-5.5678,-5.5209,-5.458,-5.3686,-5.3025,0.0,-5.1538,-5.1021,-5.0524,-4.9932,-4.9746,0.0,0.0,0.0,0.0,0.0,0.0,0.0,0.0,0.0,0.0,0.0,-4.594,-4.5213,-4.3623,-4.457,-4.5642,-4.6452,-4.6578,-4.6777,-4.7169,-4.7509,-4.7891,-4.8294,-4.8705,-4.9039,-4.946,-5.0198,-5.0757,-5.1063,-5.2335,-5.3241,-5.3277,-5.411,-5.4888,-5.5377,-5.5685,-5.6047,-5.6645,-5.6156,-5.5794,-5.5812,-5.6265,-5.6699,-5.6772,-5.6724,-5.6708,-5.6927,-5.6958,-5.7043,-5.7196,-5.7285,-5.7409,-5.746,-5.7538,-5.7501,-5.7501,-5.7538,-5.7428,-5.7501,-5.7501,-5.7152,-5.5886,-5.5633,-5.5614,-5.9309,0.0,-5.8496,-5.8224,0.0,-5.7561,-5.7016,-5.6436,-5.5764,-5.5487,-5.5531,-5.5223,-5.5264,-5.5525,-5.5525,-5.5537,-5.5607,-5.5666,-5.585,-5.6162,-5.641,-5.6653,-5.6899,-5.6977,-5.7054,-5.7087,-5.6933,-5.6881,-5.6899,-5.6821,-5.6768,-5.6707,-5.6573,-5.6465,-5.6401,-5.6245,-5.6245,-5.6383,-5.6021,-5.5822,-5.5775,-5.5408,-5.4982,-5.4465,-5.3577,0.0,0.0,0.0,0.0,0.0,0.0,0.0,0.0,0.0,0.0,-4.7411,-4.7361,-4.7175,-4.6819,-4.6786,-4.6786,-4.6786,-4.6786,-4.6312,-4.5162,-4.5805,-4.6455,-4.6939,-4.706,-4.7273,-4.77,-4.8248,-4.8729,-4.9109,-4.9711,-5.0378,-5.116,-5.1742,-5.2324,-5.3013,-5.3784,-5.4291,-5.4291,-5.4961,-5.554,-5.5957,-5.6355,-5.6736,-5.708,-5.6862,-5.6609,-5.6591,-5.6899,-5.717,-5.7188,-5.7188,-5.7232,-5.7289,-5.7338,-5.7437,-5.7577,-5.7721,-5.7815,-5.7904,-5.795,-5.7978,-5.7978,-5.7978,-5.7978,-5.7978,-5.7978,-5.7795,-5.6914,-5.6785,-5.6785,-6.0114,-5.9437,-5.9437,-5.9352,-5.9114,-5.8323,-5.7929,-5.7707,0.0,0.0,0.0,-5.5558,-5.5426,-5.5641,-5.5501,-5.5478,-5.5507,-5.5607,-5.5735,-5.589,-5.6217,-5.651,-5.6733,-5.6768,-5.6847,-5.6951,-5.6821,-5.6768,-5.6768,-5.6742,-5.6662,-5.6573,-5.641,-5.629,-5.6095,-5.589,-5.5861,-5.6011,-5.5793,-5.5695,-5.5666,-5.5348,-5.5109,-5.493,-5.3856,-5.32,-5.3043,-5.2107,-5.1523,-5.1371,-5.0811,-5.0422,-5.0287,-4.9593,-4.8917,-4.8359,-4.8159,-4.7834,-4.7225,-4.7175,-4.7175,-4.7192,-4.7192,-4.7141,-4.7022,-4.7001,-4.7157,-4.7423,-4.7597,-4.7826,-4.8163,-4.9122,-4.9866,-5.0127,-5.1096,-5.2137,-5.3067,-5.343,-5.3819,-5.4665,-5.4937,-5.5106,-5.5106,-5.574,-5.621,-5.6301,-5.6754,-5.7188,-5.7188,-5.7152,-5.7116,-5.7134,-5.717,-5.7188,-5.7188,-5.7188,-5.7188,-5.7213,-5.7289,-5.7381,-5.7412,-5.7559,-5.7721,-5.7768,-5.7862,-5.795,-5.7955,-5.7997,-5.7978,-5.7978,-5.7978,-5.7978,-5.7978,-5.7978,-5.7905,-5.9545,-5.8823,-5.8823,-5.8823,-5.8771,-5.8546,-5.839,-5.8235,-5.6902,-5.6436,-5.6577,-5.5884,-5.581,-5.6243,-5.5544,-5.5336,-5.5525,-5.5507,-5.5607,-5.5753,-5.6085,-5.6308,-5.6482,-5.6689,-5.6821,-5.6821,-5.6707,-5.6626,-5.6626,-5.6519,-5.6455,-5.6428,-5.629,-5.6067,-5.5764,-5.5455,-5.5319,-5.5348,-5.5572,-5.5637,-5.5537,-5.5306,-5.5005,-5.4589,-5.423,-5.3922,-5.3597,-5.3296,-5.2858,-5.2198,-5.2046,-5.1708,-5.1082,-5.0338,-4.9881,-4.9763,-4.9204,-4.8798,-4.8714,-4.8697,-4.8697,-4.8697,-4.8697,-4.8426,-4.7817,-4.7836,-4.8239,-4.9031,-4.9335,-4.9671,-5.0007,-5.0847,-5.149,-5.1817,-5.266,-5.3424,-5.3849,-5.4143,-5.4417,-5.4747,-5.5376,-5.5848,-5.5903,-5.65,-5.6953,-5.7007,-5.708,-5.7188,-5.7188,-5.7188,-5.7188,-5.7188,-5.7188,-5.7188,-5.7188,-5.7188,-5.7188,-5.7188,-5.7213,-5.7282,-5.7363,-5.7437,-5.7528,-5.7625,-5.7726,-5.7815,-5.7839,-5.7927,-5.7973,-5.7978,-5.7978,-5.7978,-5.7978,-5.7978,-5.7978,-5.964,-5.8665,-5.8597,-5.8597,-5.8562,-5.8402,-5.8277,-5.8137,-5.7421,-5.7192,-5.7272,-5.6564,-5.6478,-5.6934,-5.6615,-5.6322,-5.6104,-5.6211,-5.61,-5.5822,-5.6067,-5.6346,-5.66,-5.6662,-5.6768,-5.6899,-5.6768,-5.6707,-5.6689,-5.6653,-5.6626,-5.66,-5.6346,-5.6039,-5.5724,-5.5348,-5.5169,-5.5079,-5.5264,-5.5234,-5.5083,-5.4974,-5.4741,-5.435,-5.4173,-5.3963,-5.3717,-5.3584,-5.3331,-5.2976,-5.2536,-5.2164,-5.1809,-5.1099,-5.0693,-5.0693,-5.0388,-5.0219,-5.0202,-5.0202,-5.0202,-5.0202,-5.0202,-5.0035,-4.9714,-4.8995,-4.9012,-5.0,-5.0219,-5.0629,-5.1442,-5.1981,-5.2391,-5.2555,-5.313,-5.3776,-5.442,-5.4723,-5.5145,-5.5797,-5.6259,-5.657,-5.6627,-5.6971,-5.7188,-5.7188,-5.7188,-5.7188,-5.7188,-5.7188,-5.7188,-5.7188,-5.7188,-5.7188,-5.7188,-5.7188,-5.7188,-5.7188,-5.7188,-5.7232,-5.7289,-5.7338,-5.7412,-5.7486,-5.7583,-5.7703,-5.7768,-5.7857,-5.7927,-5.7978,-5.7978,-5.7978,-5.7978,-5.7978,-5.7978,-5.9694,-5.8384,-5.8367,-5.8367,-5.8348,-5.8188,-5.8044,-5.7918,-5.7865,-5.7955,-5.7929,-5.7189,-5.7159,-5.7657,-5.7548,-5.7236,-5.6972,-5.7075,-5.6917,-5.6542,-5.6667,-5.6856,-5.7002,-5.6931,-5.6921,-5.6943,-5.6847,-5.6794,-5.6794,-5.6794,-5.6794,-5.6742,-5.6428,-5.6113,-5.5839,-5.5455,-5.5204,-5.5022,-5.4961,-5.4838,-5.4586,-5.4568,-5.4411,-5.4108,-5.4013,-5.3849,-5.3668,-5.3551,-5.3518,-5.3467,-5.2909,-5.257,-5.2536,-5.1877,-5.1454,-5.1454,-5.1319,-5.1234,-5.1234,-5.1234,-5.1234,-5.1234,-5.1234,-5.1217,-5.11,-5.0185,-4.9837,-5.0642,-5.0899,-5.1399,-5.223,-5.2798,-5.3061,-5.3189,-5.3622,-5.4292,-5.5021,-5.5337,-5.5777,-5.6713,-5.6933,-5.7018,-5.713,-5.7163,-5.7188,-5.7188,-5.7188,-5.7188,-5.7188,-5.7188,-5.7188,-5.7188,-5.7188,-5.7188,-5.7188,-5.7188,-5.7188,-5.7188,-5.7188,-5.7188,-5.7213,-5.7307,-5.7356,-5.7363,-5.7461,-5.7583,-5.7721,-5.781,-5.7857,-5.7955,-5.7978,-5.7978,-5.7978,-5.7978,-5.7978,-5.9309,-5.8056,-5.7971,-5.7954,-5.7971,-5.7935,-5.7918,-5.7881,-5.7881,-5.8135,-5.8286,-5.7585,-5.7653,-5.8179,-5.7669,-5.7573,-5.7849,-5.788,-5.8036,-5.8205,-5.8403,-5.8198,-5.7765,-5.7837,-5.7513,-5.6946,-5.691,-5.6946,-5.6893,-5.6839,-5.6794,-5.6768,-5.6519,-5.6318,-5.6113,-5.5695,-5.5312,-5.4992,-5.4886,-5.4637,-5.4284,-5.4252,-5.4076,-5.3749,-5.3733,-5.3668,-5.3517,-5.3501,-5.3518,-5.3501,-5.3433,-5.3382,-5.3315,-5.2638,-5.2198,-5.2181,-5.1606,-5.1234,-5.1251,-5.1234,-5.1252,-5.1234,-5.1302,-5.1302,-5.1269,-5.1116,-5.1095,-5.1469,-5.1843,-5.2092,-5.23,-5.3249,-5.3934,-5.3999,-5.4782,-5.553,-5.5616,-5.6027,-5.6339,-5.642,-5.6768,-5.7003,-5.7054,-5.7112,-5.7188,-5.7188,-5.7188,-5.7188,-5.7188,-5.7188,-5.7188,-5.7188,-5.7188,-5.7188,-5.7188,-5.7188,-5.7188,-5.7188,-5.7188,-5.7188,-5.7213,-5.7213,-5.7213,-5.7264,-5.7332,-5.7461,-5.7583,-5.7721,-5.7815,-5.7927,-5.7955,-5.7978,-5.7978,-5.7978,-5.7978,-5.9505,-5.8524,-5.8084,-5.7881,-5.7881,-5.7881,-5.7881,-5.7881,-5.7881,-5.8063,-5.8297,-5.8096,-5.8428,-5.9083,-5.8803,-5.866,-5.8738,-5.8933,-5.8846,-5.8663,-5.889,-5.8905,-5.879,-5.8808,-5.869,-5.8472,-5.8454,-5.8228,-5.7758,-5.7263,-5.7003,-5.6925,-5.6715,-5.6519,-5.6318,-5.5936,-5.5514,-5.5126,-5.4992,-5.4665,-5.4252,-5.4126,-5.3898,-5.3634,-5.3584,-5.3568,-5.3501,-5.3518,-5.3518,-5.3518,-5.3518,-5.3518,-5.3501,-5.3196,-5.301,-5.2993,-5.2739,-5.257,-5.2553,-5.257,-5.257,-5.257,-5.257,-5.257,-5.257,-5.257,-5.2603,-5.2651,-5.2633,-5.2783,-5.3338,-5.4117,-5.4612,-5.4725,-5.5208,-5.5607,-5.5677,-5.5918,-5.6162,-5.6355,-5.668,-5.6925,-5.7003,-5.713,-5.7206,-5.7188,-5.7188,-5.7188,-5.7188,-5.7188,-5.7188,-5.7188,-5.7188,-5.7188,-5.7188,-5.7188,-5.7188,-5.7188,-5.7188,-5.7188,-5.7188,-5.7188,-5.7188,-5.7206,-5.7365,-5.7447,-5.7437,-5.7583,-5.7721,-5.793,-5.7992,-5.7978,-5.7978,-5.7978,-5.7978,-5.9674,-5.8964,-5.8203,-5.7881,-5.7881,-5.7881,-5.7881,-5.7881,-5.7881,-5.7991,-5.8207,-5.8367,-5.8771,-5.9319,-5.9504,-5.9534,-5.9487,-5.979,-5.9728,-5.9427,-5.9665,-5.9752,-5.9691,-5.97,-5.9655,-5.9554,-5.9552,-5.9271,-5.8709,-5.8166,-5.7807,-5.7686,-5.7375,-5.7083,-5.6796,-5.636,-5.5786,-5.5396,-5.5204,-5.4852,-5.4333,-5.4126,-5.3899,-5.3584,-5.3534,-5.3518,-5.3518,-5.3518,-5.3518,-5.3518,-5.3518,-5.3518,-5.3518,-5.3518,-5.3518,-5.3518,-5.3518,-5.3518,-5.3518,-5.3518,-5.3518,-5.3518,-5.3518,-5.3518,-5.3518,-5.3518,-5.3518,-5.3467,-5.3291,-5.3417,-5.4055,-5.4589,-5.49,-5.4992,-5.5252,-5.549,-5.5637,-5.5764,-5.5947,-5.6245,-5.6492,-5.6786,-5.6933,-5.7105,-5.7156,-5.7206,-5.7188,-5.7188,-5.7188,-5.7188,-5.7188,-5.7188,-5.7188,-5.7188,-5.7188,-5.7188,-5.7188,-5.7188,-5.7188,-5.7188,-5.7261,-5.7315,-5.7532,-5.7768,-5.7732,-5.7964,-5.8369,-5.8341,-5.8239,-5.8379,-5.848,-5.8459,-5.8404,-5.8317,-5.8217,-5.9674,-5.8964,-5.8203,-5.7881,-5.7881,-5.7881,-5.7881,-5.7881,-5.7881,-5.7991,-5.8188,-5.8224,-5.8421,-5.8789,-5.9319,-5.9766,-6.0068,-6.0331,-6.0633,-6.0796,-6.1008,-6.0877,-6.0382,-6.0484,-6.016,-5.9682,-5.9771,-5.9679,-5.9561,-5.947,-5.9506,-5.9389,-5.8553,-5.8078,-5.7801,-5.6974,-5.6187,-5.5883,-5.5725,-5.5213,-5.4609,-5.4353,-5.4095,-5.3717,-5.3584,-5.3518,-5.3518,-5.3518,-5.3518,-5.3518,-5.3518,-5.3518,-5.3518,-5.3518,-5.3518,-5.3518,-5.3518,-5.3518,-5.3518,-5.3518,-5.3518,-5.3518,-5.3518,-5.3518,-5.3518,-5.3518,-5.3518,-5.3501,-5.3566,-5.3698,-5.3963,-5.4335,-5.4683,-5.493,-5.5109,-5.5277,-5.5478,-5.5637,-5.5764,-5.5947,-5.6245,-5.66,-5.6951,-5.7003,-5.7079,-5.7163,-5.7188,-5.7188,-5.7188,-5.7188,-5.7188,-5.7188,-5.7188,-5.7188,-5.7206,-5.7188,-5.7188,-5.7351,-5.746,-5.7351,-5.7496,-5.7732,-5.8094,-5.8474,-5.88,-5.916,-5.9535,-5.9648,-5.9554,-5.9607,-5.9639,-5.9542,-5.9036,-5.9095,-5.8996,-6.0131,-5.8964,-5.8203,-5.7881,-5.7881,-5.7881,-5.7881,-5.7881,-5.7881,-5.7918,-5.8044,-5.8152,-5.8243,-5.8385,-5.8823,-5.9351,-5.9893,-6.0262,-6.0574,-6.0908,-6.1075,-6.108,-6.0992,-6.1024,-6.1058,-6.099,-6.0991,-6.0775,-6.0313,-5.9887,-5.9615,-5.9552,-5.9291,-5.8996,-5.8727,-5.8385,-5.7927,-5.7411,-5.7329,-5.6736,-5.5668,-5.5378,-5.4866,-5.3949,-5.3618,-5.3518,-5.3518,-5.3518,-5.3518,-5.3518,-5.3518,-5.3518,-5.3518,-5.3518,-5.3518,-5.3518,-5.3518,-5.3518,-5.3518,-5.3518,-5.3518,-5.3518,-5.3518,-5.3518,-5.3518,-5.3518,-5.3518,-5.3501,-5.3517,-5.3634,-5.3849,-5.4207,-5.4543,-5.4683,-5.4913,-5.5126,-5.5294,-5.546,-5.5654,-5.5793,-5.6134,-5.6546,-5.6847,-5.7003,-5.7054,-5.7163,-5.7188,-5.7188,-5.7188,-5.7188,-5.7206,-5.7206,-5.7206,-5.7387,-5.7967,-5.7478,-5.7315,-5.7768,-5.8039,-5.8365,-5.8601,-5.88,-5.9144,-5.9198,-5.9633,-5.9832,-6.0046,-6.008,-6.0132,-6.0162,-6.0252,-6.0277,-5.9693,-5.978,-5.9682,-6.0402,-5.9049,-5.8473,-5.8101,-5.7881,-5.7881,-5.7881,-5.7881,-5.7881,-5.7881,-5.7918,-5.8044,-5.8116,-5.8135,-5.8421,-5.8806,-5.9401,-5.9811,-6.0195,-6.0477,-6.0727,-6.0896,-6.0968,-6.1087,-6.1281,-6.1559,-6.1746,-6.1579,-6.1181,-6.0647,-6.0412,-6.0394,-6.0105,-5.9808,-5.9555,-5.9229,-5.8749,-5.8332,-5.8231,-5.7618,-5.6638,-5.6365,-5.577,-5.4799,-5.4211,-5.3805,-5.3534,-5.3518,-5.3518,-5.3518,-5.3518,-5.3518,-5.3518,-5.3518,-5.3518,-5.3518,-5.3518,-5.3518,-5.3518,-5.3518,-5.3518,-5.3518,-5.3518,-5.3518,-5.3518,-5.3518,-5.3518,-5.3518,-5.3501,-5.3551,-5.3668,-5.398,-5.4271,-5.4399,-5.4634,-5.4882,-5.5018,-5.5264,-5.5472,-5.5706,-5.6067,-5.6437,-5.6742,-5.6873,-5.7003,-5.7112,-5.7181,-5.7188,-5.7188,-5.7188,-5.7351,-5.7514,-5.7641,-5.8021,-5.8546,-5.8474,-5.8311,-5.8673,-5.8782,-5.918,-5.9561,-5.9814,-5.9995,-6.0031,-6.0158,-6.0303,-6.0402,-6.0455,-6.0516,-6.0583,-6.0853,-6.1043,-6.0694,-6.0434,-6.0309,-6.0436,-5.9218,-5.9032,-5.8575,-5.8017,-5.7915,-5.7881,-5.7881,-5.7881,-5.7881,-5.7881,-5.7918,-5.7918,-5.7954,-5.8135,-5.8331,-5.8684,-5.9165,-5.9615,-5.9844,-6.015,-6.0307,-6.0388,-6.0648,-6.0926,-6.1164,-6.1559,-6.184,-6.1887,-6.1761,-6.1761,-6.1715,-6.1,-6.0538,-6.03,-5.9434,-5.869,-5.842,-5.8293,-5.7864,-5.7321,-5.7097,-5.6702,-5.6047,-5.5298,-5.4534,-5.3653,-5.3551,-5.3518,-5.3518,-5.3518,-5.3518,-5.3518,-5.3518,-5.3518,-5.3518,-5.3518,-5.3518,-5.3518,-5.3518,-5.3518,-5.3518,-5.3518,-5.3518,-5.3518,-5.3518,-5.3518,-5.3518,-5.3518,-5.3518,-5.3602,-5.3787,-5.3933,-5.4173,-5.4399,-5.454,-5.4759,-5.5018,-5.5319,-5.5631,-5.5982,-5.6235,-5.6428,-5.6626,-5.6821,-5.6984,-5.7087,-5.7254,-5.7369,-5.7406,-5.7605,-5.8166,-5.8438,-5.8728,-5.9198,-5.9615,-5.9615,-5.9651,-5.9633,-5.9814,-6.0212,-6.0502,-6.0756,-6.0864,-6.1091,-6.1236,-6.1263,-6.1308,-6.1435,-6.1533,-6.175,-6.1658,-6.1376,-6.1046,-6.085,-6.1011,-6.0452,-5.9438,-5.8896,-5.8609,-5.8118,-5.7881,-5.7881,-5.7881,-5.7881,-5.7881,-5.7881,-5.7881,-5.7918,-5.7954,-5.8116,-5.8295,-5.8562,-5.8892,-5.9402,-5.9551,-5.9814,-6.0121,-6.028,-6.0591,-6.1064,-6.1328,-6.1615,-6.1812,-6.184,-6.1913,-6.1878,-6.1605,-6.1266,-6.0938,-6.0404,-5.9921,-5.954,-5.9334,-5.8838,-5.8029,-5.7862,-5.7305,-5.6286,-5.5928,-5.5519,-5.5041,-5.4059,-5.3534,-5.3534,-5.3518,-5.3518,-5.3518,-5.3518,-5.3518,-5.3518,-5.3518,-5.3518,-5.3518,-5.3518,-5.3518,-5.3518,-5.3518,-5.3518,-5.3518,-5.3534,-5.3534,-5.3534,-5.3518,-5.3653,-5.4126,-5.4279,-5.4245,-5.3883,-5.411,-5.4453,-5.471,-5.4996,-5.5336,-5.5601,-5.5793,-5.6011,-5.6336,-5.6545,-5.6779,-5.7051,-5.7137,-5.734,-5.7869,-5.8039,-5.8347,-5.9054,-5.9216,-5.9506,-6.0104,-6.0484,-6.0557,-6.0557,-6.0538,-6.052,-6.0883,-6.1118,-6.139,-6.1571,-6.1833,-6.196,-6.2005,-6.2023,-6.2023,-6.2023,-6.1915,-6.1833,-6.1715,-6.156,-6.1331,-6.1552,-6.1163,-5.9945,-5.9252,-5.8947,-5.8203,-5.7881,-5.7881,-5.7881,-5.7881,-5.7881,-5.7881,-5.7881,-5.7881,-5.7881,-5.7971,-5.808,-5.8063,-5.8402,-5.8858,-5.9064,-5.9318,-5.9716,-5.9993,-6.0311,-6.0775,-6.1016,-6.1281,-6.1605,-6.1633,-6.169,-6.1802,-6.1662,-6.1368,-6.1046,-6.0696,-6.0294,-5.9864,-5.9666,-5.9208,-5.8544,-5.839,-5.7929,-5.7055,-5.6679,-5.6403,-5.6021,-5.4938,-5.4194,-5.3923,-5.367,-5.3518,-5.3518,-5.3518,-5.3518,-5.3518,-5.3518,-5.3518,-5.3518,-5.3518,-5.3518,-5.3518,-5.3518,-5.3518,-5.3551,-5.367,-5.3907,-5.3907,-5.4211,-5.4515,-5.4905,-5.5006,-5.4838,-5.45,-5.4769,-5.4982,-5.529,-5.5622,-5.6029,-5.6343,-5.6492,-5.6658,-5.689,-5.7201,-5.735,-5.7631,-5.7808,-5.8029,-5.8658,-5.8836,-5.9325,-5.976,-6.0013,-6.0448,-6.1082,-6.1308,-6.1435,-6.1462,-6.1462,-6.1435,-6.1598,-6.1679,-6.1842,-6.1824,-6.1978,-6.1978,-6.2023,-6.2023,-6.2023,-6.2023,-6.2023,-6.1951,-6.187,-6.1933,-6.1769,-6.1992,-6.1298,-6.0503,-5.9759,-5.9082,-5.8338,-5.7966,-5.7881,-5.7881,-5.7881,-5.7881,-5.7881,-5.7881,-5.7881,-5.7881,-5.7918,-5.7918,-5.7918,-5.8027,-5.8278,-5.8526,-5.8789,-5.9115,-5.9683,-6.004,-6.0276,-6.0587,-6.0921,-6.1223,-6.1281,-6.1368,-6.1519,-6.127,-6.0944,-6.0605,-6.0262,-5.9814,-5.9402,-5.9268,-5.9029,-5.8651,-5.8651,-5.8476,-5.8054,-5.7509,-5.708,-5.6784,-5.6072,-5.5344,-5.4617,-5.3957,-5.3636,-5.3534,-5.3518,-5.3518,-5.3518,-5.3518,-5.3518,-5.3518,-5.3518,-5.3568,-5.367,-5.3687,-5.3619,-5.389,-5.4363,-5.4668,-5.4685,-5.5175,-5.5615,-5.5716,-5.5784,-5.5767,-5.5835,-5.5807,-5.5996,-5.6568,-5.6746,-5.6848,-5.7238,-5.7631,-5.7816,-5.7786,-5.8189,-5.8495,-5.8731,-5.8961,-5.9186,-5.9562,-5.976,-6.0086,-6.0421,-6.0801,-6.1001,-6.1525,-6.1497,-6.1587,-6.1605,-6.1687,-6.1769,-6.1887,-6.195,-6.1941,-6.1941,-6.1941,-6.1941,-6.1996,-6.1969,-6.1996,-6.1996,-6.1996,-6.2023,-6.2023,-6.2033,-6.2033,-6.2279,-6.2026,-6.1298,-6.052,-5.9759,-5.9032,-5.8389,-5.7915,-5.7881,-5.7881,-5.7881,-5.7881,-5.7881,-5.7881,-5.7881,-5.7881,-5.7881,-5.7881,-5.7918,-5.8007,-5.8063,-5.8368,-5.8789,-5.9268,-5.9584,-5.9746,-6.0086,-6.045,-6.0757,-6.0861,-6.0998,-6.1211,-6.0968,-6.0679,-6.037,-5.9893,-5.9501,-5.9081,-5.8823,-5.8684,-5.8579,-5.8544,-5.8421,-5.8207,-5.7967,-5.7774,-5.7579,-5.69,-5.5902,-5.4702,-5.4431,-5.4042,-5.3653,-5.3602,-5.3653,-5.3636,-5.3585,-5.3551,-5.3551,-5.3568,-5.3771,-5.4245,-5.4296,-5.4549,-5.5073,-5.5277,-5.5412,-5.5446,-5.5649,-5.5987,-5.6376,-5.6511,-5.6731,-5.7122,-5.6585,-5.6269,-5.6574,-5.6687,-5.6867,-5.7111,-5.7468,-5.7757,-5.804,-5.8312,-5.8679,-5.8959,-5.9282,-5.9646,-6.0187,-6.0467,-6.0693,-6.1236,-6.1616,-6.1651,-6.174,-6.1692,-6.1654,-6.1608,-6.1664,-6.172,-6.1784,-6.184,-6.1802,-6.1718,-6.169,-6.169,-6.1756,-6.1812,-6.1868,-6.1868,-6.1923,-6.1941,-6.1978,-6.2005,-6.2005,-6.2398,-6.233,-6.1603,-6.1044,-6.0486,-5.9455,-5.8761,-5.8338,-5.8017,-5.7881,-5.7881,-5.7881,-5.7881,-5.7881,-5.7881,-5.7881,-5.7881,-5.7881,-5.7881,-5.7881,-5.7918,-5.8135,-5.8526,-5.8875,-5.9098,-5.9182,-5.9584,-5.9879,-6.0118,-6.029,-6.0481,-6.0591,-6.0463,-6.0195,-5.9861,-5.9501,-5.908,-5.8702,-5.8473,-5.8331,-5.826,-5.8277,-5.8188,-5.8063,-5.8063,-5.8007,-5.785,-5.7476,-5.6579,-5.5429,-5.504,-5.4871,-5.4499,-5.4431,-5.4431,-5.4431,-5.4431,-5.4448,-5.4448,-5.4431,-5.4617,-5.4955,-5.5057,-5.5277,-5.5649,-5.5953,-5.6156,-5.619,-5.6427,-5.6816,-5.712,-5.7256,-5.7459,-5.7681,-5.7228,-5.6913,-5.7175,-5.7398,-5.7585,-5.7802,-5.8033,-5.8276,-5.858,-5.8924,-5.9271,-5.9679,-6.0064,-6.0488,-6.0953,-6.1081,-6.118,-6.1568,-6.17,-6.1551,-6.1466,-6.1426,-6.1328,-6.1328,-6.1281,-6.1415,-6.1501,-6.1541,-6.1501,-6.1415,-6.1386,-6.1415,-6.1501,-6.1559,-6.1569,-6.1626,-6.1756,-6.184,-6.1868,-6.1868,-6.1895,-6.2398,-6.233,-6.167,-6.1383,-6.1078,-5.9877,-5.9218,-5.8879,-5.8338,-5.7983,-5.7898,-5.7881,-5.7881,-5.7881,-5.7881,-5.7881,-5.7881,-5.7881,-5.7881,-5.7881,-5.7918,-5.8027,-5.8224,-5.8526,-5.865,-5.8754,-5.9047,-5.9267,-5.9483,-5.9666,-5.9814,-5.9911,-5.9814,-5.9584,-5.9318,-5.9047,-5.8684,-5.8367,-5.8224,-5.8116,-5.7991,-5.7954,-5.7954,-5.7954,-5.7918,-5.7918,-5.7918,-5.7763,-5.7256,-5.5986,-5.585,-5.5698,-5.57,-5.5649,-5.5597,-5.5529,-5.548,-5.5513,-5.5649,-5.5462,-5.5664,-5.5767,-5.5818,-5.5886,-5.6156,-5.663,-5.69,-5.6917,-5.7509,-5.7679,-5.7746,-5.7831,-5.7814,-5.7901,-5.7833,-5.7957,-5.8152,-5.8348,-5.8579,-5.8927,-5.8944,-5.9267,-5.9666,-6.0086,-6.0379,-6.0148,-6.0511,-6.0787,-6.1103,-6.1196,-6.125,-6.1412,-6.1415,-6.1252,-6.1164,-6.1075,-6.0986,-6.0896,-6.0788,-6.0818,-6.0938,-6.0998,-6.1046,-6.1064,-6.1064,-6.1064,-6.1135,-6.1193,-6.1223,-6.1357,-6.1473,-6.1605,-6.169,-6.1672,-6.1654,-6.2398,-6.2381,-6.2229,-6.1823,-6.1315,-6.0943,-6.0131,-5.9032,-5.8846,-5.8406,-5.7983,-5.7881,-5.7881,-5.7881,-5.7881,-5.7881,-5.7881,-5.7881,-5.7881,-5.7881,-5.7881,-5.7918,-5.7991,-5.8207,-5.8331,-5.8385,-5.865,-5.8858,-5.8927,-5.9098,-5.9183,-5.925,-5.925,-5.9064,-5.8858,-5.8684,-5.8508,-5.8224,-5.8044,-5.7954,-5.7918,-5.7881,-5.7881,-5.7881,-5.7881,-5.7881,-5.7881,-5.7881,-5.7729,-5.7374,-5.6867,-5.6376,-5.5987,-5.5835,-5.5869,-5.5886,-5.5783,-5.5749,-5.575,-5.5869,-5.5987,-5.6511,-5.6596,-5.6799,-5.7374,-5.7459,-5.7611,-5.7662,-5.7797,-5.7865,-5.7881,-5.7881,-5.7881,-5.7881,-5.7881,-5.7918,-5.7991,-5.8135,-5.8367,-5.8614,-5.8961,-5.9352,-5.9619,-6.0043,-6.0343,-6.0591,-6.0805,-6.0986,-6.1093,-6.12,-6.1152,-6.1152,-6.0938,-6.077,-6.06,-6.0494,-6.0339,-6.0294,-6.0231,-6.0181,-6.0276,-6.0432,-6.0481,-6.0591,-6.0701,-6.0732,-6.0684,-6.0788,-6.083,-6.1016,-6.1152,-6.1241,-6.1328,-6.1339,-6.1455,-6.2398,-6.2398,-6.2398,-6.2161,-6.1789,-6.1417,-6.0622,-5.9607,-5.9096,-5.8592,-5.8,-5.7881,-5.7881,-5.7881,-5.7881,-5.7881,-5.7881,-5.7881,-5.7881,-5.7881,-5.7881,-5.7881,-5.7935,-5.8007,-5.808,-5.8116,-5.8314,-5.8456,-5.8526,-5.8649,-5.8788,-5.8754,-5.8771,-5.8667,-5.8474,-5.8402,-5.826,-5.8063,-5.7954,-5.7881,-5.7881,-5.7881,-5.7881,-5.7881,-5.7881,-5.7881,-5.7881,-5.7881,-5.7881,-5.7797,-5.7509,-5.7171,-5.6833,-5.6714,-5.6714,-5.6748,-5.6731,-5.6731,-5.6748,-5.6748,-5.6934,-5.7239,-5.7306,-5.7509,-5.778,-5.7881,-5.7881,-5.7881,-5.7865,-5.7881,-5.7881,-5.7881,-5.7881,-5.7881,-5.7881,-5.7881,-5.7918,-5.7991,-5.8152,-5.8367,-5.8701,-5.9013,-5.9352,-5.9816,-6.0107,-6.0262,-6.0561,-6.0762,-6.0714,-6.0775,-6.0714,-6.0635,-6.0432,-6.0244,-6.0036,-5.9844,-5.9633,-5.9584,-5.9551,-5.9501,-5.9534,-5.9731,-5.9926,-6.0075,-6.0206,-6.0139,-6.0121,-6.0262,-6.0388,-6.0401,-6.0512,-6.0745,-6.0926,-6.0968,-6.1087,-6.2398,-6.2398,-6.2398,-6.2398,-6.2296,-6.1738,-6.1044,-6.025,-5.9488,-5.8846,-5.8135,-5.7983,-5.7881,-5.7881,-5.7881,-5.7881,-5.7881,-5.7881,-5.7881,-5.7881,-5.7881,-5.7881,-5.7918,-5.7918,-5.7918,-5.7918,-5.8063,-5.8152,-5.8224,-5.8312,-5.8402,-5.8419,-5.8419,-5.8331,-5.8171,-5.8135,-5.808,-5.7918,-5.7918,-5.7881,-5.7881,-5.7881,-5.7881,-5.7881,-5.7881,-5.7881,-5.7881,-5.7881,-5.7881,-5.7881,-5.7881,-5.7881,-5.7881,-5.7881,-5.7881,-5.7831,-5.7695,-5.7628,-5.7611,-5.7712,-5.7763,-5.7881,-5.7848,-5.7848,-5.7865,-5.7881,-5.7881,-5.7881,-5.7881,-5.7881,-5.7881,-5.7881,-5.7881,-5.7881,-5.7881,-5.7881,-5.7881,-5.7918,-5.8007,-5.8188,-5.8473,-5.8754,-5.9064,-5.9451,-5.9716,-5.9993,-6.0266,-6.0423,-6.0374,-6.0294,-6.0167,-6.0022,-5.9829,-5.9648,-5.9483,-5.9317,-5.9115,-5.9047,-5.8995,-5.8995,-5.8944,-5.9115,-5.9335,-5.9538,-5.964,-5.9675,-5.9777,-5.9962,-5.9993,-5.9836,-5.9893,-6.0135,-6.0339,-6.0556,-6.0709,-6.2398,-6.2398,-6.2398,-6.2398,-6.2381,-6.2245,-6.1738,-6.1061,-6.0199,-5.9505,-5.8778,-5.8169,-5.7881,-5.7881,-5.7881,-5.7881,-5.7881,-5.7881,-5.7881,-5.7881,-5.7881,-5.7881,-5.7881,-5.7881,-5.7881,-5.7881,-5.7954,-5.7971,-5.7971,-5.7991,-5.8063,-5.8027,-5.8027,-5.7991,-5.7991,-5.7954,-5.7954,-5.7918,-5.7881,-5.7881,-5.7881,-5.7881,-5.7881,-5.7881,-5.7881,-5.7881,-5.7881,-5.7881,-5.7881,-5.7881,-5.7881,-5.7881,-5.7881,-5.7881,-5.7881,-5.7881,-5.7881,-5.7881,-5.7881,-5.7881,-5.7881,-5.7881,-5.7881,-5.7881,-5.7881,-5.7881,-5.7881,-5.7881,-5.7881,-5.7881,-5.7881,-5.7881,-5.7881,-5.7881,-5.7881,-5.7881,-5.7881,-5.7918,-5.7971,-5.8135,-5.8367,-5.8508,-5.8806,-5.9047,-5.93,-5.9518,-5.97,-5.9799,-5.9716,-5.9617,-5.9485,-5.9318,-5.9183,-5.9029,-5.8892,-5.8771,-5.8614,-5.8614,-5.8579,-5.8579,-5.8579,-5.8596,-5.8753,-5.8961,-5.934,-5.9685,-5.9719,-5.9771,-5.965,-5.958,-5.9576,-5.9535,-5.9731,-5.9891,-6.0118,-6.2398,-6.2398,-6.2398,-6.2398,-6.2398,-6.2398,-6.1975,-6.1247,-6.0452,-5.9691,-5.8964,-5.8254,-5.7881,-5.7881,-5.7881,-5.7881,-5.7881,-5.7881,-5.7881,-5.7881,-5.7881,-5.7881,-5.7881,-5.7881,-5.7881,-5.7881,-5.7881,-5.7881,-5.7881,-5.7918,-5.7881,-5.7918,-5.7881,-5.7881,-5.7881,-5.7918,-5.7881,-5.7881,-5.7881,-5.7881,-5.7881,-5.7881,-5.7881,-5.7881,-5.7881,-5.7881,-5.7881,-5.7881,-5.7881,-5.7881,-5.7881,-5.7881,-5.7881,-5.7881,-5.7881,-5.7881,-5.7881,-5.7881,-5.7881,-5.7881,-5.7881,-5.7881,-5.7881,-5.7881,-5.7881,-5.7881,-5.7881,-5.7881,-5.7881,-5.7881,-5.7881,-5.7881,-5.7881,-5.7881,-5.7881,-5.7881,-5.7881,-5.7881,-5.7954,-5.8063,-5.8207,-5.8331,-5.8438,-5.8702,-5.8892,-5.9047,-5.92,-5.9166,-5.9098,-5.9012,-5.8944,-5.884,-5.8736,-5.8597,-5.8474,-5.8385,-5.8295,-5.826,-5.826,-5.826,-5.826,-5.826,-5.826,-5.8314,-5.8833,-5.9559,-5.9662,-5.968,-5.9491,-5.9372,-5.9271,-5.9219,-5.9166,-5.9283,-5.9534,-6.2398,-6.2398,-6.2398,-6.2398,-6.2398,-6.2398,-6.2059,-6.1434,-6.0706,-5.9962,-5.9184,-5.849,-5.8068,-5.7915,-5.7881,-5.7881,-5.7881,-5.7881,-5.7881,-5.7881,-5.7881,-5.7881,-5.7881,-5.7881,-5.7881,-5.7881,-5.7881,-5.7881,-5.7881,-5.7881,-5.7881,-5.7881,-5.7881,-5.7881,-5.7881,-5.7881,-5.7881,-5.7881,-5.7881,-5.7881,-5.7881,-5.7881,-5.7881,-5.7881,-5.7881,-5.7881,-5.7881,-5.7881,-5.7881,-5.7881,-5.7881,-5.7881,-5.7881,-5.7881,-5.7881,-5.7881,-5.7881,-5.7881,-5.7881,-5.7881,-5.7881,-5.7881,-5.7881,-5.7881,-5.7881,-5.7881,-5.7881,-5.7881,-5.7881,-5.7881,-5.7881,-5.7881,-5.7881,-5.7881,-5.7881,-5.7881,-5.7881,-5.7881,-5.7881,-5.7991,-5.8063,-5.8135,-5.8243,-5.8367,-5.8597,-5.8667,-5.8788,-5.8788,-5.8736,-5.865,-5.8545,-5.8456,-5.835,-5.8243,-5.8135,-5.8099,-5.8027,-5.8063,-5.8027,-5.8027,-5.7991,-5.7954,-5.7974,-5.808,-5.8747,-5.937,-5.9473,-5.9575,-5.9541,-5.9392,-5.9055,-5.8836,-5.877,-5.884,-5.9047,-6.2398,-6.2398,-6.2398,-6.2398,-6.2398,-6.2398,-6.2364,-6.2144,-6.14,-6.0706,-5.9827,-5.915,-5.8457,-5.8,-5.7881,-5.7881,-5.7881,-5.7881,-5.7881,-5.7881,-5.7881,-5.7881,-5.7881,-5.7881,-5.7881,-5.7881,-5.7881,-5.7881,-5.7881,-5.7881,-5.7881,-5.7881,-5.7881,-5.7881,-5.7881,-5.7881,-5.7881,-5.7881,-5.7881,-5.7881,-5.7881,-5.7881,-5.7881,-5.7881,-5.7881,-5.7881,-5.7881,-5.7881,-5.7881,-5.7881,-5.7881,-5.7881,-5.7881,-5.7881,-5.7881,-5.7881,-5.7881,-5.7881,-5.7881,-5.7881,-5.7881,-5.7881,-5.7881,-5.7881,-5.7881,-5.7881,-5.7881,-5.7881,-5.7881,-5.7881,-5.7881,-5.7881,-5.7881,-5.7881,-5.7881,-5.7881,-5.7881,-5.7881,-5.7881,-5.7918,-5.7991,-5.7954,-5.7991,-5.8135,-5.826,-5.8331,-5.8402,-5.8385,-5.8385,-5.835,-5.8261,-5.8207,-5.8171,-5.8063,-5.8027,-5.7918,-5.7918,-5.7881,-5.7881,-5.7881,-5.7881,-5.7881,-5.7881,-5.8124,-5.8719,-5.9129,-5.9251,-5.9386,-5.955,-5.9471,-5.9193,-5.877,-5.8345,-5.8436,-5.8597,-6.2398,-6.2398,-6.2398,-6.2398,-6.2398,-6.2398,-6.2398,-6.2245,-6.162,-6.0858,-6.0063,-5.9336,-5.8592,-5.8,-5.7881,-5.7881,-5.7881,-5.7881,-5.7881,-5.7881,-5.7881,-5.7881,-5.7881,-5.7881,-5.7881,-5.7881,-5.7881,-5.7881,-5.7881,-5.7881,-5.7881,-5.7881,-5.7881,-5.7881,-5.7881,-5.7881,-5.7881,-5.7881,-5.7881,-5.7881,-5.7881,-5.7881,-5.7881,-5.7881,-5.7881,-5.7881,-5.7881,-5.7881,-5.7881,-5.7881,-5.7881,-5.7881,-5.7881,-5.7881,-5.7881,-5.7881,-5.7881,-5.7881,-5.7881,-5.7881,-5.7881,-5.7881,-5.7881,-5.7881,-5.7881,-5.7881,-5.7881,-5.7881,-5.7881,-5.7881,-5.7881,-5.7881,-5.7881,-5.7881,-5.7881,-5.7881,-5.7881,-5.7881,-5.7881,-5.7881,-5.7881,-5.7881,-5.7881,-5.7991,-5.8063,-5.8099,-5.8135,-5.8135,-5.8099,-5.808,-5.8027,-5.7991,-5.7954,-5.7918,-5.7918,-5.7918,-5.7918,-5.7881,-5.7881,-5.7881,-5.7881,-5.7881,-5.7881,-5.7881,-5.8172,-5.8561,-5.893,-5.9404,-5.9797,-5.961,-5.9377,-5.8821,-5.8334,-5.8097,-5.8243,-6.2398,-6.2398,-6.2398,-6.2398,-6.2398,-6.2398,-6.2398,-6.233,-6.1839,-6.1146,-6.03,-5.9455,-5.8592,-5.8017,-5.7881,-5.7881,-5.7881,-5.7881,-5.7881,-5.7881,-5.7881,-5.7881,-5.7881,-5.7881,-5.7881,-5.7881,-5.7881,-5.7881,-5.7881,-5.7881,-5.7881,-5.7881,-5.7881,-5.7881,-5.7881,-5.7881,-5.7881,-5.7881,-5.7881,-5.7881,-5.7881,-5.7881,-5.7881,-5.7881,-5.7881,-5.7881,-5.7881,-5.7881,-5.7881,-5.7881,-5.7881,-5.7881,-5.7881,-5.7881,-5.7881,-5.7881,-5.7881,-5.7881,-5.7881,-5.7881,-5.7881,-5.7881,-5.7881,-5.7881,-5.7881,-5.7881,-5.7881,-5.7881,-5.7881,-5.7881,-5.7881,-5.7881,-5.7881,-5.7881,-5.7881,-5.7881,-5.7881,-5.7881,-5.7881,-5.7881,-5.7881,-5.7881,-5.7881,-5.7881,-5.7918,-5.7918,-5.7881,-5.7881,-5.7918,-5.7935,-5.7918,-5.7881,-5.7881,-5.7881,-5.7881,-5.7881,-5.7881,-5.7881,-5.7881,-5.7881,-5.7881,-5.7881,-5.7881,-5.7881,-5.7881,-5.8321,-5.8879,-5.9505,-6.0013,-5.9607,-5.9238,-5.8815,-5.8375,-5.8068,-5.7918,-6.2398,-6.2398,-6.2398,-6.2398,-6.2398,-6.2398,-6.2398,-6.2398,-6.2313,-6.1823,-6.096,-5.9708,-5.8609,-5.8068,-5.7915,-5.7881,-5.7881,-5.7881,-5.7881,-5.7881,-5.7881,-5.7881,-5.7881,-5.7881,-5.7881,-5.7881,-5.7881,-5.7881,-5.7881,-5.7881,-5.7881,-5.7881,-5.7881,-5.7881,-5.7881,-5.7881,-5.7881,-5.7881,-5.7881,-5.7881,-5.7881,-5.7881,-5.7881,-5.7881,-5.7881,-5.7881,-5.7881,-5.7881,-5.7881,-5.7881,-5.7881,-5.7881,-5.7881,-5.7881,-5.7881,-5.7881,-5.7881,-5.7881,-5.7881,-5.7881,-5.7881,-5.7881,-5.7881,-5.7881,-5.7881,-5.7881,-5.7881,-5.7881,-5.7881,-5.7881,-5.7881,-5.7881,-5.7881,-5.7881,-5.7881,-5.7881,-5.7881,-5.7881,-5.7881,-5.7881,-5.7881,-5.7881,-5.7881,-5.7881,-5.7881,-5.7881,-5.7881,-5.7881,-5.7881,-5.7918,-5.7918,-5.7881,-5.7881,-5.7881,-5.7881,-5.7881,-5.7881,-5.7881,-5.7881,-5.7881,-5.7881,-5.7881,-5.7881,-5.7881,-5.7915,-5.8372,-5.8795,-5.9302,-5.959,-5.9404,-5.9116,-5.8761,-5.8355,-5.7983,-5.7881,-6.2398,-6.2398,-6.2398,-6.2398,-6.2398,-6.2398,-6.2398,-6.2398,-6.2398,-6.1975,-6.1214,-5.9759,-5.8863,-5.8507,-5.8034,-5.7881,-5.7881,-5.7881,-5.7881,-5.7881,-5.7881,-5.7881,-5.7881,-5.7881,-5.7881,-5.7881,-5.7881,-5.7881,-5.7881,-5.7881,-5.7881,-5.7881,-5.7881,-5.7881,-5.7881,-5.7881,-5.7881,-5.7881,-5.7881,-5.7881,-5.7881,-5.7881,-5.7881,-5.7881,-5.7881,-5.7881,-5.7881,-5.7881,-5.7881,-5.7881,-5.7881,-5.7881,-5.7881,-5.7881,-5.7881,-5.7881,-5.7881,-5.7881,-5.7881,-5.7881,-5.7881,-5.7881,-5.7881,-5.7881,-5.7881,-5.7881,-5.7881,-5.7881,-5.7881,-5.7881,-5.7881,-5.7881,-5.7881,-5.7881,-5.7881,-5.7881,-5.7881,-5.7881,-5.7881,-5.7881,-5.7881,-5.7881,-5.7881,-5.7881,-5.7881,-5.7881,-5.7881,-5.7881,-5.7881,-5.7881,-5.7881,-5.7881,-5.7881,-5.7881,-5.7881,-5.7881,-5.7881,-5.7881,-5.7881,-5.7881,-5.7881,-5.7881,-5.7881,-5.7881,-5.7881,-5.8135,-5.8507,-5.9015,-5.9218,-5.9235,-5.9082,-5.8846,-5.8406,-5.7932,-5.7881,-6.2398,-6.2398,-6.2398,-6.2398,-6.2398,-6.2398,-6.2398,-6.2398,-6.2398,-6.1975,-6.1214,-5.9928,-5.9184,-5.8879,-5.8237,-5.7881,-5.7881,-5.7881,-5.7881,-5.7881,-5.7881,-5.7881,-5.7881,-5.7881,-5.7881,-5.7881,-5.7881,-5.7881,-5.7881,-5.7881,-5.7881,-5.7881,-5.7881,-5.7881,-5.7881,-5.7881,-5.7881,-5.7881,-5.7881,-5.7881,-5.7881,-5.7881,-5.7881,-5.7881,-5.7881,-5.7881,-5.7881,-5.7881,-5.7881,-5.7881,-5.7881,-5.7881,-5.7881,-5.7881,-5.7881,-5.7881,-5.7881,-5.7881,-5.7881,-5.7881,-5.7881,-5.7881,-5.7881,-5.7881,-5.7881,-5.7881,-5.7881,-5.7881,-5.7881,-5.7881,-5.7881,-5.7881,-5.7881,-5.7881,-5.7881,-5.7881,-5.7881,-5.7881,-5.7881,-5.7881,-5.7881,-5.7881,-5.7881,-5.7881,-5.7881,-5.7881,-5.7881,-5.7881,-5.7881,-5.7881,-5.7881,-5.7881,-5.7881,-5.7881,-5.7881,-5.7881,-5.7881,-5.7881,-5.7881,-5.7881,-5.7881,-5.7881,-5.7881,-5.7881,-5.7881,-5.7881,-5.8118,-5.8507,-5.8863,-5.9184,-5.8913,-5.8575,-5.8304,-5.7881,-5.7881,-6.2398,-6.2398,-6.2398,-6.2398,-6.2398,-6.2398,-6.2398,-6.2398,-6.2381,-6.2026,-6.1366,-6.0436,-5.9691,-5.9082,-5.8406,-5.8034,-5.7881,-5.7881,-5.7881,-5.7881,-5.7881,-5.7881,-5.7881,-5.7881,-5.7881,-5.7881,-5.7881,-5.7881,-5.7881,-5.7881,-5.7881,-5.7881,-5.7881,-5.7881,-5.7881,-5.7881,-5.7881,-5.7881,-5.7881,-5.7881,-5.7881,-5.7881,-5.7881,-5.7881,-5.7881,-5.7881,-5.7881,-5.7881,-5.7881,-5.7881,-5.7881,-5.7881,-5.7881,-5.7881,-5.7881,-5.7881,-5.7881,-5.7881,-5.7881,-5.7881,-5.7881,-5.7881,-5.7881,-5.7881,-5.7881,-5.7881,-5.7881,-5.7881,-5.7881,-5.7881,-5.7881,-5.7881,-5.7881,-5.7881,-5.7881,-5.7881,-5.7881,-5.7881,-5.7881,-5.7881,-5.7881,-5.7881,-5.7881,-5.7881,-5.7881,-5.7881,-5.7881,-5.7881,-5.7881,-5.7881,-5.7881,-5.7881,-5.7881,-5.7881,-5.7881,-5.7881,-5.7881,-5.7881,-5.7881,-5.7881,-5.7881,-5.7881,-5.7881,-5.7881,-5.7881,-5.7881,-5.7881,-5.7949,-5.8304,-5.8609,-5.8473,-5.8203,-5.7983,-5.7881,-5.7881,-6.2398,-6.2398,-6.2398,-6.2398,-6.2398,-6.2398,-6.2398,-6.2398,-6.2381,-6.2245,-6.1907,-6.1231,-6.0469,-5.9708,-5.8947,-5.8355,-5.7949,-5.7881,-5.7881,-5.7881,-5.7881,-5.7881,-5.7881,-5.7881,-5.7881,-5.7881,-5.7881,-5.7881,-5.7881,-5.7881,-5.7881,-5.7881,-5.7881,-5.7881,-5.7881,-5.7881,-5.7881,-5.7881,-5.7881,-5.7881,-5.7881,-5.7881,-5.7881,-5.7881,-5.7881,-5.7881,-5.7881,-5.7881,-5.7881,-5.7881,-5.7881,-5.7881,-5.7881,-5.7881,-5.7881,-5.7881,-5.7881,-5.7881,-5.7881,-5.7881,-5.7881,-5.7881,-5.7881,-5.7881,-5.7881,-5.7881,-5.7881,-5.7881,-5.7881,-5.7881,-5.7881,-5.7881,-5.7881,-5.7881,-5.7881,-5.7881,-5.7881,-5.7881,-5.7881,-5.7881,-5.7881,-5.7881,-5.7881,-5.7881,-5.7881,-5.7881,-5.7881,-5.7881,-5.7881,-5.7881,-5.7881,-5.7881,-5.7881,-5.7881,-5.7881,-5.7881,-5.7881,-5.7881,-5.7881,-5.7881,-5.7881,-5.7881,-5.7881,-5.7881,-5.7881,-5.7881,-5.7881,-5.7881,-5.7881,-5.7966,-5.8068,-5.8084,-5.7932,-5.7881,-5.7881,-6.2398,-6.2398,-6.2398,-6.2398,-6.2398,-6.2398,-6.2398,-6.2398,-6.2398,-6.2398,-6.2229,-6.1603,-6.1028,-6.0334,-5.9471,-5.8863,-5.8254,-5.7966,-5.7881,-5.7881,-5.7881,-5.7881,-5.7881,-5.7881,-5.7881,-5.7881,-5.7881,-5.7881,-5.7881,-5.7881,-5.7881,-5.7881,-5.7881,-5.7881,-5.7881,-5.7881,-5.7881,-5.7881,-5.7881,-5.7881,-5.7881,-5.7881,-5.7881,-5.7881,-5.7881,-5.7881,-5.7881,-5.7881,-5.7881,-5.7881,-5.7881,-5.7881,-5.7881,-5.7881,-5.7881,-5.7881,-5.7881,-5.7881,-5.7881,-5.7881,-5.7881,-5.7881,-5.7881,-5.7881,-5.7881,-5.7881,-5.7881,-5.7881,-5.7881,-5.7881,-5.7881,-5.7881,-5.7881,-5.7881,-5.7881,-5.7881,-5.7881,-5.7881,-5.7881,-5.7881,-5.7881,-5.7881,-5.7881,-5.7881,-5.7881,-5.7881,-5.7881,-5.7881,-5.7881,-5.7881,-5.7881,-5.7881,-5.7881,-5.7881,-5.7881,-5.7881,-5.7881,-5.7881,-5.7881,-5.7881,-5.7881,-5.7881,-5.7881,-5.7881,-5.7881,-5.7881,-5.7881,-5.7881,-5.7881,-5.7966,-5.8118,-5.8051,-5.7915,-5.7881,-5.7881,-6.2398,-6.2398,-6.2398,-6.2398,-6.2398,-6.2398,-6.2398,-6.2398,-6.2398,-6.2398,-6.2347,-6.167,-6.1298,-6.0977,-5.9742,-5.9049,-5.8761,-5.8186,-5.7949,-5.7881,-5.7881,-5.7881,-5.7881,-5.7881,-5.7881,-5.7881,-5.7881,-5.7881,-5.7881,-5.7881,-5.7881,-5.7881,-5.7881,-5.7881,-5.7881,-5.7881,-5.7881,-5.7881,-5.7881,-5.7881,-5.7881,-5.7881,-5.7881,-5.7881,-5.7881,-5.7881,-5.7881,-5.7881,-5.7881,-5.7881,-5.7881,-5.7881,-5.7881,-5.7881,-5.7881,-5.7881,-5.7881,-5.7881,-5.7881,-5.7881,-5.7881,-5.7881,-5.7881,-5.7881,-5.7881,-5.7881,-5.7881,-5.7881,-5.7881,-5.7881,-5.7881,-5.7881,-5.7881,-5.7881,-5.7881,-5.7881,-5.7881,-5.7881,-5.7881,-5.7881,-5.7881,-5.7881,-5.7881,-5.7881,-5.7949,-5.7881,-5.7881,-5.7881,-5.7881,-5.7881,-5.7881,-5.7881,-5.7881,-5.7881,-5.7881,-5.7881,-5.7881,-5.7881,-5.7881,-5.7881,-5.7881,-5.7881,-5.7881,-5.7881,-5.7881,-5.7881,-5.7881,-5.7881,-5.7881,-5.7983,-5.8068,-5.8034,-5.7881,-5.7881,-5.7881,-6.2398,-6.2398,-6.2398,-6.2398,-6.2398,-6.2398,-6.2398,-6.2398,-6.2398,-6.2398,-6.2364,-6.2178,-6.1772,-6.1231,-6.025,-5.9573,-5.8913,-5.8338,-5.7983,-5.7881,-5.7881,-5.7881,-5.7881,-5.7881,-5.7881,-5.7881,-5.7881,-5.7881,-5.7881,-5.7881,-5.7881,-5.7881,-5.7881,-5.7881,-5.7881,-5.7881,-5.7881,-5.7881,-5.7881,-5.7881,-5.7881,-5.7881,-5.7881,-5.7881,-5.7881,-5.7881,-5.7881,-5.7881,-5.7881,-5.7881,-5.7881,-5.7881,-5.7881,-5.7881,-5.7881,-5.7881,-5.7881,-5.7881,-5.7881,-5.7881,-5.7881,-5.7881,-5.7881,-5.7881,-5.7881,-5.7881,-5.7881,-5.7881,-5.7881,-5.7881,-5.7881,-5.7881,-5.7881,-5.7881,-5.7881,-5.7881,-5.7881,-5.7881,-5.7881,-5.7881,-5.7881,-5.7881,-5.7881,-5.8034,-5.8084,-5.7949,-5.7949,-5.8051,-5.7949,-5.7983,-5.7881,-5.7881,-5.7881,-5.7881,-5.7881,-5.7881,-5.7881,-5.7881,-5.7881,-5.7881,-5.7881,-5.7881,-5.7881,-5.7881,-5.7881,-5.7881,-5.7881,-5.7881,-5.7881,-5.7881,-5.7949,-5.7915,-5.7881,-5.7881,-5.7881,-6.2398,-6.2398,-6.2398,-6.2398,-6.2398,-6.2398,-6.2398,-6.2398,-6.2398,-6.2398,-6.2398,-6.2381,-6.2144,-6.1704,-6.0943,-6.0199,-5.9438,-5.8761,-5.8254,-5.7881,-5.7881,-5.7881,-5.7881,-5.7881,-5.7881,-5.7881,-5.7881,-5.7881,-5.7881,-5.7881,-5.7881,-5.7881,-5.7881,-5.7881,-5.7881,-5.7881,-5.7881,-5.7881,-5.7881,-5.7881,-5.7881,-5.7881,-5.7881,-5.7881,-5.7881,-5.7881,-5.7881,-5.7881,-5.7881,-5.7881,-5.7881,-5.7881,-5.7881,-5.7881,-5.7881,-5.7881,-5.7881,-5.7881,-5.7881,-5.7881,-5.7881,-5.7881,-5.7881,-5.7881,-5.7881,-5.7881,-5.7881,-5.7881,-5.7881,-5.7881,-5.7881,-5.7881,-5.7881,-5.7881,-5.7881,-5.7881,-5.7881,-5.7881,-5.7881,-5.7881,-5.7881,-5.7881,-5.7966,-5.8169,-5.8389,-5.8524,-5.8778,-5.9049,-5.8693,-5.8254,-5.8051,-5.7881,-5.7881,-5.7881,-5.7881,-5.7881,-5.7881,-5.7881,-5.7881,-5.7881,-5.7881,-5.7881,-5.7881,-5.7881,-5.7881,-5.7881,-5.7881,-5.7881,-5.7881,-5.7881,-5.7881,-5.7881,-5.7881,-5.7881,-5.7881,-6.2398,-6.2398,-6.2398,-6.2398,-6.2398,-6.2398,-6.2398,-6.2398,-6.2398,-6.2398,-6.2398,-6.2398,-6.2364,-6.2076,-6.145,-6.0842,-6.0063,-5.9302,-5.8558,-5.7949,-5.7898,-5.7898,-5.7881,-5.7881,-5.7881,-5.7881,-5.7881,-5.7881,-5.7881,-5.7881,-5.7881,-5.7881,-5.7881,-5.7881,-5.7881,-5.7881,-5.7881,-5.7881,-5.7881,-5.7881,-5.7881,-5.7881,-5.7881,-5.7881,-5.7881,-5.7881,-5.7881,-5.7881,-5.7881,-5.7881,-5.7881,-5.7881,-5.7881,-5.7881,-5.7881,-5.7881,-5.7881,-5.7881,-5.7881,-5.7881,-5.7881,-5.7881,-5.7881,-5.7881,-5.7881,-5.7881,-5.7881,-5.7881,-5.7881,-5.7881,-5.7881,-5.7881,-5.7881,-5.7881,-5.7881,-5.7881,-5.7881,-5.8017,-5.8271,-5.8338,-5.8558,-5.8558,-5.8676,-5.893,-5.9082,-5.9235,-5.9387,-5.9742,-5.9573,-5.8879,-5.8524,-5.8186,-5.7932,-5.7932,-5.7881,-5.7881,-5.7881,-5.7881,-5.7949,-5.7881,-5.7881,-5.7881,-5.7881,-5.7881,-5.7881,-5.7881,-5.7881,-5.7881,-5.7881,-5.7881,-5.7881,-5.7881,-5.7881,-5.7881,-5.7881,-6.2398,-6.2398,-6.2398,-6.2398,-6.2398,-6.2398,-6.2398,-6.2398,-6.2398,-6.2398,-6.2398,-6.2398,-6.2398,-6.2279,-6.1704,-6.118,-6.0774,-5.9725,-5.9032,-5.849,-5.8186,-5.7898,-5.7881,-5.7881,-5.7881,-5.7881,-5.7881,-5.7881,-5.7881,-5.7881,-5.7881,-5.7881,-5.7881,-5.7881,-5.7881,-5.7881,-5.7881,-5.7881,-5.7881,-5.7881,-5.7881,-5.7881,-5.7881,-5.7881,-5.7881,-5.7881,-5.7881,-5.7881,-5.7881,-5.7881,-5.7881,-5.7881,-5.7881,-5.7881,-5.7881,-5.7881,-5.7881,-5.7881,-5.7881,-5.7881,-5.7881,-5.7881,-5.7881,-5.7881,-5.7881,-5.7881,-5.7881,-5.7881,-5.7881,-5.7881,-5.7881,-5.7881,-5.7881,-5.7881,-5.7949,-5.7949,-5.7966,-5.8338,-5.871,-5.8964,-5.9235,-5.937,-5.9455,-5.9641,-5.9776,-5.986,-5.9894,-6.0047,-6.0148,-5.9759,-5.9438,-5.9015,-5.8186,-5.8034,-5.8051,-5.8203,-5.8372,-5.8254,-5.8271,-5.8118,-5.7966,-5.7881,-5.7881,-5.7881,-5.7881,-5.7881,-5.7881,-5.7881,-5.7881,-5.7881,-5.7881,-5.7881,-5.7881,-5.7881,-5.7881,-6.2398,-6.2398,-6.2398,-6.2398,-6.2398,-6.2398,-6.2398,-6.2398,-6.2398,-6.2398,-6.2398,-6.2398,-6.2398,-6.2398,-6.1941,-6.1518,-6.118,-6.008,-5.937,-5.8879,-5.8389,-5.7983,-5.7881,-5.7881,-5.7881,-5.7881,-5.7881,-5.7881,-5.7881,-5.7881,-5.7881,-5.7881,-5.7881,-5.7881,-5.7881,-5.7881,-5.7881,-5.7881,-5.7881,-5.7881,-5.7881,-5.7881,-5.7881,-5.7881,-5.7881,-5.7881,-5.7881,-5.7881,-5.7881,-5.7881,-5.7881,-5.7881,-5.7881,-5.7881,-5.7881,-5.7881,-5.7881,-5.7881,-5.7881,-5.7881,-5.7881,-5.7881,-5.7881,-5.7881,-5.7881,-5.7881,-5.7881,-5.7881,-5.7881,-5.7881,-5.7881,-5.7881,-5.7881,-5.7881,-5.8338,-5.8643,-5.8913,-5.9302,-5.9471,-5.9556,-5.9742,-5.9776,-5.9979,-6.0402,-6.0571,-6.0774,-6.0757,-6.1011,-6.0977,-6.0689,-6.0351,-5.9996,-5.9285,-5.893,-5.9116,-5.915,-5.915,-5.8964,-5.871,-5.8693,-5.8643,-5.8135,-5.7881,-5.7949,-5.7966,-5.7881,-5.7881,-5.7881,-5.7881,-5.7881,-5.7881,-5.7881,-5.7881,-5.7881,-5.7881,-6.2398,-6.2398,-6.2398,-6.2398,-6.2398,-6.2398,-6.2398,-6.2398,-6.2398,-6.2398,-6.2398,-6.2398,-6.2398,-6.2398,-6.2381,-6.1941,-6.1383,-6.0672,-5.9945,-5.9184,-5.8473,-5.8118,-5.7932,-5.7881,-5.7881,-5.7881,-5.7881,-5.7881,-5.7881,-5.7881,-5.7881,-5.7881,-5.7881,-5.7881,-5.7881,-5.7881,-5.7881,-5.7881,-5.7881,-5.7881,-5.7881,-5.7881,-5.7881,-5.7881,-5.7881,-5.7881,-5.7881,-5.7881,-5.7881,-5.7881,-5.7881,-5.7881,-5.7881,-5.7881,-5.7881,-5.7881,-5.7881,-5.7881,-5.7881,-5.7881,-5.7881,-5.7881,-5.7881,-5.7881,-5.7881,-5.7881,-5.7881,-5.7881,-5.7881,-5.7915,-5.7915,-5.7915,-5.7915,-5.822,-5.8812,-5.9319,-5.9725,-6.0165,-6.0233,-6.0266,-6.0368,-6.0402,-6.0706,-6.1146,-6.1332,-6.1552,-6.1789,-6.2144,-6.2212,-6.1704,-6.1281,-6.1095,-6.0723,-6.0486,-6.0131,-5.9945,-5.9793,-5.9658,-5.9438,-5.9438,-5.9285,-5.8744,-5.8321,-5.8135,-5.8118,-5.7966,-5.7881,-5.7881,-5.7881,-5.7881,-5.7881,-5.7881,-5.7881,-5.7881,-5.7881,-6.2398,-6.2398,-6.2398,-6.2398,-6.2398,-6.2398,-6.2398,-6.2398,-6.2398,-6.2398,-6.2398,-6.2398,-6.2398,-6.2398,-6.2398,-6.2195,-6.1958,-6.1264,-6.0605,-5.9877,-5.8998,-5.8423,-5.8034,-5.7881,-5.7881,-5.7881,-5.7881,-5.7881,-5.7881,-5.7881,-5.7881,-5.7881,-5.7881,-5.7881,-5.7881,-5.7881,-5.7881,-5.7881,-5.7881,-5.7881,-5.7881,-5.7881,-5.7881,-5.7881,-5.7881,-5.7881,-5.7881,-5.7881,-5.7881,-5.7881,-5.7881,-5.7881,-5.7881,-5.7881,-5.7881,-5.7881,-5.7881,-5.7881,-5.7881,-5.7881,-5.7881,-5.7881,-5.7881,-5.7881,-5.7881,-5.7881,-5.7881,-5.7898,-5.7932,-5.8017,-5.8034,-5.8034,-5.8101,-5.8879,-5.9556,-5.9894,-6.0266,-6.074,-6.1061,-6.1247,-6.1467,-6.1569,-6.1738,-6.1975,-6.1975,-6.211,-6.211,-6.2398,-6.2398,-6.2245,-6.2093,-6.1958,-6.1789,-6.1112,-6.0385,-6.0402,-6.0317,-6.0216,-6.0148,-6.0097,-5.9844,-5.9285,-5.8913,-5.8592,-5.8237,-5.8,-5.7949,-5.7881,-5.7881,-5.7881,-5.7881,-5.7881,-5.7881,-5.7881,-5.7881]},{"header":{"parameterUnit":"m.s-1","parameterCategory":1,"la1":31.0,"la2":29.5877,"lo1":-88.7671,"lo2":-86.6584,"dy":0.0162,"dx":0.0185,"nx":115,"ny":88,"refTime":"2024-04-03T12:00:00:Z","depth":0,"parameterNumber":3,"parameterNumberName":"V-component_of_WINDS"},"data":[0.0,0.0,0.0,0.0,0.0,0.0,0.0,0.0,0.0,0.0,0.0,0.0,0.0,0.0,0.0,0.0,0.0,0.0,0.0,0.0,0.0,0.0,0.0,0.0,0.0,0.0,0.0,0.0,0.0,0.0,0.0,0.0,0.0,0.0,0.0,0.0,0.0,0.0,0.0,0.0,0.0,0.0,0.0,0.0,0.0,0.0,0.0,0.0,0.0,0.0,0.0,0.0,0.0,0.0,0.0,0.0,0.0,0.0,0.0,0.0,0.0,0.0,0.0,0.0,0.0,0.0,0.0,0.0,0.0,0.0,0.0,0.0,0.0,0.0,0.0,0.0,0.0,0.0,0.0,0.0,0.0,0.0,0.0,0.0,0.0,0.0,0.0,0.0,0.0,0.0,0.0,0.0,0.0,0.0,0.0,0.0,0.0,0.0,0.0,0.0,0.0,0.0,0.0,0.0,0.0,0.0,0.0,0.0,0.0,0.0,0.0,0.0,0.0,0.0,0.0,0.0,0.0,0.0,0.0,0.0,0.0,0.0,0.0,0.0,0.0,0.0,0.0,0.0,0.0,0.0,0.0,0.0,0.0,0.0,0.0,0.0,0.0,0.0,0.0,0.0,0.0,0.0,0.0,0.0,0.0,0.0,0.0,0.0,0.0,0.0,0.0,0.0,0.0,0.0,0.0,0.0,0.0,0.0,0.0,0.0,0.0,0.0,0.0,0.0,0.0,0.0,0.0,0.0,0.0,0.0,0.0,0.0,0.0,0.0,0.0,0.0,0.0,0.0,0.0,0.0,0.0,0.0,0.0,0.0,0.0,0.0,0.0,0.0,0.0,0.0,0.0,0.0,0.0,0.0,0.0,0.0,0.0,0.0,0.0,0.0,0.0,0.0,0.0,0.0,0.0,0.0,0.0,0.0,0.0,0.0,0.0,0.0,0.0,0.0,0.0,0.0,0.0,0.0,0.0,0.0,0.0,0.0,0.0,0.0,0.0,0.0,0.0,0.0,0.0,0.0,0.0,0.0,0.0,0.0,0.0,0.0,0.0,0.0,0.0,0.0,0.0,0.0,0.0,0.0,0.0,0.0,0.0,0.0,0.0,0.0,0.0,0.0,0.0,0.0,0.0,0.0,0.0,0.0,0.0,0.0,0.0,0.0,0.0,0.0,0.0,0.0,0.0,0.0,0.0,0.0,0.0,0.0,0.0,0.0,0.0,0.0,0.0,0.0,0.0,0.0,0.0,0.0,0.0,0.0,0.0,0.0,0.0,0.0,0.0,0.0,0.0,0.0,0.0,0.0,0.0,0.0,0.0,0.0,0.0,0.0,0.0,0.0,0.0,0.0,0.0,0.0,0.0,0.0,0.0,0.0,0.0,0.0,0.0,0.0,0.0,0.0,0.0,0.0,0.0,0.0,0.0,0.0,0.0,0.0,0.0,0.0,0.0,0.0,0.0,0.0,0.0,0.0,0.0,0.0,0.0,0.0,0.0,0.0,0.0,0.0,0.0,0.0,0.0,0.0,0.0,0.0,0.0,0.0,0.0,0.0,0.0,0.0,0.0,0.0,0.0,0.0,0.0,0.0,0.0,0.0,0.0,0.0,0.0,0.0,0.0,0.0,0.0,0.0,0.0,0.0,0.0,0.0,0.0,0.0,0.0,0.0,0.0,0.0,0.0,0.0,0.0,0.0,0.0,0.0,0.0,0.0,0.0,0.0,0.0,0.0,0.0,0.0,0.0,0.0,0.0,0.0,0.0,0.0,0.0,0.0,0.0,0.0,0.0,0.0,0.0,0.0,0.0,0.0,0.0,0.0,0.0,0.0,0.0,0.0,0.0,0.0,0.0,0.0,0.0,0.0,0.0,0.0,0.0,0.0,0.0,0.0,0.0,0.0,0.0,0.0,0.0,0.0,0.0,0.0,0.0,0.0,0.0,0.0,0.0,0.0,0.0,0.0,0.0,0.0,0.0,0.0,0.0,0.0,0.0,0.0,0.0,0.0,0.0,0.0,0.0,0.0,0.0,0.0,0.0,0.0,0.0,0.0,0.0,0.0,0.0,0.0,0.0,0.0,0.0,0.0,0.0,0.0,0.0,0.0,0.0,0.0,0.0,0.0,0.0,0.0,0.0,0.0,0.0,0.0,0.0,0.0,0.0,0.0,0.0,0.0,0.0,0.0,0.0,0.0,0.0,0.0,0.0,0.0,0.0,0.0,0.0,0.0,0.0,0.0,0.0,0.0,0.0,0.0,0.0,0.0,0.0,0.0,0.0,0.0,0.0,0.0,0.0,0.0,0.0,0.0,0.0,0.0,0.0,0.0,0.0,0.0,0.0,0.0,0.0,0.0,0.0,0.0,0.0,0.0,0.0,0.0,0.0,0.0,0.0,0.0,0.0,0.0,0.0,0.0,0.0,0.0,0.0,0.0,0.0,0.0,0.0,0.0,0.0,0.0,0.0,0.0,0.0,0.0,0.0,0.0,0.0,0.0,0.0,0.0,0.0,0.0,0.0,0.0,0.0,0.0,0.0,0.0,0.0,0.0,0.0,0.0,0.0,0.0,0.0,0.0,0.0,0.0,0.0,0.0,0.0,0.0,0.0,0.0,0.0,0.0,0.0,0.0,0.0,0.0,0.0,0.0,0.0,0.0,0.0,0.0,0.0,0.0,0.0,0.0,0.0,0.0,0.0,0.0,0.0,0.0,0.0,0.0,0.0,0.0,0.0,0.0,0.0,0.0,0.0,0.0,0.0,0.0,0.0,0.0,0.0,0.0,0.0,0.0,0.0,0.0,0.0,0.0,0.0,0.0,0.0,0.0,0.0,0.0,0.0,0.0,0.0,0.0,0.0,0.0,0.0,0.0,0.0,0.0,0.0,0.0,0.0,0.0,0.0,0.0,0.0,0.0,0.0,0.0,0.0,0.0,0.0,0.0,0.0,0.0,0.0,0.0,0.0,0.0,0.0,0.0,0.0,0.0,0.0,0.0,0.0,0.0,0.0,0.0,0.0,0.0,0.0,0.0,0.0,0.0,0.0,0.0,0.0,0.0,0.0,0.0,0.0,0.0,0.0,0.0,0.0,0.0,0.0,0.0,0.0,0.0,0.0,0.0,0.0,0.0,0.0,0.0,0.0,0.0,0.0,0.0,0.0,0.0,0.0,0.0,0.0,0.0,0.0,0.0,0.0,0.0,0.0,0.0,0.0,0.0,0.0,0.0,0.0,0.0,0.0,0.0,0.0,0.0,0.0,0.0,0.0,0.0,0.0,0.0,0.0,0.0,0.0,0.0,0.0,0.0,0.0,0.0,0.0,0.0,0.0,0.0,0.0,0.0,0.0,0.0,0.0,0.0,0.0,0.0,0.0,0.0,0.0,0.0,0.0,0.0,0.0,0.0,0.0,0.0,0.0,0.0,0.0,0.0,0.0,0.0,0.0,0.0,0.0,0.0,0.0,0.0,0.0,0.0,0.0,0.0,0.0,0.0,0.0,0.0,0.0,0.0,0.0,0.0,0.0,0.0,0.0,0.0,0.0,0.0,0.0,0.0,0.0,0.0,0.0,0.0,0.0,0.0,0.0,0.0,0.0,0.0,0.0,0.0,0.0,0.0,0.0,0.0,0.0,0.0,0.0,0.0,0.0,0.0,0.0,0.0,0.0,0.0,0.0,0.0,0.0,0.0,0.0,0.0,0.0,0.0,0.0,0.0,0.0,0.0,0.0,0.0,0.0,0.0,0.0,0.0,0.0,0.0,0.0,0.0,0.0,0.0,0.0,0.0,0.0,0.0,0.0,0.0,0.0,0.0,0.0,0.0,0.0,0.0,0.0,0.0,0.0,0.0,0.0,0.0,0.0,0.0,0.0,0.0,0.0,0.0,0.0,0.0,0.0,0.0,0.0,0.0,0.0,0.0,0.0,0.0,0.0,0.0,0.0,0.0,0.0,0.0,0.0,0.0,0.0,0.0,0.0,0.0,0.0,0.0,0.0,0.0,0.0,0.0,0.0,0.0,0.0,0.0,0.0,0.0,0.0,0.0,0.0,0.0,0.0,0.0,0.0,0.0,0.0,0.0,0.0,0.0,0.0,0.0,0.0,0.0,0.0,0.0,0.0,0.0,0.0,0.0,0.0,0.0,0.0,0.0,0.0,0.0,0.0,0.0,0.0,0.0,0.0,0.0,0.0,0.0,0.0,0.0,0.0,0.0,0.0,0.0,0.0,0.0,0.0,0.0,0.0,0.0,0.0,0.0,0.0,0.0,0.0,0.0,0.0,0.0,0.0,0.0,1.2705,0.0,0.0,0.0,0.0,0.0,0.0,0.0,0.0,0.0,0.0,0.0,0.0,0.0,0.0,0.0,0.0,0.0,0.0,0.0,0.0,0.0,0.0,0.0,0.0,0.0,0.0,0.0,0.0,0.0,0.0,0.0,0.0,0.0,0.0,0.0,0.0,0.0,0.0,0.0,0.0,0.0,0.0,0.0,0.0,0.0,0.0,0.0,0.0,0.0,0.0,0.0,0.0,0.0,0.0,0.0,0.0,0.0,0.0,0.0,0.0,0.0,0.0,0.0,0.0,0.0,0.0,0.0,0.0,0.0,0.0,0.0,0.0,0.0,0.0,0.0,0.0,0.0,0.0,0.0,0.0,0.0,0.0,0.0,0.0,0.0,0.0,0.0,0.0,0.0,0.0,0.0,0.0,0.0,0.0,0.0,0.0,0.0,0.0,0.0,0.0,0.0,0.0,0.0,0.0,0.0,0.0,0.0,0.0,0.0,0.0,1.2705,1.2705,1.2833,1.2924,1.2918,0.0,0.0,0.0,0.0,0.0,0.0,0.0,0.0,0.0,0.0,0.0,0.0,0.0,0.0,0.0,0.0,0.0,0.0,0.0,0.0,0.0,0.0,0.0,0.0,0.0,0.0,0.0,0.0,0.0,0.0,0.0,0.0,0.0,0.0,0.0,0.0,0.0,0.0,0.0,0.0,0.0,0.0,0.0,0.0,0.0,0.0,0.0,0.0,0.0,0.0,0.0,0.0,0.0,0.0,0.0,0.0,0.0,0.0,0.0,0.0,0.0,0.0,0.0,0.0,0.0,0.0,0.0,0.0,0.0,0.0,0.0,0.0,0.0,0.0,0.0,0.0,0.0,0.0,0.0,0.0,0.0,0.0,0.0,0.0,0.0,0.0,0.0,0.0,0.0,0.0,0.0,0.0,0.0,0.0,0.0,0.0,0.0,0.0,0.0,0.0,0.0,0.0,0.0,0.0,0.0,0.0,0.0,0.0,0.0,0.0,0.0,0.0,1.2966,1.3143,1.3179,0.0,0.0,0.0,0.0,0.0,0.0,0.0,0.0,0.0,0.0,0.0,0.0,0.0,0.0,0.0,0.0,0.0,0.0,0.0,0.0,0.0,0.0,0.0,0.0,0.0,0.0,0.0,0.0,0.0,0.0,0.0,0.0,0.0,0.0,0.0,0.0,0.0,0.0,0.0,0.0,0.0,0.0,0.0,0.0,0.0,0.0,0.0,0.0,0.0,0.0,0.0,0.0,0.0,0.0,0.0,0.0,0.0,0.0,0.0,0.0,0.0,0.0,0.0,0.0,0.0,0.0,0.0,0.0,0.0,0.0,0.0,0.0,0.0,0.0,0.0,0.0,0.0,0.0,0.0,0.0,0.0,0.0,0.0,0.0,0.0,0.0,0.0,0.0,0.0,0.0,0.0,0.0,0.0,0.0,0.0,0.0,0.0,0.0,0.0,0.0,0.0,0.0,0.0,0.0,0.0,0.0,0.0,0.0,0.0,0.0,1.2705,1.2705,1.2966,0.0,1.3355,0.0,0.0,0.0,0.0,0.0,0.0,0.0,0.0,0.0,0.0,0.0,0.0,0.0,0.0,0.0,0.0,0.0,0.0,0.0,0.0,0.0,0.0,0.0,0.0,0.0,0.0,0.0,0.0,0.0,0.0,0.0,0.0,0.0,0.0,0.0,0.0,0.0,0.0,0.0,0.0,0.0,0.0,0.0,0.0,0.0,0.0,0.0,0.0,0.0,0.0,0.0,0.0,0.0,0.0,0.0,0.0,0.0,0.0,0.0,0.0,0.0,0.0,0.0,0.0,0.0,0.0,0.0,0.0,0.0,0.0,0.0,0.0,0.0,0.0,0.0,0.0,0.0,0.0,0.0,0.0,0.0,0.0,0.0,0.0,0.0,0.0,0.0,0.0,0.0,0.0,0.0,0.0,0.0,0.0,0.0,0.0,0.0,0.0,0.0,0.0,0.0,0.0,0.0,0.0,0.0,0.0,0.0,0.0,0.0,0.0,1.3276,1.3409,1.3648,1.3821,0.0,0.0,0.0,0.0,0.0,0.0,0.0,0.0,0.0,0.0,0.0,0.0,0.0,0.0,0.0,0.0,0.0,0.0,0.0,0.0,0.0,0.0,0.0,0.0,0.0,0.0,0.0,0.0,0.0,0.0,0.0,0.0,0.0,0.0,0.0,0.0,0.0,0.0,0.0,0.0,0.0,0.0,0.0,0.0,0.0,0.0,0.0,0.0,0.0,0.0,0.0,0.0,0.0,0.0,0.0,0.0,0.0,0.0,0.0,0.0,0.0,0.0,0.0,0.0,0.0,0.0,0.0,0.0,0.0,0.0,0.0,0.0,0.0,0.0,0.0,0.0,0.0,0.0,0.0,0.0,0.0,0.0,0.0,0.0,0.0,0.0,0.0,0.0,0.0,0.0,0.0,0.0,0.0,0.0,0.0,0.0,0.0,0.0,0.0,0.0,0.0,0.0,0.0,0.0,0.0,0.0,0.0,0.0,0.0,0.0,1.3468,1.3649,1.396,1.4269,1.4452,1.4542,0.0,0.0,0.0,0.0,0.0,0.0,0.0,0.0,0.0,0.0,0.0,0.0,0.0,0.0,0.0,0.0,0.0,0.0,0.0,0.0,0.0,0.0,0.0,0.0,0.0,0.0,0.0,0.0,0.0,0.0,0.0,0.0,0.0,0.0,0.0,0.0,0.0,0.0,0.0,0.0,0.0,0.0,0.0,0.0,0.0,0.0,0.0,0.0,0.0,0.0,0.0,0.0,0.0,0.0,0.0,0.0,0.0,0.0,0.0,0.0,0.0,0.0,0.0,0.0,0.0,0.0,0.0,0.0,0.0,0.0,0.0,0.0,0.0,0.0,0.0,0.0,0.0,0.0,0.0,0.0,0.0,0.0,0.0,0.0,0.0,0.0,0.0,0.0,0.0,0.0,0.0,0.0,0.0,0.0,0.0,0.0,0.0,0.0,0.0,0.0,0.0,0.0,0.0,0.0,0.0,0.0,0.0,0.0,1.3525,1.3525,1.3746,1.4186,1.4719,1.4943,0.0,0.0,0.0,0.0,0.0,0.0,0.0,0.0,0.0,0.0,0.0,0.0,0.0,0.0,0.0,0.0,0.0,0.0,0.0,0.0,0.0,0.0,0.0,0.0,0.0,0.0,0.0,0.0,0.0,0.0,0.0,0.0,0.0,0.0,0.0,0.0,0.0,0.0,0.0,0.0,0.0,0.0,0.0,0.0,0.0,0.0,0.0,0.0,0.0,0.0,0.0,0.0,0.0,0.0,0.0,0.0,0.0,0.0,0.0,0.0,0.0,0.0,0.0,0.0,0.0,0.0,0.0,0.0,0.0,0.0,0.0,0.0,0.0,0.0,0.0,0.0,0.0,0.0,0.0,0.0,0.0,0.0,0.0,0.0,0.0,0.0,0.0,0.0,0.0,0.0,0.0,0.0,0.0,0.0,0.0,0.0,0.0,0.0,0.0,0.0,0.0,0.0,0.0,0.0,0.0,0.0,0.0,0.0,0.0,1.4008,1.4349,1.4502,1.4465,1.5153,1.5472,0.0,0.0,0.0,0.0,0.0,0.0,0.0,0.0,0.0,0.0,0.0,0.0,0.0,0.0,0.0,0.0,0.0,0.0,0.0,0.0,0.0,0.0,0.0,0.0,0.0,0.0,0.0,0.0,0.0,0.0,0.0,0.0,0.0,0.0,0.0,0.0,0.0,0.0,0.0,0.0,0.0,0.0,0.0,0.0,0.0,0.0,0.0,0.0,0.0,0.0,0.0,0.0,0.0,0.0,0.0,0.0,0.0,0.0,0.0,0.0,0.0,0.0,0.0,0.0,0.0,0.0,0.0,0.0,0.0,0.0,0.0,0.0,0.0,0.0,0.0,0.0,0.0,0.0,0.0,0.0,0.0,0.0,0.0,0.0,0.0,0.0,0.0,0.0,0.0,0.0,0.0,0.0,0.0,0.0,0.0,0.0,0.0,0.0,0.0,0.0,0.0,0.0,0.0,0.0,0.0,0.0,0.0,0.0,0.0,1.4586,0.0,1.5123,1.4944,1.5638,1.6049,0.0,0.0,0.0,0.0,0.0,0.0,0.0,0.0,0.0,0.0,0.0,0.0,0.0,0.0,0.0,0.0,0.0,0.0,0.0,0.0,0.0,0.0,0.0,0.0,0.0,0.0,0.0,0.0,0.0,0.0,0.0,0.0,0.0,0.0,0.0,0.0,0.0,0.0,0.0,0.0,0.0,0.0,0.0,0.0,0.0,0.0,0.0,0.0,0.0,0.0,0.0,0.0,0.0,0.0,0.0,0.0,0.0,0.0,0.0,0.0,0.0,0.0,0.0,0.0,0.0,0.0,0.0,0.0,0.0,0.0,0.0,0.0,0.0,0.0,0.0,0.0,0.0,0.0,0.0,0.0,0.0,0.0,0.0,0.0,0.0,0.0,0.0,0.0,0.0,0.0,0.0,0.0,0.0,0.0,0.0,0.0,0.0,0.0,0.0,0.0,0.0,0.0,0.0,0.0,0.0,0.0,0.0,0.0,1.5137,1.5096,1.5376,1.5532,1.5499,1.6218,1.6596,0.0,0.0,0.0,0.0,0.0,0.0,0.0,0.0,0.0,0.0,0.0,0.0,0.0,0.0,0.0,0.0,0.0,0.0,0.0,0.0,0.0,0.0,0.0,0.0,0.0,0.0,0.0,0.0,0.0,0.0,0.0,0.0,0.0,0.0,0.0,0.0,0.0,0.0,0.0,0.0,0.0,0.0,0.0,0.0,0.0,0.0,0.0,0.0,0.0,0.0,0.0,0.0,0.0,0.0,0.0,0.0,0.0,0.0,0.0,0.0,0.0,0.0,0.0,0.0,0.0,0.0,0.0,0.0,0.0,0.0,0.0,0.0,0.0,0.0,0.0,0.0,0.0,0.0,0.0,0.0,0.0,0.0,0.0,0.0,0.0,0.0,0.0,0.0,0.0,0.0,0.0,0.0,0.0,0.0,0.0,0.0,0.0,0.0,0.0,0.0,0.0,0.0,0.0,0.0,0.0,0.0,0.0,0.0,0.0,1.5369,1.5806,1.6051,1.6045,1.6579,1.695,0.0,0.0,0.0,0.0,0.0,0.0,0.0,0.0,0.0,0.0,0.0,0.0,0.0,0.0,0.0,0.0,0.0,0.0,0.0,0.0,0.0,0.0,0.0,0.0,0.0,0.0,0.0,0.0,0.0,0.0,0.0,0.0,0.0,0.0,0.0,0.0,0.0,0.0,0.0,0.0,0.0,0.0,0.0,0.0,0.0,0.0,0.0,0.0,0.0,0.0,0.0,0.0,0.0,0.0,0.0,0.0,0.0,0.0,0.0,0.0,0.0,0.0,0.0,0.0,0.0,0.0,0.0,0.0,0.0,0.0,0.0,0.0,0.0,0.0,0.0,0.0,0.0,0.0,0.0,0.0,0.0,0.0,0.0,0.0,0.0,0.0,0.0,0.0,0.0,0.0,0.0,0.0,0.0,0.0,0.0,0.0,0.0,0.0,0.0,0.0,0.0,0.0,0.0,0.0,0.0,0.0,0.0,0.0,0.0,1.6151,1.6323,1.6513,1.6627,1.6971,1.7357,1.7679,0.0,0.0,0.0,0.0,0.0,0.0,0.0,0.0,0.0,0.0,0.0,0.0,0.0,0.0,0.0,0.0,0.0,0.0,0.0,0.0,0.0,0.0,0.0,0.0,0.0,0.0,0.0,0.0,0.0,0.0,0.0,0.0,0.0,0.0,0.0,0.0,0.0,0.0,0.0,0.0,0.0,0.0,0.0,0.0,0.0,0.0,0.0,0.0,0.0,0.0,0.0,0.0,0.0,0.0,0.0,0.0,0.0,0.0,0.0,0.0,0.0,0.0,0.0,0.0,0.0,0.0,0.0,0.0,0.0,0.0,0.0,0.0,0.0,0.0,0.0,0.0,0.0,0.0,0.0,0.0,0.0,0.0,0.0,0.0,0.0,0.0,0.0,0.0,0.0,0.0,0.0,0.0,0.0,0.0,0.0,0.0,0.0,0.0,0.0,0.0,0.0,0.0,0.0,0.0,0.0,0.0,0.0,0.0,1.7226,1.6901,1.6867,1.7132,1.7398,1.7739,0.0,0.0,0.0,0.0,0.0,0.0,0.0,0.0,0.0,0.0,0.0,0.0,0.0,0.0,0.0,0.0,0.0,0.0,0.0,0.0,0.0,0.0,0.0,0.0,0.0,0.0,0.0,0.0,0.0,0.0,0.0,0.0,0.0,0.0,0.0,0.0,0.0,0.0,0.0,0.0,0.0,0.0,0.0,0.0,0.0,0.0,0.0,0.0,0.0,0.0,0.0,0.0,0.0,0.0,0.0,0.0,0.0,0.0,0.0,0.0,0.0,0.0,0.0,0.0,0.0,0.0,0.0,0.0,0.0,0.0,0.0,0.0,0.0,0.0,0.0,0.0,0.0,0.0,0.0,0.0,0.0,0.0,0.0,0.0,0.0,0.0,0.0,0.0,0.0,0.0,0.0,0.0,0.0,0.0,0.0,0.0,0.0,0.0,0.0,0.0,0.0,0.0,0.0,0.0,0.0,0.0,0.0,0.0,0.0,1.7455,1.7447,1.7511,1.7777,1.7821,1.806,0.0,0.0,0.0,0.0,0.0,0.0,0.0,0.0,0.0,0.0,0.0,0.0,0.0,0.0,0.0,0.0,0.0,0.0,0.0,0.0,0.0,0.0,0.0,0.0,0.0,0.0,0.0,0.0,0.0,0.0,0.0,0.0,0.0,0.0,0.0,0.0,0.0,0.0,0.0,0.0,0.0,0.0,0.0,0.0,0.0,0.0,0.0,0.0,0.0,0.0,0.0,0.0,0.0,0.0,0.0,0.0,0.0,0.0,0.0,0.0,0.0,0.0,0.0,0.0,0.0,0.0,0.0,0.0,0.0,0.0,0.0,0.0,0.0,0.0,0.0,0.0,0.0,0.0,0.0,0.0,0.0,0.0,0.0,0.0,0.0,0.0,0.0,0.0,0.0,0.0,0.0,0.0,0.0,0.0,0.0,0.0,0.0,0.0,0.0,0.0,0.0,0.0,0.0,0.0,0.0,0.0,0.0,0.0,1.7467,1.7582,1.7589,1.7747,1.8016,1.8099,1.831,0.0,0.0,0.0,0.0,0.0,0.0,0.0,0.0,0.0,0.0,0.0,0.0,0.0,0.0,0.0,0.0,0.0,0.0,0.0,0.0,0.0,0.0,0.0,0.0,0.0,0.0,0.0,0.0,0.0,0.0,0.0,0.0,0.0,0.0,0.0,0.0,0.0,0.0,0.0,0.0,0.0,0.0,0.0,0.0,0.0,0.0,0.0,0.0,0.0,0.0,0.0,0.0,0.0,0.0,0.0,0.0,0.0,0.0,0.0,0.0,0.0,0.0,0.0,0.0,0.0,0.0,0.0,0.0,0.0,0.0,0.0,0.0,0.0,0.0,0.0,0.0,0.0,0.0,0.0,0.0,0.0,0.0,0.0,0.0,0.0,0.0,0.0,0.0,0.0,0.0,0.0,0.0,0.0,0.0,0.0,0.0,0.0,0.0,0.0,0.0,0.0,0.0,0.0,0.0,0.0,0.0,0.0,0.0,1.7589,1.7589,1.7589,1.7747,1.7964,1.8244,1.8467,0.0,0.0,0.0,0.0,0.0,0.0,0.0,0.0,0.0,0.0,0.0,0.0,0.0,0.0,0.0,0.0,0.0,0.0,0.0,0.0,0.0,0.0,0.0,0.0,0.0,0.0,0.0,0.0,0.0,0.0,0.0,0.0,0.0,0.0,0.0,0.0,0.0,0.0,0.0,0.0,0.0,0.0,0.0,0.0,0.0,0.0,0.0,0.0,0.0,0.0,0.0,0.0,0.0,0.0,0.0,0.0,0.0,0.0,0.0,0.0,0.0,0.0,0.0,0.0,0.0,0.0,0.0,0.0,0.0,0.0,0.0,0.0,0.0,0.0,0.0,0.0,0.0,0.0,0.0,0.0,0.0,0.0,0.0,0.0,0.0,0.0,0.0,0.0,0.0,0.0,0.0,0.0,0.0,0.0,0.0,0.0,0.0,0.0,0.0,0.0,0.0,0.0,0.0,0.0,0.0,0.0,0.0,0.0,1.7589,1.7589,1.7589,1.774,1.8016,1.8036,1.8144,0.0,0.0,0.0,0.0,0.0,0.0,0.0,0.0,0.0,0.0,0.0,0.0,0.0,0.0,0.0,0.0,0.0,0.0,0.0,0.0,0.0,0.0,0.0,0.0,0.0,0.0,0.0,0.0,0.0,0.0,0.0,0.0,0.0,0.0,0.0,0.0,0.0,0.0,0.0,0.0,0.0,0.0,0.0,0.0,0.0,0.0,0.0,0.0,1.4404,0.0,0.0,0.0,0.0,0.0,0.0,0.0,0.0,0.0,0.0,0.0,0.0,0.0,0.0,0.0,0.0,0.0,0.0,0.0,0.0,0.0,0.0,0.0,0.0,0.0,0.0,0.0,0.0,0.0,0.0,0.0,0.0,0.0,0.0,0.0,0.0,0.0,0.0,0.0,0.0,0.0,0.0,0.0,0.0,0.0,0.0,0.0,0.0,0.0,0.0,0.0,0.0,0.0,0.0,0.0,0.0,0.0,0.0,0.0,1.7589,1.7589,1.7589,1.7687,1.7786,1.7784,1.7881,0.0,0.0,0.0,0.0,0.0,0.0,0.0,0.0,0.0,0.0,0.0,0.0,0.0,0.0,0.0,0.0,0.0,0.0,0.0,0.0,0.0,0.0,0.0,0.0,0.0,0.0,0.0,0.0,0.0,0.0,0.0,0.0,0.0,0.0,0.0,0.0,0.0,0.0,0.0,0.0,0.0,0.0,0.0,0.0,0.0,0.0,0.0,0.0,0.0,0.0,0.0,0.0,0.0,0.0,0.0,0.0,0.0,0.0,0.0,0.0,0.0,0.0,0.0,0.0,0.0,0.0,0.0,0.0,0.0,0.0,0.0,0.0,0.0,0.0,0.0,0.0,0.0,0.0,0.0,0.0,0.0,0.0,0.0,0.0,0.0,0.0,0.0,0.0,0.0,0.0,0.0,0.0,0.0,0.0,0.0,0.0,0.0,0.0,0.0,0.0,0.0,0.0,0.0,0.0,0.0,0.0,0.0,1.774,1.7589,1.7589,1.7589,1.7589,1.7628,1.7523,1.7605,1.786,0.0,0.0,0.0,0.0,0.0,0.0,0.0,0.0,0.0,0.0,0.0,0.0,0.0,0.0,0.0,0.0,0.0,0.0,0.0,0.0,0.0,0.0,0.0,0.0,0.0,0.0,0.0,0.0,0.0,0.0,0.0,0.0,0.0,0.0,0.0,0.0,0.0,0.0,1.4817,1.517,0.0,0.0,0.0,0.0,0.0,0.0,0.0,0.0,1.4908,0.0,0.0,0.0,0.0,0.0,0.0,0.0,0.0,0.0,0.0,0.0,0.0,0.0,0.0,0.0,0.0,0.0,0.0,0.0,0.0,0.0,0.0,0.0,0.0,0.0,0.0,0.0,0.0,0.0,0.0,0.0,0.0,0.0,0.0,0.0,0.0,0.0,0.0,0.0,0.0,0.0,0.0,0.0,0.0,0.0,0.0,0.0,0.0,0.0,0.0,0.0,0.0,0.0,0.0,0.0,0.0,1.8311,1.7845,1.7589,1.7589,1.7589,1.7589,1.7621,1.7523,1.7605,1.7782,0.0,0.0,0.0,0.0,0.0,0.0,0.0,0.0,0.0,0.0,0.0,0.0,0.0,0.0,0.0,0.0,0.0,0.0,0.0,0.0,0.0,0.0,0.0,0.0,0.0,0.0,0.0,0.0,0.0,0.0,0.0,0.0,0.0,0.0,0.0,0.0,0.0,0.0,0.0,1.5528,1.5531,0.0,0.0,0.0,0.0,0.0,0.0,0.0,0.0,1.5101,0.0,0.0,0.0,0.0,0.0,0.0,0.0,0.0,0.0,0.0,0.0,0.0,0.0,0.0,0.0,0.0,0.0,0.0,0.0,0.0,0.0,0.0,0.0,0.0,0.0,0.0,0.0,0.0,0.0,0.0,0.0,0.0,0.0,0.0,0.0,0.0,0.0,0.0,0.0,0.0,0.0,0.0,0.0,0.0,0.0,0.0,0.0,0.0,0.0,0.0,0.0,0.0,0.0,0.0,0.0,1.8356,1.801,1.7747,1.7582,1.7589,1.7687,1.7786,1.7625,1.7761,0.0,0.0,0.0,0.0,0.0,0.0,0.0,0.0,0.0,0.0,0.0,0.0,0.0,0.0,0.0,0.0,0.0,0.0,0.0,0.0,0.0,0.0,0.0,0.0,0.0,0.0,0.0,0.0,0.0,0.0,0.0,0.0,0.0,0.0,0.0,0.0,0.0,0.0,0.0,0.0,1.5937,1.601,1.5596,0.0,0.0,0.0,0.0,0.0,0.0,1.5585,1.5251,0.0,0.0,0.0,0.0,0.0,0.0,0.0,0.0,0.0,0.0,0.0,0.0,0.0,0.0,0.0,0.0,0.0,0.0,0.0,0.0,0.0,0.0,0.0,0.0,0.0,0.0,0.0,0.0,0.0,0.0,0.0,0.0,0.0,0.0,0.0,0.0,0.0,0.0,0.0,0.0,0.0,0.0,0.0,0.0,0.0,0.0,0.0,0.0,0.0,0.0,0.0,0.0,0.0,0.0,0.0,1.848,1.8297,1.801,1.7733,1.774,1.7898,1.816,1.7827,1.8002,0.0,0.0,0.0,0.0,0.0,0.0,0.0,0.0,0.0,0.0,0.0,0.0,0.0,0.0,0.0,0.0,0.0,0.0,0.0,0.0,0.0,0.0,0.0,0.0,0.0,0.0,0.0,0.0,0.0,0.0,0.0,0.0,0.0,0.0,0.0,0.0,0.0,0.0,0.0,0.0,0.0,1.6331,1.5866,1.5825,0.0,0.0,0.0,0.0,1.5825,1.5585,0.0,0.0,0.0,0.0,0.0,0.0,0.0,0.0,0.0,0.0,0.0,0.0,0.0,0.0,0.0,0.0,0.0,0.0,0.0,0.0,0.0,0.0,0.0,0.0,0.0,0.0,0.0,0.0,0.0,0.0,0.0,0.0,0.0,0.0,0.0,0.0,0.0,0.0,0.0,0.0,0.0,0.0,0.0,0.0,0.0,0.0,0.0,0.0,0.0,0.0,0.0,0.0,0.0,0.0,0.0,0.0,1.8695,1.869,1.8572,1.8318,1.8318,1.8422,1.8715,1.8376,1.8447,0.0,0.0,0.0,0.0,0.0,0.0,0.0,0.0,0.0,0.0,0.0,0.0,0.0,0.0,0.0,0.0,0.0,0.0,0.0,0.0,0.0,0.0,0.0,0.0,0.0,0.0,0.0,0.0,0.0,0.0,0.0,0.0,0.0,0.0,0.0,0.0,0.0,0.0,0.0,0.0,0.0,1.6088,1.5839,1.5825,1.5825,0.0,0.0,1.5825,1.5825,1.5585,0.0,0.0,0.0,0.0,0.0,0.0,0.0,0.0,0.0,0.0,0.0,0.0,0.0,0.0,0.0,0.0,0.0,0.0,0.0,0.0,0.0,0.0,0.0,0.0,0.0,0.0,0.0,0.0,0.0,0.0,0.0,0.0,0.0,0.0,0.0,0.0,0.0,0.0,0.0,0.0,0.0,0.0,0.0,0.0,0.0,0.0,0.0,0.0,0.0,0.0,0.0,0.0,0.0,0.0,0.0,1.9772,1.8745,1.8941,1.884,1.8429,1.8422,1.8632,1.9056,1.8585,1.8651,0.0,0.0,0.0,0.0,0.0,0.0,0.0,0.0,0.0,0.0,0.0,0.0,0.0,0.0,0.0,0.0,0.0,0.0,0.0,0.0,0.0,0.0,0.0,0.0,0.0,0.0,0.0,0.0,0.0,0.0,0.0,0.0,0.0,0.0,0.0,0.0,0.0,0.0,0.0,0.0,0.0,0.0,1.5832,1.5825,0.0,0.0,0.0,1.5825,1.5825,0.0,0.0,0.0,0.0,0.0,0.0,0.0,0.0,0.0,0.0,0.0,0.0,0.0,0.0,0.0,0.0,0.0,0.0,0.0,0.0,0.0,0.0,0.0,0.0,0.0,0.0,0.0,0.0,0.0,0.0,0.0,0.0,0.0,0.0,0.0,0.0,0.0,0.0,0.0,0.0,0.0,0.0,0.0,0.0,0.0,0.0,0.0,0.0,0.0,0.0,0.0,0.0,0.0,0.0,0.0,0.0,0.0,1.883,1.9265,1.9212,1.8639,1.8632,1.89,1.9465,1.9026,0.0,0.0,0.0,0.0,0.0,0.0,0.0,0.0,0.0,0.0,0.0,0.0,0.0,0.0,0.0,0.0,0.0,0.0,0.0,0.0,0.0,0.0,0.0,0.0,0.0,0.0,0.0,1.7498,0.0,0.0,0.0,0.0,0.0,0.0,0.0,0.0,0.0,0.0,0.0,0.0,0.0,0.0,1.6075,1.5939,1.5939,1.5917,0.0,0.0,1.5997,1.6046,1.5985,1.5838,0.0,0.0,0.0,0.0,0.0,0.0,0.0,0.0,0.0,0.0,0.0,0.0,0.0,0.0,0.0,0.0,0.0,0.0,0.0,0.0,0.0,0.0,0.0,0.0,0.0,0.0,0.0,0.0,0.0,0.0,0.0,0.0,0.0,0.0,0.0,0.0,0.0,0.0,0.0,0.0,0.0,0.0,0.0,0.0,0.0,0.0,0.0,0.0,0.0,0.0,0.0,0.0,0.0,0.0,0.0,1.9129,1.9707,1.9783,1.9272,1.922,1.9472,2.0027,1.9953,1.9962,0.0,0.0,0.0,0.0,0.0,0.0,0.0,0.0,0.0,0.0,0.0,0.0,0.0,0.0,0.0,0.0,0.0,0.0,0.0,0.0,0.0,0.0,0.0,0.0,0.0,0.0,0.0,0.0,0.0,0.0,0.0,0.0,0.0,0.0,0.0,0.0,0.0,0.0,0.0,0.0,0.0,1.6158,1.6256,1.6295,1.6339,0.0,0.0,1.6647,1.6647,1.642,1.6146,1.5852,0.0,0.0,0.0,0.0,0.0,0.0,0.0,0.0,0.0,0.0,0.0,0.0,0.0,0.0,0.0,0.0,0.0,0.0,0.0,0.0,0.0,0.0,0.0,0.0,0.0,0.0,0.0,0.0,0.0,0.0,0.0,0.0,0.0,0.0,0.0,0.0,0.0,0.0,0.0,0.0,0.0,0.0,0.0,0.0,0.0,0.0,0.0,0.0,0.0,0.0,0.0,0.0,0.0,2.0433,1.9437,1.9916,1.9986,1.9632,1.9783,2.0091,2.0616,2.0382,2.0578,0.0,0.0,0.0,0.0,0.0,0.0,0.0,0.0,0.0,0.0,0.0,0.0,0.0,0.0,0.0,0.0,0.0,0.0,0.0,0.0,0.0,0.0,0.0,0.0,0.0,0.0,0.0,0.0,1.7024,1.6639,1.5971,0.0,0.0,0.0,0.0,0.0,0.0,0.0,0.0,0.0,0.0,1.6197,1.631,1.6426,0.0,0.0,1.6707,1.6707,1.6707,1.6607,1.65,1.6386,1.5972,0.0,0.0,0.0,0.0,0.0,0.0,0.0,0.0,0.0,0.0,0.0,0.0,0.0,0.0,0.0,0.0,0.0,0.0,0.0,0.0,0.0,0.0,0.0,0.0,0.0,0.0,0.0,0.0,0.0,0.0,0.0,0.0,0.0,0.0,0.0,0.0,0.0,0.0,0.0,0.0,0.0,0.0,0.0,0.0,0.0,0.0,0.0,0.0,0.0,0.0,0.0,0.0,2.0499,1.9765,2.0054,2.018,2.0062,2.0276,2.0605,2.108,2.1016,2.1261,0.0,0.0,0.0,0.0,0.0,0.0,0.0,0.0,0.0,0.0,0.0,0.0,0.0,0.0,0.0,0.0,0.0,0.0,0.0,0.0,0.0,0.0,0.0,0.0,0.0,0.0,0.0,0.0,1.7401,1.692,1.6352,0.0,0.0,0.0,0.0,0.0,0.0,0.0,0.0,0.0,0.0,1.6497,1.6543,1.6757,1.6874,1.6961,1.6967,1.6974,1.6967,1.6901,1.6834,1.684,0.0,0.0,0.0,0.0,0.0,0.0,0.0,0.0,0.0,0.0,0.0,0.0,0.0,0.0,0.0,0.0,0.0,0.0,0.0,0.0,0.0,0.0,0.0,0.0,0.0,0.0,0.0,0.0,0.0,0.0,2.4622,0.0,0.0,0.0,0.0,0.0,0.0,0.0,0.0,0.0,0.0,0.0,0.0,0.0,0.0,0.0,0.0,0.0,0.0,0.0,0.0,0.0,0.0,2.0617,2.0109,2.0189,2.0345,2.0651,2.0666,2.0948,2.1375,2.1897,2.2128,2.203,0.0,0.0,0.0,0.0,0.0,0.0,0.0,0.0,0.0,0.0,0.0,0.0,0.0,0.0,0.0,0.0,0.0,0.0,0.0,0.0,0.0,0.0,0.0,0.0,0.0,0.0,1.8919,1.7883,1.7198,0.0,0.0,0.0,0.0,0.0,0.0,0.0,0.0,0.0,0.0,1.6731,1.7109,1.7183,1.7192,1.7286,1.7554,1.7555,1.7555,1.7549,1.7373,1.7192,0.0,0.0,0.0,0.0,0.0,0.0,0.0,0.0,0.0,0.0,0.0,0.0,0.0,0.0,0.0,0.0,0.0,0.0,0.0,0.0,0.0,0.0,0.0,0.0,0.0,0.0,0.0,2.6287,2.6089,0.0,0.0,0.0,0.0,0.0,0.0,0.0,0.0,0.0,0.0,0.0,2.1257,2.1054,0.0,0.0,0.0,0.0,0.0,0.0,0.0,0.0,0.0,0.0,0.0,0.0,2.0804,2.0452,2.05,2.067,2.1003,2.1382,2.1814,2.2411,2.2917,2.3272,2.3417,0.0,0.0,0.0,0.0,0.0,0.0,0.0,0.0,0.0,0.0,0.0,0.0,0.0,0.0,0.0,0.0,0.0,0.0,0.0,0.0,0.0,0.0,0.0,0.0,0.0,1.9372,0.0,0.0,0.0,0.0,0.0,0.0,0.0,0.0,0.0,0.0,0.0,1.7042,1.7309,1.7561,1.7703,1.7698,1.7736,1.7743,0.0,0.0,0.0,0.0,0.0,0.0,0.0,0.0,0.0,0.0,0.0,0.0,0.0,0.0,1.5939,1.5357,1.5251,1.5311,1.5498,0.0,0.0,0.0,0.0,0.0,0.0,0.0,0.0,0.0,0.0,0.0,0.0,0.0,0.0,2.6674,0.0,2.5707,0.0,0.0,0.0,0.0,0.0,0.0,0.0,0.0,2.1409,2.1215,2.1222,2.1073,2.1073,0.0,2.1222,2.1095,0.0,0.0,0.0,0.0,0.0,0.0,0.0,0.0,2.0932,2.0787,2.0833,2.1108,2.15,2.206,2.2545,2.3023,2.3755,2.4373,2.4816,2.4876,2.4601,0.0,0.0,0.0,0.0,0.0,0.0,0.0,0.0,0.0,0.0,0.0,0.0,0.0,0.0,0.0,0.0,0.0,0.0,0.0,0.0,0.0,0.0,0.0,1.9794,0.0,0.0,0.0,0.0,0.0,0.0,0.0,0.0,0.0,1.7347,1.7402,1.7624,1.7875,1.8041,1.8128,1.8128,0.0,0.0,0.0,0.0,0.0,0.0,0.0,1.7896,1.7903,1.7742,1.7594,1.7387,1.7112,1.6827,1.672,0.0,0.0,1.5959,1.5852,1.5905,1.6051,1.6084,1.6139,1.6132,1.6132,1.6132,0.0,0.0,0.0,0.0,0.0,0.0,0.0,0.0,2.7885,2.747,0.0,2.6126,0.0,0.0,0.0,0.0,0.0,2.1877,0.0,0.0,2.1157,2.1002,2.1078,2.1078,2.1039,2.1101,2.1078,2.107,2.1086,2.1466,0.0,0.0,0.0,0.0,0.0,0.0,2.1017,2.1122,2.1175,2.1515,2.2093,2.2667,2.3119,2.3439,2.4474,2.5372,2.6111,2.5664,2.5459,2.5654,2.4105,0.0,0.0,0.0,0.0,0.0,0.0,0.0,0.0,0.0,0.0,0.0,0.0,0.0,0.0,0.0,0.0,0.0,0.0,0.0,0.0,2.09,0.0,0.0,0.0,0.0,0.0,0.0,0.0,0.0,0.0,0.0,1.7526,1.8007,1.8295,1.8105,0.0,0.0,0.0,0.0,1.8555,1.8863,1.8697,1.8584,1.8865,1.8636,1.8477,1.8484,0.0,0.0,1.7716,1.7382,1.7172,1.6827,1.682,1.676,1.6774,1.6747,1.6734,1.676,1.678,1.6774,1.6767,1.6827,1.6807,2.5631,0.0,0.0,0.0,0.0,2.8023,2.8301,2.8262,2.7851,2.7404,2.6893,2.605,0.0,0.0,0.0,0.0,0.0,0.0,2.2242,2.1745,2.1279,2.0955,2.0768,2.0557,2.0557,2.0721,2.0768,2.0876,2.1086,2.1224,2.1283,2.1291,0.0,0.0,0.0,0.0,2.1083,2.1104,2.1399,2.1741,2.2108,2.2909,2.3855,2.4963,2.5451,2.5943,2.6574,2.6577,2.6267,2.5713,2.5216,0.0,0.0,0.0,0.0,0.0,0.0,0.0,0.0,0.0,0.0,0.0,0.0,0.0,0.0,0.0,0.0,0.0,0.0,0.0,2.1961,2.1378,2.0655,0.0,0.0,0.0,0.0,0.0,0.0,0.0,0.0,0.0,1.8931,1.8796,1.8811,0.0,0.0,1.949,1.9654,1.9513,1.9434,1.9519,1.9322,0.0,0.0,1.8809,1.8698,1.8546,1.8497,1.843,1.8257,1.8163,1.813,1.7983,1.7976,1.7976,1.7956,1.7622,1.7428,1.7615,1.7829,1.7969,1.7976,1.7983,1.7969,2.6175,2.6261,2.692,2.7381,2.7678,2.8265,2.8447,2.8271,2.7921,2.7487,2.699,2.6206,2.5421,2.4686,2.4052,0.0,0.0,0.0,2.2352,2.1783,2.1602,2.1352,2.1033,2.0996,2.1062,2.1225,2.1225,2.1338,2.1515,2.1508,2.1564,2.1542,0.0,0.0,2.1073,2.111,2.1182,2.1329,2.1815,2.2268,2.2671,2.3577,2.4558,2.5624,2.5982,2.6456,2.6999,2.7188,2.7031,2.6523,2.5966,2.5206,0.0,0.0,0.0,0.0,0.0,0.0,0.0,0.0,0.0,0.0,0.0,2.1924,0.0,0.0,0.0,0.0,2.3329,2.2993,2.2547,2.1886,0.0,0.0,0.0,0.0,0.0,0.0,0.0,1.9155,1.928,1.9449,1.9665,1.9508,1.9506,1.9901,1.9952,2.0018,2.0154,0.0,1.9993,2.0123,1.9923,1.9695,1.964,1.9549,1.9324,1.9057,1.8794,1.8664,1.8657,1.8577,1.8497,1.8497,1.8497,1.8497,1.8497,1.827,1.8116,1.821,1.8364,1.8484,1.8497,1.8497,1.8497,2.6751,2.7107,2.7932,2.8174,2.8094,2.8645,2.8696,2.8345,2.812,2.7787,2.7472,2.661,2.58,2.5073,2.3962,0.0,2.298,2.2681,2.2331,2.1734,2.2047,2.2015,2.1745,2.2037,2.2184,2.2176,2.2184,2.2184,2.2162,2.2169,2.2184,2.2147,2.1542,2.1194,2.1201,2.1167,2.1408,2.1774,2.2366,2.2971,2.3677,2.454,2.5223,2.5741,2.6373,2.6909,2.7368,2.7603,2.7757,2.7689,2.6533,2.5801,2.5674,0.0,0.0,0.0,0.0,0.0,0.0,0.0,0.0,0.0,0.0,0.0,0.0,0.0,0.0,0.0,2.4074,0.0,2.3392,2.2497,0.0,0.0,0.0,2.0241,1.9957,1.9695,1.9498,1.9274,0.0,0.0,1.9852,2.0091,2.0234,2.0292,2.0256,2.0234,2.0256,2.0314,2.0457,2.0723,2.0619,2.0558,2.0694,2.0513,2.0231,1.9877,1.9435,1.9065,1.9052,1.8865,1.8671,1.8704,1.8644,1.8664,1.8637,1.8885,1.8951,1.8711,1.8617,1.8577,1.8604,1.8611,1.8617,2.8145,2.824,2.8937,2.8799,2.8192,2.8801,2.8976,2.8945,2.8824,2.8657,2.8322,2.7424,2.653,2.5694,2.5389,2.4996,2.4482,2.4425,2.3767,2.28,2.2818,2.2563,2.2067,2.2147,2.2184,2.2184,2.2184,2.2184,2.2184,2.2184,2.2184,2.2169,2.2046,2.1935,2.195,2.1958,2.2142,2.2461,2.2809,2.3548,2.4634,2.5368,2.5895,2.6166,2.6957,2.7352,2.7396,2.7883,2.7988,2.7728,2.7373,2.6768,2.5742,2.5489,0.0,0.0,0.0,0.0,0.0,0.0,0.0,0.0,0.0,2.3227,2.3603,0.0,2.4453,0.0,2.4928,2.465,2.3898,2.3256,0.0,0.0,2.095,2.0524,2.0291,2.0058,1.9943,1.9956,2.002,2.0175,2.0457,2.0559,2.0737,2.1262,2.0918,2.0691,2.094,2.1196,2.1372,2.1459,2.1598,2.1677,2.1462,2.1208,2.0844,2.0559,2.0365,2.0218,1.9913,1.9873,1.982,1.982,1.982,1.982,1.9786,1.988,1.9887,1.98,1.9472,1.9158,1.9158,1.9216,1.9216,2.865,2.8685,2.9121,2.9121,2.891,2.9087,2.9079,2.8851,2.8738,2.8559,2.821,2.7308,2.6513,2.5876,2.576,2.5536,2.5236,2.4935,2.4349,2.3523,2.3372,2.3089,2.2623,2.2588,2.2593,2.2593,2.2593,2.2593,2.2593,2.2601,2.2654,2.2837,2.2837,2.2905,2.3012,2.2503,2.2415,2.2902,2.3776,2.4564,2.5182,2.6007,2.6467,2.6613,2.7251,2.7658,2.7642,2.8066,2.8184,2.7959,2.7826,2.7344,2.6641,2.6406,2.5918,0.0,0.0,0.0,0.0,0.0,0.0,0.0,0.0,0.0,0.0,0.0,2.4893,2.5322,2.5189,2.4935,2.4464,2.387,2.3205,2.2449,2.1921,2.1438,2.0956,2.0692,2.0461,2.0214,2.0307,2.0467,2.0706,2.0976,2.1284,2.165,2.1511,2.1437,2.1606,2.1811,2.1913,2.192,2.2067,2.2116,2.1922,2.1675,2.1375,2.1187,2.0886,2.0651,2.047,2.0295,2.0173,2.0173,2.0173,2.0173,2.0173,2.0173,2.0173,2.0194,1.998,1.9773,1.9753,1.9753,1.9753,2.8848,2.8839,2.9083,2.9368,2.9723,2.9483,2.9143,2.8757,2.8472,2.814,2.773,2.6933,2.6412,2.6021,2.5796,2.5671,2.562,2.5075,2.4604,2.4206,2.3898,2.3543,2.3185,2.316,2.3106,2.3106,2.3113,2.3168,2.3175,2.323,2.3355,2.3673,2.3728,2.386,2.4085,2.3119,2.2795,2.3292,2.483,2.5639,2.5561,2.6568,2.7035,2.7004,2.749,2.7827,2.8058,2.8327,2.8428,2.8369,2.808,2.7783,2.7708,2.7305,2.6738,0.0,2.5849,0.0,0.0,0.0,0.0,0.0,0.0,0.0,0.0,2.5213,2.543,2.581,2.5398,2.5093,2.4954,2.4417,2.3909,2.3557,2.31,2.2486,2.1618,2.1294,2.0944,2.0358,2.0618,2.0852,2.0889,2.1386,2.1759,2.1854,2.2045,2.2198,2.2286,2.2264,2.2235,2.2242,2.2279,2.2374,2.2292,2.2081,2.1886,2.1744,2.1409,2.0949,2.0862,2.0618,2.0415,2.0361,2.0388,2.0306,2.0347,2.03,2.0361,2.0326,2.0361,2.0314,2.0221,2.018,2.0173,2.9597,2.957,2.9628,2.9618,2.9724,2.9947,2.993,2.977,2.9425,2.8746,2.7976,2.7789,2.7381,2.685,2.6799,2.6618,2.636,2.6308,2.5764,2.4913,2.4539,2.4078,2.3514,2.3208,2.3106,2.3106,2.3362,2.3479,2.3542,2.3798,2.3922,2.3984,2.4293,2.4425,2.4533,0.0,0.0,0.0,2.5431,2.5981,2.6037,2.6927,2.7362,2.7355,2.812,0.0,2.8568,2.9087,2.917,2.8828,2.8721,0.0,0.0,0.0,0.0,0.0,0.0,0.0,0.0,0.0,0.0,0.0,2.6523,2.6103,2.5185,2.5732,2.6219,2.6415,2.6352,2.5996,2.5279,2.4929,2.4402,2.3685,2.3101,2.2478,2.1634,2.1502,2.1284,2.0696,2.1145,2.1511,2.1525,2.1862,2.2176,2.2374,2.2498,2.2645,2.2886,2.2689,2.2542,2.255,2.2732,2.2908,2.2937,2.2846,2.2624,2.2496,2.2365,2.2039,2.1527,2.1347,2.1179,2.0985,2.0942,2.0929,2.0929,2.0942,2.0902,2.0929,2.0929,2.0802,2.0341,2.018,2.0173,3.0301,0.0,3.0047,3.0148,0.0,3.0445,3.0556,3.0642,3.012,2.9271,2.8295,2.791,2.7478,2.7081,2.7081,2.7012,2.6822,2.67,2.6266,2.5594,2.5042,2.4487,2.386,2.3673,2.3487,2.3355,2.3728,2.3852,2.386,2.4046,2.417,2.4363,2.4672,2.4919,2.5111,2.541,2.541,2.5103,2.59,2.6327,2.638,2.7099,2.7563,2.7677,2.8412,0.0,0.0,0.0,0.0,0.0,0.0,0.0,0.0,0.0,0.0,2.7373,2.7344,2.7236,2.7031,2.7012,2.7012,2.7012,2.7012,2.6738,2.6074,2.6445,2.6686,2.6625,2.649,2.6069,2.5362,2.5117,2.4695,2.4018,2.3578,2.3025,2.2378,2.2163,2.1941,2.1553,2.173,2.1935,2.1935,2.2206,2.244,2.2608,2.2769,2.2923,2.3062,2.2974,2.2871,2.2864,2.2988,2.3098,2.3106,2.3106,2.305,2.2856,2.2731,2.248,2.2174,2.1796,2.1544,2.1362,2.1235,2.1102,2.1102,2.1102,2.1102,2.1102,2.1102,2.1036,2.0715,2.0668,2.0668,3.1044,3.0694,3.0694,3.0815,3.1102,3.1093,3.1208,3.1414,0.0,0.0,0.0,2.8156,2.7635,2.7288,2.722,2.7133,2.7073,2.6822,2.651,2.6136,2.5472,2.4865,2.4301,2.417,2.3984,2.3736,2.4046,2.417,2.417,2.4232,2.4417,2.4672,2.5042,2.5357,2.5786,2.6136,2.6197,2.597,2.6388,2.664,2.67,2.722,2.7702,2.814,2.8636,2.9111,2.9478,2.9706,2.9822,2.9734,2.9336,2.9111,2.9033,2.8633,2.8242,2.792,2.7875,2.7617,2.7266,2.7236,2.7236,2.7246,2.7246,2.7217,2.7148,2.7068,2.6953,2.6762,2.6451,2.6035,2.5407,2.5299,2.4998,2.4381,2.4167,2.3829,2.3281,2.2886,2.2568,2.2364,2.2266,2.2264,2.2264,2.252,2.271,2.2747,2.293,2.3106,2.3106,2.3091,2.3076,2.3084,2.3098,2.3106,2.3106,2.3106,2.3106,2.3043,2.2856,2.2675,2.2543,2.2167,2.1796,2.167,2.1418,2.1235,2.1166,2.1109,2.1102,2.1102,2.1102,2.1102,2.1102,2.1102,2.1076,3.2079,3.169,3.169,3.169,3.1744,3.2036,3.22,3.2197,3.1379,3.0642,2.9925,2.948,2.8821,2.7965,2.7618,2.7289,2.7081,2.7073,2.6822,2.6518,2.5855,2.5365,2.4926,2.4355,2.4046,2.4046,2.4363,2.4548,2.4548,2.4795,2.4988,2.505,2.5357,2.5847,2.6449,2.7047,2.728,2.722,2.6805,2.6761,2.7012,2.7349,2.7951,2.8797,2.9139,2.9583,3.0247,3.0539,3.0518,3.0137,3.0049,2.9853,2.9492,2.9062,2.8799,2.873,2.8408,2.8174,2.8125,2.8115,2.8115,2.8115,2.8115,2.7959,2.7607,2.734,2.7223,2.7248,2.6857,2.6272,2.5755,2.5699,2.5462,2.4924,2.4836,2.4629,2.3975,2.3402,2.2959,2.2677,2.2585,2.2564,2.2586,2.2828,2.301,2.3032,2.3062,2.3106,2.3106,2.3106,2.3106,2.3106,2.3106,2.3106,2.3106,2.3106,2.3106,2.3106,2.3043,2.2926,2.2668,2.248,2.2299,2.2048,2.1727,2.1544,2.1481,2.1299,2.1172,2.1102,2.1102,2.1102,2.1102,2.1102,2.1102,3.2804,3.2185,3.2147,3.2147,3.2211,3.254,3.2804,3.2892,3.257,3.1702,3.0532,3.0075,2.94,2.8464,2.8227,2.7851,2.7364,2.7189,2.6834,2.6327,2.5847,2.5234,2.461,2.4417,2.417,2.386,2.417,2.4363,2.4355,2.4487,2.4548,2.461,2.5234,2.5908,2.6579,2.722,2.7581,2.7762,2.7478,2.7539,2.784,2.8011,2.8421,2.9203,2.949,2.9912,3.0392,3.0704,3.0791,3.0586,3.0332,3.0117,2.9912,2.9502,2.9268,2.9268,2.9092,2.8994,2.8984,2.8984,2.8984,2.8984,2.8984,2.8961,2.8775,2.8145,2.78,2.7716,2.748,2.7133,2.6637,2.6486,2.6193,2.5775,2.5484,2.5076,2.4658,2.4221,2.3692,2.3255,2.316,2.3071,2.2879,2.3018,2.3106,2.3106,2.3106,2.3106,2.3106,2.3106,2.3106,2.3106,2.3106,2.3106,2.3106,2.3106,2.3106,2.3106,2.3106,2.305,2.2856,2.2731,2.2543,2.2355,2.2104,2.179,2.167,2.1488,2.1299,2.1102,2.1102,2.1102,2.1102,2.1102,2.1102,3.343,3.2613,3.2603,3.2603,3.2676,3.2921,3.3175,3.3355,3.3408,3.2539,3.1208,3.0729,2.9993,2.8982,2.885,2.8381,2.7634,2.7376,2.6844,2.6216,2.5899,2.524,2.4417,2.4533,2.4308,2.3805,2.3984,2.4108,2.4108,2.4108,2.4108,2.4232,2.505,2.5794,2.6336,2.7047,2.7599,2.796,2.808,2.8319,2.8719,2.871,2.9007,2.9608,2.9863,3.0157,3.0518,3.0762,3.0898,3.0869,3.0547,3.0351,3.0332,2.9951,2.9707,2.9707,2.9629,2.958,2.958,2.958,2.958,2.958,2.958,2.957,2.9577,2.8975,2.8484,2.8289,2.8069,2.7763,2.7407,2.712,2.6818,2.6519,2.6081,2.5678,2.5365,2.5,2.4542,2.4,2.3728,2.3472,2.33,2.3168,2.3106,2.3106,2.3106,2.3106,2.3106,2.3106,2.3106,2.3106,2.3106,2.3106,2.3106,2.3106,2.3106,2.3106,2.3106,2.3106,2.3043,2.2863,2.2738,2.2668,2.2418,2.2104,2.1796,2.1614,2.1488,2.1166,2.1102,2.1102,2.1102,2.1102,2.1102,3.407,3.335,3.3301,3.3292,3.3301,3.3364,3.3355,3.3418,3.3418,3.2975,3.2225,3.1838,3.0897,2.9724,2.9305,2.8626,2.7748,2.7685,2.7217,2.6526,2.6232,2.5683,2.4967,2.47,2.4413,2.4099,2.4084,2.4099,2.4076,2.4053,2.4108,2.417,2.4795,2.5296,2.5794,2.664,2.7427,2.802,2.8268,2.8746,2.9244,2.9303,2.9667,3.0255,3.0323,3.0518,3.082,3.0889,3.0898,3.0889,3.085,3.082,3.0781,3.0391,3.0137,3.0127,2.9795,2.958,2.959,2.958,2.9665,2.958,2.9619,2.9619,2.9675,2.9512,2.9351,2.8971,2.8295,2.7917,2.7735,2.7352,2.7038,2.6996,2.6645,2.6486,2.6305,2.5607,2.501,2.4972,2.417,2.3611,2.3487,2.3293,2.3106,2.3106,2.3106,2.3106,2.3106,2.3106,2.3106,2.3106,2.3106,2.3106,2.3106,2.3106,2.3106,2.3106,2.3106,2.3106,2.3043,2.3043,2.3043,2.2918,2.2801,2.2418,2.2104,2.1796,2.1544,2.1299,2.1166,2.1102,2.1102,2.1102,2.1102,3.4355,3.3789,3.3535,3.3418,3.3418,3.3418,3.3418,3.3418,3.3418,3.3102,3.2648,3.2286,3.1394,3.0186,2.9962,2.9247,2.8017,2.7559,2.7051,2.6272,2.5759,2.5232,2.4804,2.466,2.4385,2.4145,2.4138,2.397,2.3777,2.3646,2.3611,2.3798,2.4293,2.4795,2.5296,2.6083,2.6926,2.7711,2.802,2.8609,2.9303,2.9618,3.003,3.0577,3.0704,3.0772,3.0889,3.0898,3.0898,3.0898,3.0898,3.0898,3.0889,3.0713,3.0605,3.0596,3.0449,3.0351,3.0342,3.0351,3.0351,3.0351,3.0351,3.0351,3.0351,3.0351,3.0294,3.0093,2.925,2.8734,2.8735,2.8097,2.7602,2.7509,2.7151,2.6822,2.6631,2.6075,2.5594,2.5165,2.4425,2.3798,2.3611,2.33,2.3113,2.3106,2.3106,2.3106,2.3106,2.3106,2.3106,2.3106,2.3106,2.3106,2.3106,2.3106,2.3106,2.3106,2.3106,2.3106,2.3106,2.3106,2.3106,2.3113,2.3032,2.2774,2.248,2.2104,2.1796,2.1515,2.1179,2.1102,2.1102,2.1102,2.1102,3.4453,3.4043,3.3603,3.3418,3.3418,3.3418,3.3418,3.3418,3.3418,3.3228,3.2848,3.2603,3.191,3.0879,3.0564,2.9683,2.8533,2.7801,2.7141,2.6381,2.5789,2.5287,2.4878,2.4805,2.4557,2.4288,2.4136,2.3947,2.372,2.3501,2.3502,2.3747,2.3986,2.4377,2.4991,2.5536,2.6311,2.7168,2.7599,2.825,2.9194,2.9618,3.0108,3.0704,3.083,3.0898,3.0898,3.0898,3.0898,3.0898,3.0898,3.0898,3.0898,3.0898,3.0898,3.0898,3.0898,3.0898,3.0898,3.0898,3.0898,3.0898,3.0898,3.0898,3.0898,3.0898,3.0898,3.0791,3.0074,2.9609,2.9502,2.8797,2.8199,2.802,2.7547,2.7064,2.6761,2.6449,2.6014,2.541,2.4857,2.4177,2.3728,2.3362,2.3238,2.3113,2.3106,2.3106,2.3106,2.3106,2.3106,2.3106,2.3106,2.3106,2.3106,2.3106,2.3106,2.3106,2.3106,2.3106,2.3135,2.3157,2.3245,2.334,2.3325,2.3272,2.2992,2.2688,2.2356,2.2045,2.1719,2.1494,2.1474,2.137,2.1189,3.4453,3.4043,3.3603,3.3418,3.3418,3.3418,3.3418,3.3418,3.3418,3.3228,3.2921,3.2858,3.2466,3.1754,3.0879,2.9961,2.9216,2.8534,2.7792,2.7148,2.6765,2.6234,2.5553,2.5208,2.4919,2.4645,2.4377,2.4188,2.4064,2.4027,2.4042,2.407,2.4104,2.428,2.4684,2.5069,2.568,2.6655,2.7028,2.7754,2.8884,2.9281,2.9754,3.0392,3.0704,3.0898,3.0898,3.0898,3.0898,3.0898,3.0898,3.0898,3.0898,3.0898,3.0898,3.0898,3.0898,3.0898,3.0898,3.0898,3.0898,3.0898,3.0898,3.0898,3.0898,3.0898,3.0898,3.0889,3.0538,3.0227,2.9912,2.9272,2.8618,2.814,2.7702,2.7409,2.7133,2.6761,2.6449,2.6014,2.541,2.461,2.3736,2.3611,2.3425,2.3168,2.3106,2.3106,2.3106,2.3106,2.3106,2.3106,2.3106,2.3106,2.3113,2.3106,2.3106,2.3171,2.3215,2.3171,2.323,2.3325,2.3471,2.3625,2.3757,2.3752,2.3602,2.3421,2.3234,2.2881,2.2521,2.2336,2.2073,2.1801,2.1619,3.4717,3.4043,3.3603,3.3418,3.3418,3.3418,3.3418,3.3418,3.3418,3.3355,3.3175,3.2985,3.2785,3.253,3.169,3.0732,2.9617,2.8905,2.8246,2.7517,2.7193,2.6796,2.6362,2.6139,2.576,2.5263,2.5108,2.4864,2.4444,2.4196,2.4086,2.4136,2.4106,2.4362,2.4853,2.5009,2.5715,2.6848,2.7115,2.7672,2.8671,2.9059,2.9481,3.0058,3.0645,3.0898,3.0898,3.0898,3.0898,3.0898,3.0898,3.0898,3.0898,3.0898,3.0898,3.0898,3.0898,3.0898,3.0898,3.0898,3.0898,3.0898,3.0898,3.0898,3.0898,3.0898,3.0898,3.0889,3.082,3.0577,3.0157,2.9509,2.8925,2.8618,2.8131,2.7711,2.7418,2.7125,2.677,2.6388,2.5656,2.4734,2.3984,2.3611,2.3487,2.3168,2.3106,2.3106,2.3106,2.3106,2.3113,2.3113,2.3113,2.3186,2.342,2.3223,2.3157,2.334,2.3449,2.3581,2.3676,2.3757,2.3896,2.3918,2.4093,2.4174,2.3956,2.3818,2.3687,2.3396,2.3053,2.2987,2.2765,2.2425,2.224,3.4873,3.4092,3.376,3.3545,3.3418,3.3418,3.3418,3.3418,3.3418,3.3418,3.3355,3.3175,3.3048,3.2975,3.2466,3.168,3.0593,2.9739,2.8954,2.8362,2.7915,2.7592,2.7384,2.7118,2.6725,2.613,2.5734,2.5271,2.4797,2.4503,2.4408,2.4401,2.4437,2.4697,2.5203,2.537,2.608,2.7046,2.7308,2.7869,2.8703,2.9108,2.9654,3.0298,3.0749,3.0908,3.0908,3.0898,3.0898,3.0898,3.0898,3.0898,3.0898,3.0898,3.0898,3.0898,3.0898,3.0898,3.0898,3.0898,3.0898,3.0898,3.0898,3.0898,3.0898,3.0898,3.0898,3.0898,3.0889,3.0762,3.0518,2.9922,2.939,2.9153,2.8668,2.8191,2.7882,2.7478,2.7056,2.6571,2.5847,2.498,2.4232,2.3922,2.3611,2.3293,2.3175,2.3106,2.3106,2.3106,2.3171,2.3237,2.3288,2.3442,2.3654,2.3625,2.3559,2.3706,2.3749,2.391,2.4064,2.4166,2.424,2.4254,2.4305,2.4364,2.4327,2.4196,2.399,2.3712,2.3665,2.3662,2.3374,2.3123,2.2849,3.4892,3.4189,3.4082,3.3818,3.3496,3.3437,3.3418,3.3418,3.3418,3.3418,3.3418,3.3355,3.3355,3.3292,3.2975,3.2667,3.2029,3.0963,3.013,2.9674,2.9094,2.8765,2.8642,2.8039,2.7525,2.6992,2.613,2.5457,2.5083,2.5031,2.5031,2.5091,2.5034,2.5231,2.5596,2.6074,2.6592,2.7319,2.7726,2.83,2.9128,2.9564,3.0149,3.0987,3.1048,3.1011,3.0976,3.0918,3.0898,3.0898,3.0898,3.0898,3.0898,3.0898,3.0898,3.0898,3.0898,3.0898,3.0898,3.0898,3.0898,3.0898,3.0898,3.0898,3.0898,3.0898,3.0898,3.0898,3.0898,3.0898,3.0869,3.0586,3.0127,2.949,2.9153,2.8847,2.843,2.7882,2.728,2.6684,2.6031,2.548,2.505,2.4548,2.4046,2.3604,2.3355,2.3205,2.3179,2.3193,2.3274,2.3501,2.361,2.3727,2.3918,2.4086,2.4086,2.4101,2.4093,2.4166,2.4327,2.4444,2.4547,2.4591,2.476,2.4819,2.4752,2.4692,2.4743,2.4549,2.448,2.4288,2.4099,2.3816,2.3511,3.5225,3.4902,3.4316,3.4004,3.3838,3.3555,3.3418,3.3418,3.3418,3.3418,3.3418,3.3418,3.3418,3.3355,3.3292,3.3048,3.2731,3.2211,3.1561,3.0676,3.0343,2.9822,2.9242,2.8914,2.8254,2.7267,2.6666,2.5996,2.5524,2.5457,2.5329,2.5158,2.536,2.5769,2.6339,2.6972,2.7703,2.8559,2.8939,2.9416,2.9887,3.0041,3.047,3.112,3.1161,3.1331,3.1698,3.1211,3.0908,3.0908,3.0898,3.0898,3.0898,3.0898,3.0898,3.0898,3.0898,3.0898,3.0898,3.0898,3.0898,3.0898,3.0898,3.0898,3.0898,3.0908,3.0908,3.0908,3.0898,3.0976,3.125,3.1259,3.0847,3.0176,2.9686,2.9259,2.886,2.8097,2.7289,2.6744,2.6388,2.597,2.5304,2.4881,2.4541,2.385,2.3594,2.3458,2.3454,2.3449,2.3574,2.3859,2.3925,2.4042,2.4284,2.4437,2.4466,2.4466,2.4459,2.4452,2.4598,2.4693,2.4803,2.4876,2.5061,2.5112,2.5052,2.5059,2.5059,2.5059,2.4858,2.4747,2.4778,2.4482,2.4159,3.5537,3.5312,3.4609,3.4209,3.4033,3.3603,3.3418,3.3418,3.3418,3.3418,3.3418,3.3418,3.3418,3.3418,3.3418,3.3301,3.3111,3.3102,3.254,3.1708,3.1322,3.0797,3.0018,2.9504,2.8848,2.7857,2.7326,2.6725,2.6071,2.6003,2.5869,2.5599,2.5936,2.6525,2.7259,2.7981,2.8839,2.9765,3.0074,3.0413,3.0801,3.0883,3.1208,3.1707,3.166,3.1911,3.2344,3.1719,3.1289,3.1133,3.0986,3.0898,3.0898,3.0898,3.0898,3.0898,3.0898,3.0898,3.0898,3.0898,3.0898,3.0898,3.0898,3.0898,3.0918,3.0986,3.1123,3.1123,3.1299,3.1475,3.1699,3.1758,3.1501,3.1149,3.0672,3.0086,2.9476,2.8801,2.8088,2.7632,2.7325,2.6797,2.6302,2.5617,2.5235,2.4537,2.4167,2.3888,2.3848,2.3771,2.3969,2.4145,2.4247,2.4423,2.4679,2.4848,2.4899,2.4832,2.4832,2.4899,2.4965,2.492,2.4986,2.4979,2.5119,2.5119,2.5059,2.5059,2.5059,2.5059,2.5059,2.503,2.4918,2.4865,2.4643,3.5791,3.5391,3.4932,3.4502,3.4111,3.3682,3.3467,3.3418,3.3418,3.3418,3.3418,3.3418,3.3418,3.3418,3.3418,3.3355,3.3355,3.3355,3.3165,3.2721,3.2275,3.1754,3.1184,3.0083,2.9364,2.8831,2.8172,2.7443,2.6859,2.6725,2.6525,2.6272,2.68,2.7533,2.818,2.8905,2.9822,3.0676,3.0935,3.1304,3.1845,3.1845,3.2164,3.2762,3.2454,3.2459,3.2702,3.2373,3.1953,3.1533,3.1152,3.0967,3.0908,3.0898,3.0898,3.0898,3.0898,3.0898,3.0898,3.0898,3.0928,3.0986,3.0996,3.0957,3.1113,3.1387,3.1562,3.1572,3.1855,3.2109,3.2168,3.2207,3.2197,3.2236,3.1735,3.1119,3.0316,2.9856,2.9279,2.8772,2.842,2.8043,2.7563,2.6749,2.612,2.5537,2.4952,2.4516,2.4216,2.4145,2.4276,2.4488,2.4643,2.4878,2.5092,2.5316,2.5353,2.536,2.5315,2.527,2.524,2.5187,2.5262,2.5262,2.5262,2.5262,2.5127,2.5194,2.5127,2.5127,2.5127,2.5059,2.5059,2.4984,2.4984,3.5957,3.581,3.5391,3.4941,3.4502,3.4082,3.3711,3.3437,3.3418,3.3418,3.3418,3.3418,3.3418,3.3418,3.3418,3.3418,3.3418,3.3418,3.3355,3.3238,3.3102,3.2521,3.1754,3.0935,3.0278,2.987,2.9225,2.851,2.7849,2.7576,2.7318,2.6934,2.7384,2.7973,2.8633,2.9617,3.0399,3.1249,3.1772,3.2029,3.2221,3.2284,3.2466,3.2848,3.2796,3.2937,3.316,3.2851,3.2275,3.1582,3.1426,3.1201,3.0976,3.0947,3.0976,3.0967,3.0937,3.0918,3.0918,3.0928,3.1045,3.1318,3.1348,3.1494,3.1876,3.1914,3.1992,3.2012,3.2129,3.2324,3.2549,3.2627,3.2754,3.2897,3.2341,3.1512,3.0797,3.03,2.9919,2.9493,2.8966,2.8561,2.8073,2.7502,2.6664,2.5942,2.5393,2.4935,2.47,2.4584,2.4753,2.4974,2.5129,2.5301,2.5495,2.5712,2.5854,2.5913,2.5779,2.5644,2.5592,2.5457,2.5599,2.5801,2.5869,2.5869,2.5659,2.5524,2.539,2.539,2.5255,2.5262,2.5119,2.5052,2.5052,3.6025,3.5986,3.5566,3.5244,3.4922,3.4326,3.3926,3.3682,3.3496,3.3418,3.3418,3.3418,3.3418,3.3418,3.3418,3.3418,3.3418,3.3418,3.3418,3.3418,3.3355,3.2975,3.2275,3.1635,3.1175,3.0972,3.0278,2.9691,2.9159,2.8757,2.8444,2.8254,2.8436,2.8954,2.9683,3.0399,3.1166,3.1955,3.2412,3.2667,3.2794,3.2804,3.2921,3.3102,3.3102,3.3238,3.3316,3.3184,3.2666,3.2002,3.1777,3.168,3.1465,3.1426,3.1426,3.1426,3.1426,3.1435,3.1435,3.1426,3.1533,3.1728,3.1787,3.1914,3.2129,3.2305,3.2422,3.2441,3.2578,3.2803,3.2978,3.3057,3.3174,3.3218,3.2791,3.22,3.1692,3.1408,3.0941,3.0492,3.0049,2.9533,2.8968,2.8263,2.7481,2.6727,2.6194,2.5753,2.5404,2.53,2.5264,2.5502,2.5794,2.6048,2.6249,2.6391,2.6666,2.6666,2.6725,2.6465,2.6264,2.6122,2.6264,2.6465,2.6532,2.6465,2.6264,2.613,2.6055,2.5921,2.5659,2.5457,2.539,2.539,2.5322,3.6025,3.5986,3.5605,3.5439,3.5264,3.457,3.4189,3.3994,3.3682,3.3476,3.3428,3.3418,3.3418,3.3418,3.3418,3.3418,3.3418,3.3418,3.3418,3.3418,3.3355,3.3165,3.2858,3.2275,3.201,3.1818,3.1313,3.0852,3.039,3.0074,2.9822,2.9626,2.9822,3.0278,3.0797,3.1313,3.2029,3.2603,3.2858,3.3048,3.3228,3.3292,3.3292,3.3292,3.3355,3.3355,3.3355,3.335,3.3057,3.2405,3.2326,3.2238,3.2158,3.2129,3.218,3.2141,3.2031,3.2051,3.2129,3.2101,3.2219,3.2197,3.2226,3.2266,3.2422,3.2695,3.2851,3.2861,3.3203,3.3301,3.334,3.3389,3.3379,3.3345,3.3306,3.3209,3.2985,3.2676,3.2221,3.158,3.1423,3.0852,3.0074,2.9225,2.8477,2.749,2.702,2.6589,2.6252,2.6134,2.6157,2.6226,2.6465,2.6792,2.6992,2.7193,2.7392,2.7592,2.7783,2.7716,2.7451,2.7318,2.7259,2.7267,2.7267,2.7267,2.7059,2.6926,2.6859,2.6599,2.6331,2.6071,2.5869,2.5861,2.5854,3.6025,3.6016,3.5928,3.5693,3.54,3.5185,3.4717,3.4082,3.3975,3.3721,3.3476,3.3418,3.3418,3.3418,3.3418,3.3418,3.3418,3.3418,3.3418,3.3418,3.3418,3.3355,3.3228,3.2848,3.2667,3.253,3.201,3.1625,3.1497,3.1175,3.1055,3.0926,3.0926,3.124,3.1625,3.2029,3.2348,3.2858,3.3175,3.3292,3.3355,3.3418,3.3418,3.3418,3.3418,3.3418,3.3418,3.3418,3.333,3.3125,3.2832,3.2549,3.2324,3.2236,3.2256,3.2266,3.2287,3.2268,3.2187,3.2256,3.2324,3.2627,3.2676,3.2793,3.3125,3.3174,3.3262,3.3291,3.3369,3.3408,3.3418,3.3418,3.3418,3.3418,3.3418,3.3355,3.3228,3.2975,3.2603,3.2157,3.1515,3.0815,3.0296,2.9447,2.8782,2.8254,2.7791,2.7392,2.72,2.7008,2.7067,2.7067,2.7451,2.7775,2.8097,2.837,2.8699,2.8839,2.8971,2.9028,2.8831,2.8502,2.8444,2.8254,2.8064,2.7998,2.8056,2.7783,2.7642,2.7326,2.7067,2.6867,2.6666,2.6592,2.6324,3.6025,3.6025,3.6025,3.5889,3.5674,3.5459,3.5,3.4414,3.4205,3.3828,3.3486,3.3418,3.3418,3.3418,3.3418,3.3418,3.3418,3.3418,3.3418,3.3418,3.3418,3.3418,3.3364,3.3238,3.3111,3.3048,3.2657,3.2403,3.2275,3.2093,3.1836,3.1901,3.1827,3.2019,3.2329,3.254,3.2794,3.3102,3.3292,3.3418,3.3418,3.3418,3.3418,3.3418,3.3418,3.3418,3.3418,3.3418,3.3418,3.3369,3.3203,3.3008,3.2812,3.2744,3.2744,3.2764,3.2754,3.2754,3.2764,3.2764,3.2871,3.3047,3.3086,3.3203,3.3359,3.3418,3.3418,3.3418,3.3408,3.3418,3.3418,3.3418,3.3418,3.3418,3.3418,3.3418,3.3355,3.3228,3.2985,3.2603,3.2038,3.146,3.0815,2.9905,2.9316,2.8905,2.832,2.7932,2.799,2.7857,2.799,2.8114,2.8502,2.8897,2.9282,2.9674,3.0139,3.0278,3.0343,3.0399,3.0334,2.9944,2.9552,2.9382,2.9202,2.925,2.9242,2.8905,2.8642,2.8568,2.8378,2.7923,2.7525,2.7384,2.7118,3.6025,3.6025,3.6025,3.6025,3.5967,3.5644,3.5244,3.4785,3.4346,3.3975,3.3564,3.3476,3.3418,3.3418,3.3418,3.3418,3.3418,3.3418,3.3418,3.3418,3.3418,3.3418,3.3355,3.3355,3.3355,3.3355,3.3102,3.2985,3.2858,3.274,3.254,3.2549,3.2549,3.2667,3.2912,3.2975,3.3111,3.3355,3.3355,3.3418,3.3418,3.3418,3.3418,3.3418,3.3418,3.3418,3.3418,3.3418,3.3418,3.3418,3.3418,3.3418,3.3418,3.3418,3.3418,3.3389,3.331,3.3271,3.3262,3.332,3.335,3.3418,3.3398,3.3398,3.3408,3.3418,3.3418,3.3418,3.3418,3.3418,3.3418,3.3418,3.3418,3.3418,3.3418,3.3418,3.3418,3.3355,3.3238,3.2921,3.2412,3.1901,3.1322,3.0538,3.0018,2.9504,2.8988,2.8659,2.8716,2.8839,2.9102,2.9356,2.9748,3.0065,3.039,3.0714,3.1184,3.1313,3.1451,3.1451,3.1506,3.1184,3.0806,3.0582,3.047,3.0488,3.0458,3.0223,3.0075,2.9996,2.9617,2.9168,2.8699,2.8238,2.7907,3.6025,3.6025,3.6025,3.6025,3.6016,3.5937,3.5644,3.5254,3.4756,3.4355,3.3935,3.3584,3.3418,3.3418,3.3418,3.3418,3.3418,3.3418,3.3418,3.3418,3.3418,3.3418,3.3418,3.3418,3.3418,3.3418,3.3292,3.3301,3.3301,3.3228,3.3102,3.3165,3.3165,3.3228,3.3228,3.3292,3.3292,3.3355,3.3418,3.3418,3.3418,3.3418,3.3418,3.3418,3.3418,3.3418,3.3418,3.3418,3.3418,3.3418,3.3418,3.3418,3.3418,3.3418,3.3418,3.3418,3.3418,3.3418,3.3418,3.3418,3.3418,3.3418,3.3418,3.3418,3.3418,3.3418,3.3418,3.3418,3.3418,3.3418,3.3418,3.3418,3.3418,3.3418,3.3418,3.3418,3.3418,3.3355,3.3301,3.2975,3.2603,3.2348,3.1763,3.1313,3.0788,3.0408,3.0091,2.9896,3.0018,3.0213,3.0473,3.0797,3.1055,3.1304,3.1561,3.1827,3.2157,3.2157,3.2221,3.2221,3.2221,3.223,3.1983,3.1681,3.1552,3.1485,3.1503,3.1447,3.1383,3.1181,3.0766,3.0417,2.9944,2.9535,2.9159,3.6025,3.6025,3.6025,3.6025,3.6025,3.6025,3.5781,3.5361,3.4902,3.4463,3.4043,3.3633,3.3418,3.3418,3.3418,3.3418,3.3418,3.3418,3.3418,3.3418,3.3418,3.3418,3.3418,3.3418,3.3418,3.3418,3.3418,3.3418,3.3418,3.3355,3.3418,3.3355,3.3418,3.3418,3.3418,3.3355,3.3418,3.3418,3.3418,3.3418,3.3418,3.3418,3.3418,3.3418,3.3418,3.3418,3.3418,3.3418,3.3418,3.3418,3.3418,3.3418,3.3418,3.3418,3.3418,3.3418,3.3418,3.3418,3.3418,3.3418,3.3418,3.3418,3.3418,3.3418,3.3418,3.3418,3.3418,3.3418,3.3418,3.3418,3.3418,3.3418,3.3418,3.3418,3.3418,3.3418,3.3418,3.3418,3.3292,3.3102,3.2848,3.2667,3.2476,3.1955,3.1561,3.1313,3.1064,3.1129,3.1258,3.1377,3.1506,3.1699,3.1891,3.2147,3.2329,3.253,3.2731,3.2794,3.2794,3.2794,3.2794,3.2794,3.2794,3.2657,3.2528,3.2422,3.2478,3.2404,3.2385,3.2236,3.1764,3.1322,3.1129,3.0779,3.0334,3.6025,3.6025,3.6025,3.6025,3.6025,3.6025,3.583,3.5469,3.5049,3.4619,3.417,3.3769,3.3525,3.3437,3.3418,3.3418,3.3418,3.3418,3.3418,3.3418,3.3418,3.3418,3.3418,3.3418,3.3418,3.3418,3.3418,3.3418,3.3418,3.3418,3.3418,3.3418,3.3418,3.3418,3.3418,3.3418,3.3418,3.3418,3.3418,3.3418,3.3418,3.3418,3.3418,3.3418,3.3418,3.3418,3.3418,3.3418,3.3418,3.3418,3.3418,3.3418,3.3418,3.3418,3.3418,3.3418,3.3418,3.3418,3.3418,3.3418,3.3418,3.3418,3.3418,3.3418,3.3418,3.3418,3.3418,3.3418,3.3418,3.3418,3.3418,3.3418,3.3418,3.3418,3.3418,3.3418,3.3418,3.3418,3.3418,3.3228,3.3102,3.2975,3.2785,3.2603,3.2147,3.2019,3.1836,3.1836,3.1891,3.201,3.2202,3.2403,3.2594,3.2785,3.2975,3.3038,3.3165,3.3102,3.3165,3.3165,3.3228,3.3292,3.3219,3.3111,3.3322,3.3249,3.3306,3.3364,3.3345,3.3091,3.2651,3.2279,3.1993,3.1699,3.1313,3.6025,3.6025,3.6025,3.6025,3.6025,3.6025,3.6006,3.5879,3.5449,3.5049,3.4541,3.415,3.375,3.3486,3.3418,3.3418,3.3418,3.3418,3.3418,3.3418,3.3418,3.3418,3.3418,3.3418,3.3418,3.3418,3.3418,3.3418,3.3418,3.3418,3.3418,3.3418,3.3418,3.3418,3.3418,3.3418,3.3418,3.3418,3.3418,3.3418,3.3418,3.3418,3.3418,3.3418,3.3418,3.3418,3.3418,3.3418,3.3418,3.3418,3.3418,3.3418,3.3418,3.3418,3.3418,3.3418,3.3418,3.3418,3.3418,3.3418,3.3418,3.3418,3.3418,3.3418,3.3418,3.3418,3.3418,3.3418,3.3418,3.3418,3.3418,3.3418,3.3418,3.3418,3.3418,3.3418,3.3418,3.3418,3.3418,3.3355,3.3228,3.3292,3.3228,3.2975,3.2794,3.2667,3.254,3.253,3.253,3.2594,3.2711,3.2848,3.2912,3.3102,3.3165,3.3355,3.3355,3.3418,3.3418,3.3418,3.3418,3.3418,3.3418,3.3389,3.3646,3.3795,3.3779,3.3856,3.4122,3.3905,3.3405,3.3082,3.2842,3.2559,3.2147,3.6025,3.6025,3.6025,3.6025,3.6025,3.6025,3.6025,3.5937,3.5576,3.5137,3.4678,3.4258,3.3828,3.3486,3.3418,3.3418,3.3418,3.3418,3.3418,3.3418,3.3418,3.3418,3.3418,3.3418,3.3418,3.3418,3.3418,3.3418,3.3418,3.3418,3.3418,3.3418,3.3418,3.3418,3.3418,3.3418,3.3418,3.3418,3.3418,3.3418,3.3418,3.3418,3.3418,3.3418,3.3418,3.3418,3.3418,3.3418,3.3418,3.3418,3.3418,3.3418,3.3418,3.3418,3.3418,3.3418,3.3418,3.3418,3.3418,3.3418,3.3418,3.3418,3.3418,3.3418,3.3418,3.3418,3.3418,3.3418,3.3418,3.3418,3.3418,3.3418,3.3418,3.3418,3.3418,3.3418,3.3418,3.3418,3.3418,3.3418,3.3418,3.3418,3.3418,3.3228,3.3102,3.3038,3.2975,3.2975,3.3038,3.3111,3.3165,3.3228,3.3292,3.3355,3.3355,3.3355,3.3355,3.3418,3.3418,3.3418,3.3418,3.3418,3.3418,3.3418,3.3501,3.3725,3.4023,3.4297,3.4437,3.4329,3.4109,3.3704,3.3256,3.3121,3.2785,3.6025,3.6025,3.6025,3.6025,3.6025,3.6025,3.6025,3.5986,3.5703,3.5303,3.4814,3.4326,3.3828,3.3496,3.3418,3.3418,3.3418,3.3418,3.3418,3.3418,3.3418,3.3418,3.3418,3.3418,3.3418,3.3418,3.3418,3.3418,3.3418,3.3418,3.3418,3.3418,3.3418,3.3418,3.3418,3.3418,3.3418,3.3418,3.3418,3.3418,3.3418,3.3418,3.3418,3.3418,3.3418,3.3418,3.3418,3.3418,3.3418,3.3418,3.3418,3.3418,3.3418,3.3418,3.3418,3.3418,3.3418,3.3418,3.3418,3.3418,3.3418,3.3418,3.3418,3.3418,3.3418,3.3418,3.3418,3.3418,3.3418,3.3418,3.3418,3.3418,3.3418,3.3418,3.3418,3.3418,3.3418,3.3418,3.3418,3.3418,3.3418,3.3418,3.3418,3.3418,3.3355,3.3355,3.3418,3.3418,3.3355,3.3364,3.3355,3.3418,3.3418,3.3418,3.3418,3.3418,3.3418,3.3418,3.3418,3.3418,3.3418,3.3418,3.3418,3.3418,3.3418,3.3672,3.3994,3.4355,3.4648,3.4414,3.4115,3.3871,3.3618,3.3525,3.3355,3.6025,3.6025,3.6025,3.6025,3.6025,3.6025,3.6025,3.6025,3.5976,3.5693,3.5195,3.4473,3.3838,3.3525,3.3437,3.3418,3.3418,3.3418,3.3418,3.3418,3.3418,3.3418,3.3418,3.3418,3.3418,3.3418,3.3418,3.3418,3.3418,3.3418,3.3418,3.3418,3.3418,3.3418,3.3418,3.3418,3.3418,3.3418,3.3418,3.3418,3.3418,3.3418,3.3418,3.3418,3.3418,3.3418,3.3418,3.3418,3.3418,3.3418,3.3418,3.3418,3.3418,3.3418,3.3418,3.3418,3.3418,3.3418,3.3418,3.3418,3.3418,3.3418,3.3418,3.3418,3.3418,3.3418,3.3418,3.3418,3.3418,3.3418,3.3418,3.3418,3.3418,3.3418,3.3418,3.3418,3.3418,3.3418,3.3418,3.3418,3.3418,3.3418,3.3418,3.3418,3.3418,3.3418,3.3418,3.3418,3.3418,3.3355,3.3355,3.3418,3.3418,3.3418,3.3418,3.3418,3.3418,3.3418,3.3418,3.3418,3.3418,3.3418,3.3418,3.3418,3.3437,3.3701,3.3945,3.4238,3.4404,3.4297,3.4131,3.3926,3.3691,3.3476,3.3418,3.6025,3.6025,3.6025,3.6025,3.6025,3.6025,3.6025,3.6025,3.6025,3.5781,3.5342,3.4502,3.3984,3.3779,3.3506,3.3418,3.3418,3.3418,3.3418,3.3418,3.3418,3.3418,3.3418,3.3418,3.3418,3.3418,3.3418,3.3418,3.3418,3.3418,3.3418,3.3418,3.3418,3.3418,3.3418,3.3418,3.3418,3.3418,3.3418,3.3418,3.3418,3.3418,3.3418,3.3418,3.3418,3.3418,3.3418,3.3418,3.3418,3.3418,3.3418,3.3418,3.3418,3.3418,3.3418,3.3418,3.3418,3.3418,3.3418,3.3418,3.3418,3.3418,3.3418,3.3418,3.3418,3.3418,3.3418,3.3418,3.3418,3.3418,3.3418,3.3418,3.3418,3.3418,3.3418,3.3418,3.3418,3.3418,3.3418,3.3418,3.3418,3.3418,3.3418,3.3418,3.3418,3.3418,3.3418,3.3418,3.3418,3.3418,3.3418,3.3418,3.3418,3.3418,3.3418,3.3418,3.3418,3.3418,3.3418,3.3418,3.3418,3.3418,3.3418,3.3418,3.3418,3.3564,3.3779,3.4072,3.4189,3.4199,3.4111,3.3975,3.3721,3.3447,3.3418,3.6025,3.6025,3.6025,3.6025,3.6025,3.6025,3.6025,3.6025,3.6025,3.5781,3.5342,3.46,3.417,3.3994,3.3623,3.3418,3.3418,3.3418,3.3418,3.3418,3.3418,3.3418,3.3418,3.3418,3.3418,3.3418,3.3418,3.3418,3.3418,3.3418,3.3418,3.3418,3.3418,3.3418,3.3418,3.3418,3.3418,3.3418,3.3418,3.3418,3.3418,3.3418,3.3418,3.3418,3.3418,3.3418,3.3418,3.3418,3.3418,3.3418,3.3418,3.3418,3.3418,3.3418,3.3418,3.3418,3.3418,3.3418,3.3418,3.3418,3.3418,3.3418,3.3418,3.3418,3.3418,3.3418,3.3418,3.3418,3.3418,3.3418,3.3418,3.3418,3.3418,3.3418,3.3418,3.3418,3.3418,3.3418,3.3418,3.3418,3.3418,3.3418,3.3418,3.3418,3.3418,3.3418,3.3418,3.3418,3.3418,3.3418,3.3418,3.3418,3.3418,3.3418,3.3418,3.3418,3.3418,3.3418,3.3418,3.3418,3.3418,3.3418,3.3418,3.3418,3.3418,3.3418,3.3555,3.3779,3.3984,3.417,3.4014,3.3818,3.3662,3.3418,3.3418,3.6025,3.6025,3.6025,3.6025,3.6025,3.6025,3.6025,3.6025,3.6016,3.581,3.543,3.4892,3.4463,3.4111,3.3721,3.3506,3.3418,3.3418,3.3418,3.3418,3.3418,3.3418,3.3418,3.3418,3.3418,3.3418,3.3418,3.3418,3.3418,3.3418,3.3418,3.3418,3.3418,3.3418,3.3418,3.3418,3.3418,3.3418,3.3418,3.3418,3.3418,3.3418,3.3418,3.3418,3.3418,3.3418,3.3418,3.3418,3.3418,3.3418,3.3418,3.3418,3.3418,3.3418,3.3418,3.3418,3.3418,3.3418,3.3418,3.3418,3.3418,3.3418,3.3418,3.3418,3.3418,3.3418,3.3418,3.3418,3.3418,3.3418,3.3418,3.3418,3.3418,3.3418,3.3418,3.3418,3.3418,3.3418,3.3418,3.3418,3.3418,3.3418,3.3418,3.3418,3.3418,3.3418,3.3418,3.3418,3.3418,3.3418,3.3418,3.3418,3.3418,3.3418,3.3418,3.3418,3.3418,3.3418,3.3418,3.3418,3.3418,3.3418,3.3418,3.3418,3.3418,3.3418,3.3418,3.3457,3.3662,3.3838,3.376,3.3603,3.3476,3.3418,3.3418,3.6025,3.6025,3.6025,3.6025,3.6025,3.6025,3.6025,3.6025,3.6016,3.5937,3.5742,3.5351,3.4912,3.4473,3.4033,3.3691,3.3457,3.3418,3.3418,3.3418,3.3418,3.3418,3.3418,3.3418,3.3418,3.3418,3.3418,3.3418,3.3418,3.3418,3.3418,3.3418,3.3418,3.3418,3.3418,3.3418,3.3418,3.3418,3.3418,3.3418,3.3418,3.3418,3.3418,3.3418,3.3418,3.3418,3.3418,3.3418,3.3418,3.3418,3.3418,3.3418,3.3418,3.3418,3.3418,3.3418,3.3418,3.3418,3.3418,3.3418,3.3418,3.3418,3.3418,3.3418,3.3418,3.3418,3.3418,3.3418,3.3418,3.3418,3.3418,3.3418,3.3418,3.3418,3.3418,3.3418,3.3418,3.3418,3.3418,3.3418,3.3418,3.3418,3.3418,3.3418,3.3418,3.3418,3.3418,3.3418,3.3418,3.3418,3.3418,3.3418,3.3418,3.3418,3.3418,3.3418,3.3418,3.3418,3.3418,3.3418,3.3418,3.3418,3.3418,3.3418,3.3418,3.3418,3.3418,3.3418,3.3418,3.3467,3.3525,3.3535,3.3447,3.3418,3.3418,3.6025,3.6025,3.6025,3.6025,3.6025,3.6025,3.6025,3.6025,3.6025,3.6025,3.5928,3.5566,3.5234,3.4834,3.4336,3.3984,3.3633,3.3467,3.3418,3.3418,3.3418,3.3418,3.3418,3.3418,3.3418,3.3418,3.3418,3.3418,3.3418,3.3418,3.3418,3.3418,3.3418,3.3418,3.3418,3.3418,3.3418,3.3418,3.3418,3.3418,3.3418,3.3418,3.3418,3.3418,3.3418,3.3418,3.3418,3.3418,3.3418,3.3418,3.3418,3.3418,3.3418,3.3418,3.3418,3.3418,3.3418,3.3418,3.3418,3.3418,3.3418,3.3418,3.3418,3.3418,3.3418,3.3418,3.3418,3.3418,3.3418,3.3418,3.3418,3.3418,3.3418,3.3418,3.3418,3.3418,3.3418,3.3418,3.3418,3.3418,3.3418,3.3418,3.3418,3.3418,3.3418,3.3418,3.3418,3.3418,3.3418,3.3418,3.3418,3.3418,3.3418,3.3418,3.3418,3.3418,3.3418,3.3418,3.3418,3.3418,3.3418,3.3418,3.3418,3.3418,3.3418,3.3418,3.3418,3.3418,3.3418,3.3467,3.3555,3.3516,3.3437,3.3418,3.3418,3.6025,3.6025,3.6025,3.6025,3.6025,3.6025,3.6025,3.6025,3.6025,3.6025,3.5996,3.5605,3.5391,3.5205,3.4492,3.4092,3.3926,3.3594,3.3457,3.3418,3.3418,3.3418,3.3418,3.3418,3.3418,3.3418,3.3418,3.3418,3.3418,3.3418,3.3418,3.3418,3.3418,3.3418,3.3418,3.3418,3.3418,3.3418,3.3418,3.3418,3.3418,3.3418,3.3418,3.3418,3.3418,3.3418,3.3418,3.3418,3.3418,3.3418,3.3418,3.3418,3.3418,3.3418,3.3418,3.3418,3.3418,3.3418,3.3418,3.3418,3.3418,3.3418,3.3418,3.3418,3.3418,3.3418,3.3418,3.3418,3.3418,3.3418,3.3418,3.3418,3.3418,3.3418,3.3418,3.3418,3.3418,3.3418,3.3418,3.3418,3.3418,3.3418,3.3418,3.3418,3.3457,3.3418,3.3418,3.3418,3.3418,3.3418,3.3418,3.3418,3.3418,3.3418,3.3418,3.3418,3.3418,3.3418,3.3418,3.3418,3.3418,3.3418,3.3418,3.3418,3.3418,3.3418,3.3418,3.3418,3.3418,3.3476,3.3525,3.3506,3.3418,3.3418,3.3418,3.6025,3.6025,3.6025,3.6025,3.6025,3.6025,3.6025,3.6025,3.6025,3.6025,3.6006,3.5898,3.5664,3.5351,3.4785,3.4394,3.4014,3.3682,3.3476,3.3418,3.3418,3.3418,3.3418,3.3418,3.3418,3.3418,3.3418,3.3418,3.3418,3.3418,3.3418,3.3418,3.3418,3.3418,3.3418,3.3418,3.3418,3.3418,3.3418,3.3418,3.3418,3.3418,3.3418,3.3418,3.3418,3.3418,3.3418,3.3418,3.3418,3.3418,3.3418,3.3418,3.3418,3.3418,3.3418,3.3418,3.3418,3.3418,3.3418,3.3418,3.3418,3.3418,3.3418,3.3418,3.3418,3.3418,3.3418,3.3418,3.3418,3.3418,3.3418,3.3418,3.3418,3.3418,3.3418,3.3418,3.3418,3.3418,3.3418,3.3418,3.3418,3.3418,3.3418,3.3506,3.3535,3.3457,3.3457,3.3516,3.3457,3.3476,3.3418,3.3418,3.3418,3.3418,3.3418,3.3418,3.3418,3.3418,3.3418,3.3418,3.3418,3.3418,3.3418,3.3418,3.3418,3.3418,3.3418,3.3418,3.3418,3.3418,3.3457,3.3437,3.3418,3.3418,3.3418,3.6025,3.6025,3.6025,3.6025,3.6025,3.6025,3.6025,3.6025,3.6025,3.6025,3.6025,3.6016,3.5879,3.5625,3.5185,3.4756,3.4316,3.3926,3.3633,3.3418,3.3418,3.3418,3.3418,3.3418,3.3418,3.3418,3.3418,3.3418,3.3418,3.3418,3.3418,3.3418,3.3418,3.3418,3.3418,3.3418,3.3418,3.3418,3.3418,3.3418,3.3418,3.3418,3.3418,3.3418,3.3418,3.3418,3.3418,3.3418,3.3418,3.3418,3.3418,3.3418,3.3418,3.3418,3.3418,3.3418,3.3418,3.3418,3.3418,3.3418,3.3418,3.3418,3.3418,3.3418,3.3418,3.3418,3.3418,3.3418,3.3418,3.3418,3.3418,3.3418,3.3418,3.3418,3.3418,3.3418,3.3418,3.3418,3.3418,3.3418,3.3418,3.3418,3.3467,3.3584,3.3711,3.3789,3.3935,3.4092,3.3887,3.3633,3.3516,3.3418,3.3418,3.3418,3.3418,3.3418,3.3418,3.3418,3.3418,3.3418,3.3418,3.3418,3.3418,3.3418,3.3418,3.3418,3.3418,3.3418,3.3418,3.3418,3.3418,3.3418,3.3418,3.3418,3.3418,3.6025,3.6025,3.6025,3.6025,3.6025,3.6025,3.6025,3.6025,3.6025,3.6025,3.6025,3.6025,3.6006,3.584,3.5478,3.5127,3.4678,3.4238,3.3809,3.3457,3.3428,3.3428,3.3418,3.3418,3.3418,3.3418,3.3418,3.3418,3.3418,3.3418,3.3418,3.3418,3.3418,3.3418,3.3418,3.3418,3.3418,3.3418,3.3418,3.3418,3.3418,3.3418,3.3418,3.3418,3.3418,3.3418,3.3418,3.3418,3.3418,3.3418,3.3418,3.3418,3.3418,3.3418,3.3418,3.3418,3.3418,3.3418,3.3418,3.3418,3.3418,3.3418,3.3418,3.3418,3.3418,3.3418,3.3418,3.3418,3.3418,3.3418,3.3418,3.3418,3.3418,3.3418,3.3418,3.3418,3.3418,3.3496,3.3643,3.3682,3.3809,3.3809,3.3877,3.4023,3.4111,3.4199,3.4287,3.4492,3.4394,3.3994,3.3789,3.3594,3.3447,3.3447,3.3418,3.3418,3.3418,3.3418,3.3457,3.3418,3.3418,3.3418,3.3418,3.3418,3.3418,3.3418,3.3418,3.3418,3.3418,3.3418,3.3418,3.3418,3.3418,3.3418,3.3418,3.6025,3.6025,3.6025,3.6025,3.6025,3.6025,3.6025,3.6025,3.6025,3.6025,3.6025,3.6025,3.6025,3.5957,3.5625,3.5322,3.5088,3.4482,3.4082,3.3769,3.3594,3.3428,3.3418,3.3418,3.3418,3.3418,3.3418,3.3418,3.3418,3.3418,3.3418,3.3418,3.3418,3.3418,3.3418,3.3418,3.3418,3.3418,3.3418,3.3418,3.3418,3.3418,3.3418,3.3418,3.3418,3.3418,3.3418,3.3418,3.3418,3.3418,3.3418,3.3418,3.3418,3.3418,3.3418,3.3418,3.3418,3.3418,3.3418,3.3418,3.3418,3.3418,3.3418,3.3418,3.3418,3.3418,3.3418,3.3418,3.3418,3.3418,3.3418,3.3418,3.3418,3.3418,3.3457,3.3457,3.3467,3.3682,3.3896,3.4043,3.4199,3.4277,3.4326,3.4434,3.4512,3.456,3.458,3.4668,3.4726,3.4502,3.4316,3.4072,3.3594,3.3506,3.3516,3.3603,3.3701,3.3633,3.3643,3.3555,3.3467,3.3418,3.3418,3.3418,3.3418,3.3418,3.3418,3.3418,3.3418,3.3418,3.3418,3.3418,3.3418,3.3418,3.3418,3.6025,3.6025,3.6025,3.6025,3.6025,3.6025,3.6025,3.6025,3.6025,3.6025,3.6025,3.6025,3.6025,3.6025,3.5762,3.5517,3.5322,3.4687,3.4277,3.3994,3.3711,3.3476,3.3418,3.3418,3.3418,3.3418,3.3418,3.3418,3.3418,3.3418,3.3418,3.3418,3.3418,3.3418,3.3418,3.3418,3.3418,3.3418,3.3418,3.3418,3.3418,3.3418,3.3418,3.3418,3.3418,3.3418,3.3418,3.3418,3.3418,3.3418,3.3418,3.3418,3.3418,3.3418,3.3418,3.3418,3.3418,3.3418,3.3418,3.3418,3.3418,3.3418,3.3418,3.3418,3.3418,3.3418,3.3418,3.3418,3.3418,3.3418,3.3418,3.3418,3.3418,3.3418,3.3682,3.3857,3.4014,3.4238,3.4336,3.4385,3.4492,3.4512,3.4629,3.4873,3.4971,3.5088,3.5078,3.5225,3.5205,3.5039,3.4844,3.4639,3.4228,3.4023,3.4131,3.415,3.415,3.4043,3.3896,3.3887,3.3857,3.3564,3.3418,3.3457,3.3467,3.3418,3.3418,3.3418,3.3418,3.3418,3.3418,3.3418,3.3418,3.3418,3.3418,3.6025,3.6025,3.6025,3.6025,3.6025,3.6025,3.6025,3.6025,3.6025,3.6025,3.6025,3.6025,3.6025,3.6025,3.6016,3.5762,3.5439,3.5029,3.4609,3.417,3.376,3.3555,3.3447,3.3418,3.3418,3.3418,3.3418,3.3418,3.3418,3.3418,3.3418,3.3418,3.3418,3.3418,3.3418,3.3418,3.3418,3.3418,3.3418,3.3418,3.3418,3.3418,3.3418,3.3418,3.3418,3.3418,3.3418,3.3418,3.3418,3.3418,3.3418,3.3418,3.3418,3.3418,3.3418,3.3418,3.3418,3.3418,3.3418,3.3418,3.3418,3.3418,3.3418,3.3418,3.3418,3.3418,3.3418,3.3418,3.3418,3.3437,3.3437,3.3437,3.3437,3.3613,3.3955,3.4248,3.4482,3.4736,3.4775,3.4795,3.4853,3.4873,3.5049,3.5303,3.541,3.5537,3.5674,3.5879,3.5918,3.5625,3.5381,3.5273,3.5059,3.4922,3.4717,3.4609,3.4521,3.4443,3.4316,3.4316,3.4228,3.3916,3.3672,3.3564,3.3555,3.3467,3.3418,3.3418,3.3418,3.3418,3.3418,3.3418,3.3418,3.3418,3.3418,3.6025,3.6025,3.6025,3.6025,3.6025,3.6025,3.6025,3.6025,3.6025,3.6025,3.6025,3.6025,3.6025,3.6025,3.6025,3.5908,3.5771,3.5371,3.499,3.457,3.4062,3.373,3.3506,3.3418,3.3418,3.3418,3.3418,3.3418,3.3418,3.3418,3.3418,3.3418,3.3418,3.3418,3.3418,3.3418,3.3418,3.3418,3.3418,3.3418,3.3418,3.3418,3.3418,3.3418,3.3418,3.3418,3.3418,3.3418,3.3418,3.3418,3.3418,3.3418,3.3418,3.3418,3.3418,3.3418,3.3418,3.3418,3.3418,3.3418,3.3418,3.3418,3.3418,3.3418,3.3418,3.3418,3.3418,3.3428,3.3447,3.3496,3.3506,3.3506,3.3545,3.3994,3.4385,3.458,3.4795,3.5068,3.5254,3.5361,3.5488,3.5547,3.5644,3.5781,3.5781,3.5859,3.5859,3.6025,3.6025,3.5937,3.585,3.5771,3.5674,3.5283,3.4863,3.4873,3.4824,3.4766,3.4726,3.4697,3.4551,3.4228,3.4014,3.3828,3.3623,3.3486,3.3457,3.3418,3.3418,3.3418,3.3418,3.3418,3.3418,3.3418,3.3418]}]]